[[{"header":{"parameterUnit":"m.s-1","parameterCategory":1,"la1":30.6,"la2":29.2853,"lo1":-89.7004,"lo2":-87.6739,"dy":0.0162,"dx":0.0183,"nx":112,"ny":82,"refTime":"2024-07-08T18:00:00:Z","depth":0,"parameterNumber":2,"parameterNumberName":"U-component_of_WINDS"},"data":[0.0,0.0,0.0,0.0,0.0,0.0,0.0,0.0,0.0,0.0,0.0,0.0,0.0,0.0,0.0,0.0,0.0,0.0,0.0,0.0,0.0,0.0,0.0,0.0,0.0,0.0,0.0,0.0,0.0,0.0,0.0,0.0,0.0,0.0,0.0,0.0,0.0,0.0,0.0,0.0,0.0,0.0,0.0,0.0,0.0,0.0,0.0,0.0,0.0,0.0,0.0,0.0,0.0,0.0,0.0,0.0,0.0,0.0,0.0,0.0,0.0,0.0,0.0,0.0,0.0,0.0,0.0,0.0,0.0,0.0,0.0,0.0,0.0,0.0,0.0,0.0,0.0,0.0,0.0,0.0,0.0,0.0,0.0,0.0,0.0,0.0,0.0,0.0,0.0,0.0,0.0,-1.8046,-1.9736,-2.0822,-2.104,-2.0545,-1.9338,-1.7286,0.0,0.0,0.0,0.0,0.0,0.0,0.0,0.0,0.0,0.0,0.0,0.0,0.0,0.0,0.0,0.0,0.0,0.0,0.0,0.0,0.0,0.0,0.0,0.0,0.0,0.0,0.0,0.0,0.0,0.0,0.0,0.0,0.0,0.0,0.0,0.0,0.0,0.0,0.0,0.0,0.0,0.0,0.0,0.0,0.0,0.0,0.0,0.0,0.0,0.0,0.0,0.0,0.0,0.0,0.0,0.0,0.0,0.0,0.0,0.0,0.0,0.0,0.0,0.0,0.0,0.0,0.0,0.0,0.0,0.0,0.0,0.0,0.0,0.0,0.0,0.0,0.0,0.0,0.0,0.0,0.0,0.0,0.0,0.0,0.0,0.0,0.0,0.0,0.0,0.0,0.0,0.0,0.0,0.0,0.0,0.0,0.0,0.0,0.0,0.0,0.0,0.0,0.0,0.0,-1.6634,-1.9591,-2.0569,-2.1016,-2.1052,-2.0376,-1.9229,-1.7527,0.0,0.0,0.0,0.0,0.0,0.0,0.0,0.0,0.0,0.0,0.0,0.0,0.0,0.0,0.0,0.0,0.0,0.0,0.0,0.0,0.0,0.0,0.0,0.0,0.0,0.0,0.0,0.0,0.0,0.0,0.0,0.0,0.0,0.0,0.0,0.0,0.0,0.0,0.0,0.0,0.0,0.0,0.0,0.0,0.0,0.0,0.0,0.0,0.0,0.0,0.0,0.0,0.0,0.0,0.0,0.0,0.0,0.0,0.0,0.0,0.0,0.0,0.0,0.0,0.0,0.0,0.0,0.0,0.0,0.0,0.0,0.0,0.0,0.0,0.0,0.0,0.0,0.0,0.0,0.0,0.0,0.0,0.0,0.0,0.0,0.0,0.0,0.0,0.0,0.0,0.0,0.0,0.0,0.0,0.0,0.0,0.0,0.0,0.0,0.0,0.0,0.0,0.0,-1.5643,-1.7253,-2.0063,-2.0427,-2.0686,-2.1269,-2.0557,-1.9289,-1.7394,-1.5885,0.0,0.0,0.0,0.0,0.0,0.0,0.0,0.0,0.0,0.0,0.0,0.0,0.0,0.0,0.0,0.0,0.0,0.0,0.0,0.0,0.0,0.0,0.0,0.0,0.0,0.0,0.0,0.0,0.0,0.0,0.0,0.0,0.0,0.0,0.0,0.0,0.0,0.0,0.0,0.0,0.0,0.0,0.0,0.0,0.0,0.0,0.0,0.0,0.0,0.0,0.0,0.0,0.0,0.0,0.0,0.0,0.0,0.0,0.0,0.0,0.0,0.0,0.0,0.0,0.0,0.0,0.0,0.0,0.0,0.0,0.0,0.0,0.0,0.0,0.0,0.0,0.0,0.0,0.0,0.0,0.0,0.0,0.0,0.0,0.0,0.0,0.0,0.0,0.0,0.0,0.0,0.0,0.0,0.0,0.0,0.0,0.0,0.0,0.0,0.0,0.0,0.0,-1.7017,-1.8185,-2.0089,-2.0209,-2.0591,-2.145,-2.0509,-1.9096,-1.7213,-1.5366,0.0,0.0,0.0,0.0,0.0,0.0,0.0,0.0,0.0,0.0,0.0,0.0,0.0,0.0,0.0,0.0,0.0,0.0,0.0,0.0,0.0,0.0,0.0,0.0,0.0,0.0,0.0,0.0,0.0,0.0,0.0,0.0,0.0,0.0,0.0,0.0,0.0,0.0,0.0,0.0,0.0,0.0,0.0,0.0,0.0,0.0,0.0,0.0,0.0,0.0,0.0,0.0,0.0,0.0,0.0,0.0,0.0,0.0,0.0,0.0,0.0,0.0,0.0,0.0,0.0,0.0,0.0,0.0,0.0,0.0,0.0,0.0,0.0,0.0,0.0,0.0,0.0,0.0,0.0,0.0,0.0,0.0,0.0,0.0,0.0,0.0,0.0,0.0,0.0,0.0,0.0,0.0,0.0,0.0,0.0,0.0,0.0,0.0,0.0,0.0,0.0,0.0,-1.7538,-1.9626,-2.0301,-2.0793,-2.1172,-2.145,-1.9833,-1.8312,-1.7165,-1.4666,0.0,0.0,0.0,0.0,0.0,0.0,0.0,0.0,0.0,0.0,0.0,0.0,0.0,0.0,0.0,0.0,0.0,0.0,0.0,0.0,0.0,0.0,0.0,0.0,0.0,0.0,0.0,0.0,0.0,0.0,0.0,0.0,0.0,0.0,0.0,0.0,0.0,0.0,0.0,0.0,0.0,0.0,0.0,0.0,0.0,0.0,0.0,0.0,0.0,0.0,0.0,0.0,0.0,0.0,0.0,0.0,0.0,0.0,0.0,0.0,0.0,0.0,0.0,0.0,0.0,0.0,0.0,0.0,0.0,0.0,0.0,0.0,0.0,0.0,0.0,0.0,0.0,0.0,0.0,0.0,0.0,0.0,0.0,0.0,0.0,0.0,0.0,0.0,0.0,0.0,0.0,0.0,0.0,0.0,0.0,0.0,0.0,0.0,0.0,0.0,0.0,0.0,-1.6187,-1.8017,0.0,-1.9915,-2.0635,-2.0729,-1.9947,-1.8698,-1.696,0.0,0.0,0.0,0.0,0.0,0.0,0.0,0.0,0.0,0.0,0.0,0.0,0.0,0.0,0.0,0.0,0.0,0.0,0.0,0.0,0.0,0.0,0.0,0.0,0.0,0.0,0.0,0.0,0.0,0.0,0.0,0.0,0.0,0.0,0.0,0.0,0.0,0.0,0.0,0.0,0.0,0.0,0.0,0.0,0.0,0.0,0.0,0.0,0.0,0.0,0.0,0.0,0.0,0.0,0.0,0.0,0.0,0.0,0.0,0.0,0.0,0.0,0.0,0.0,0.0,0.0,0.0,0.0,0.0,0.0,0.0,0.0,0.0,0.0,0.0,0.0,0.0,0.0,0.0,0.0,0.0,0.0,0.0,0.0,0.0,0.0,0.0,0.0,0.0,0.0,0.0,0.0,0.0,0.0,0.0,0.0,0.0,0.0,0.0,0.0,0.0,0.0,-1.3394,-1.5566,-1.7347,0.0,-1.9503,-2.0359,-2.0584,-1.9828,-1.8481,-1.6694,0.0,0.0,0.0,0.0,0.0,0.0,0.0,0.0,0.0,0.0,0.0,0.0,0.0,0.0,0.0,0.0,0.0,0.0,0.0,0.0,0.0,0.0,0.0,0.0,0.0,0.0,0.0,0.0,0.0,0.0,0.0,0.0,0.0,0.0,0.0,0.0,0.0,0.0,0.0,0.0,0.0,0.0,0.0,0.0,0.0,0.0,0.0,0.0,0.0,0.0,0.0,0.0,0.0,0.0,0.0,0.0,0.0,0.0,0.0,0.0,0.0,0.0,0.0,0.0,0.0,0.0,0.0,0.0,0.0,0.0,0.0,0.0,0.0,0.0,0.0,0.0,0.0,0.0,0.0,0.0,0.0,0.0,0.0,0.0,0.0,0.0,0.0,0.0,0.0,0.0,0.0,0.0,0.0,0.0,0.0,0.0,0.0,0.0,0.0,0.0,0.0,0.0,-1.3022,-1.5977,-1.8336,-1.9058,-1.9647,-2.0329,-2.1306,-1.9277,-1.7443,0.0,0.0,0.0,0.0,0.0,0.0,0.0,0.0,0.0,0.0,0.0,0.0,0.0,0.0,0.0,0.0,0.0,0.0,0.0,0.0,0.0,0.0,0.0,0.0,0.0,0.0,0.0,0.0,0.0,0.0,0.0,0.0,0.0,0.0,0.0,0.0,0.0,0.0,0.0,0.0,0.0,0.0,0.0,0.0,0.0,0.0,0.0,0.0,0.0,0.0,0.0,0.0,0.0,0.0,0.0,0.0,0.0,0.0,0.0,0.0,0.0,0.0,0.0,0.0,0.0,0.0,0.0,0.0,0.0,0.0,0.0,0.0,0.0,0.0,0.0,0.0,0.0,0.0,0.0,0.0,0.0,0.0,0.0,0.0,0.0,0.0,0.0,0.0,0.0,0.0,0.0,0.0,0.0,0.0,0.0,0.0,0.0,0.0,0.0,0.0,0.0,0.0,0.0,-1.3117,-1.5834,-1.7592,-1.7684,-1.8875,-1.9387,-1.9009,-1.8474,-1.7449,-1.5896,0.0,0.0,0.0,0.0,0.0,0.0,0.0,0.0,0.0,0.0,0.0,0.0,0.0,0.0,0.0,0.0,0.0,0.0,0.0,0.0,0.0,0.0,0.0,0.0,0.0,0.0,0.0,0.0,0.0,0.0,0.0,0.0,0.0,0.0,0.0,0.0,0.0,0.0,0.0,0.0,0.0,0.0,0.0,0.0,0.0,0.0,0.0,0.0,0.0,0.0,0.0,0.0,0.0,0.0,0.0,0.0,0.0,0.0,0.0,0.0,0.0,0.0,0.0,0.0,0.0,0.0,0.0,0.0,0.0,0.0,0.0,0.0,0.0,0.0,0.0,0.0,0.0,0.0,0.0,0.0,0.0,0.0,0.0,0.0,0.0,0.0,0.0,0.0,0.0,0.0,0.0,0.0,0.0,0.0,0.0,0.0,0.0,0.0,0.0,0.0,0.0,0.0,-1.3306,-1.5458,-1.7122,-1.7485,-1.8448,-1.8801,-1.8425,-1.8218,-1.7418,-1.5484,0.0,0.0,0.0,0.0,0.0,0.0,0.0,0.0,0.0,0.0,0.0,0.0,0.0,0.0,0.0,0.0,0.0,0.0,0.0,0.0,0.0,0.0,0.0,0.0,0.0,0.0,0.0,0.0,0.0,0.0,0.0,0.0,0.0,0.0,0.0,0.0,0.0,0.0,0.0,0.0,0.0,0.0,0.0,0.0,0.0,0.0,0.0,0.0,0.0,0.0,0.0,0.0,0.0,0.0,0.0,0.0,0.0,0.0,0.0,0.0,0.0,0.0,0.0,0.0,0.0,0.0,0.0,0.0,0.0,0.0,0.0,0.0,0.0,0.0,0.0,0.0,0.0,0.0,0.0,0.0,0.0,0.0,0.0,0.0,0.0,0.0,0.0,0.0,0.0,0.0,0.0,0.0,0.0,0.0,0.0,0.0,0.0,0.0,0.0,0.0,0.0,0.0,-1.3504,-1.5177,-1.6731,-1.811,-1.818,-1.8377,-1.8884,-1.8227,-1.706,-1.5258,0.0,0.0,0.0,0.0,0.0,0.0,0.0,0.0,0.0,0.0,0.0,0.0,0.0,0.0,0.0,0.0,0.0,0.0,0.0,0.0,0.0,0.0,0.0,0.0,0.0,0.0,0.0,0.0,0.0,0.0,0.0,0.0,0.0,0.0,0.0,0.0,0.0,0.0,0.0,0.0,0.0,0.0,0.0,0.0,0.0,0.0,0.0,0.0,0.0,0.0,0.0,0.0,0.0,0.0,0.0,0.0,0.0,0.0,0.0,0.0,-0.6323,0.0,0.0,0.0,0.0,0.0,0.0,0.0,0.0,0.0,0.0,0.0,0.0,0.0,0.0,0.0,0.0,0.0,0.0,0.0,0.0,0.0,0.0,0.0,0.0,0.0,0.0,0.0,0.0,0.0,0.0,0.0,0.0,0.0,0.0,0.0,0.0,0.0,0.0,0.0,0.0,0.0,-1.375,-1.5394,-1.666,-1.7445,-1.7512,-1.7567,-1.7495,-1.7325,-1.6692,-1.5312,-1.4385,0.0,0.0,0.0,0.0,0.0,0.0,0.0,0.0,0.0,0.0,0.0,0.0,0.0,0.0,0.0,0.0,0.0,0.0,0.0,0.0,0.0,0.0,0.0,0.0,0.0,0.0,0.0,0.0,0.0,0.0,0.0,0.0,0.0,0.0,0.0,0.0,0.0,0.0,0.0,0.0,0.0,0.0,0.0,0.0,0.0,0.0,0.0,0.0,0.0,0.0,0.0,0.0,0.0,0.0,0.0,0.0,0.0,0.0,0.0,0.0,-0.6806,0.0,0.0,0.0,0.0,0.0,0.0,0.0,0.0,0.0,0.0,0.0,0.0,0.0,0.0,0.0,0.0,0.0,0.0,0.0,0.0,0.0,0.0,0.0,0.0,0.0,0.0,0.0,0.0,0.0,0.0,0.0,0.0,0.0,0.0,0.0,0.0,0.0,0.0,0.0,0.0,-1.4099,-1.5574,-1.6727,-1.736,-1.8025,-1.8532,-1.8309,-1.8977,-1.896,-1.774,-1.7,0.0,0.0,0.0,0.0,0.0,0.0,0.0,0.0,0.0,0.0,0.0,0.0,0.0,0.0,0.0,0.0,0.0,0.0,0.0,0.0,0.0,0.0,0.0,0.0,0.0,0.0,0.0,0.0,0.0,0.0,0.0,0.0,0.0,0.0,0.0,0.0,0.0,0.0,0.0,0.0,0.0,0.0,0.0,0.0,0.0,0.0,0.0,0.0,0.0,0.0,0.0,0.0,0.0,-0.8122,-0.8263,-0.8546,-0.8546,-0.8709,-0.8943,-0.8149,-0.7877,-0.7948,0.0,0.0,0.0,0.0,0.0,0.0,0.0,0.0,0.0,0.0,0.0,0.0,0.0,0.0,0.0,0.0,0.0,0.0,0.0,0.0,0.0,0.0,0.0,0.0,0.0,-1.2271,-1.3276,0.0,0.0,0.0,0.0,0.0,0.0,0.0,0.0,0.0,0.0,0.0,0.0,-1.4515,-1.5819,-1.6949,-1.7663,-1.9067,-1.9886,-1.9988,-2.1102,-2.146,-2.0441,-1.9876,-1.8847,0.0,0.0,0.0,0.0,0.0,0.0,0.0,0.0,0.0,0.0,0.0,0.0,0.0,0.0,0.0,0.0,0.0,0.0,0.0,0.0,0.0,0.0,0.0,0.0,0.0,0.0,0.0,0.0,0.0,0.0,0.0,0.0,-0.5061,-0.523,0.0,0.0,0.0,0.0,0.0,0.0,0.0,0.0,0.0,0.0,0.0,0.0,0.0,-0.8464,-0.9068,-0.8872,-0.9024,-0.928,-0.9574,-0.9737,-0.9786,-0.9786,-0.9813,-0.9851,-0.972,0.0,-0.8475,-0.8285,0.0,0.0,0.0,0.0,0.0,0.0,0.0,0.0,0.0,0.0,0.0,0.0,0.0,0.0,0.0,0.0,0.0,0.0,0.0,0.0,0.0,0.0,-1.2843,-1.3579,-1.4145,-1.4326,0.0,-1.2759,-1.1806,-1.1559,-1.1246,0.0,0.0,0.0,0.0,0.0,0.0,0.0,-1.4988,-1.6245,-1.7712,-1.9338,-1.9661,-2.0391,-2.1704,-2.1933,-2.1776,-2.1505,-2.0613,-2.0219,-2.0518,-1.9122,0.0,0.0,0.0,0.0,0.0,0.0,0.0,0.0,0.0,0.0,0.0,0.0,0.0,0.0,0.0,0.0,0.0,0.0,0.0,0.0,0.0,0.0,0.0,0.0,0.0,0.0,0.0,0.0,0.0,-0.482,-0.5631,-0.5946,-0.583,-0.5769,0.0,0.0,0.0,0.0,0.0,0.0,0.0,0.0,0.0,-0.7667,-0.8907,-0.9527,-0.9585,-0.9739,-0.9824,-0.9998,-1.0215,-1.0356,-1.0422,-1.0422,-1.046,-1.052,-1.0454,-1.0182,-0.9748,-0.916,-0.8649,-0.822,0.0,0.0,0.0,0.0,-0.8002,-0.8117,-0.8492,-0.859,0.0,-0.8307,0.0,0.0,0.0,0.0,0.0,0.0,0.0,0.0,0.0,0.0,-1.3506,-1.4926,-1.587,-1.6409,-1.6211,-1.5603,-1.4695,0.0,-1.3343,-1.2805,-1.1264,0.0,0.0,0.0,0.0,-1.4828,-1.6665,-1.7755,-1.9106,-2.098,-2.19,-2.2806,-2.3548,-2.4329,-2.4725,-2.4412,-2.3583,-2.3116,-2.3032,-2.1618,-2.0376,0.0,0.0,0.0,0.0,0.0,0.0,0.0,0.0,0.0,0.0,0.0,0.0,0.0,0.0,0.0,0.0,0.0,0.0,0.0,0.0,0.0,0.0,0.0,0.0,0.0,0.0,0.0,0.0,-0.4908,-0.567,-0.6446,-0.6564,-0.6487,0.0,0.0,0.0,0.0,0.0,0.0,-0.9038,-0.9484,-0.9805,-0.9856,-1.0179,-1.0321,-1.0112,-1.0297,-1.0449,-1.0568,-1.0655,-1.0742,-1.0829,-1.0829,-1.0878,-1.096,-1.0873,-1.0829,-1.077,-0.996,-0.9487,-0.9242,-0.8943,-0.8753,-0.8666,-0.8845,-0.8965,-0.9101,-0.9487,-0.9622,-0.9584,-0.9351,0.0,-0.8873,-0.9545,0.0,0.0,0.0,0.0,-1.0222,-1.1997,-1.3386,-1.4581,-1.613,-1.7299,-1.8002,-1.7842,-1.769,-1.7114,0.0,-1.5224,-1.4704,-1.2984,0.0,0.0,0.0,0.0,-1.5835,-1.8304,-1.9333,-2.0519,-2.2731,-2.3948,-2.4824,-2.5198,-2.6168,-2.6764,-2.6515,-2.5886,-2.5315,-2.4832,-2.3717,-2.2468,-2.1107,0.0,0.0,0.0,0.0,0.0,0.0,0.0,0.0,0.0,0.0,0.0,0.0,0.0,0.0,0.0,0.0,0.0,0.0,0.0,0.0,0.0,0.0,0.0,0.0,0.0,0.0,0.0,0.0,0.0,-0.6663,-0.7274,0.0,0.0,0.0,0.0,-0.8604,-0.8986,-0.9323,-0.9728,-0.9786,-0.9915,-1.0134,-1.0269,-1.0509,-1.0862,-1.0878,-1.0944,-1.1069,-1.1074,-1.1079,-1.1085,-1.1085,-1.1085,-1.109,-1.1085,-1.1085,-1.1052,-1.0655,-1.0351,-1.0128,-0.9992,-0.9862,-0.9758,-0.9769,-0.978,-0.9802,-0.9943,-0.9992,-1.0008,-1.0106,-0.9818,-0.9719,-1.0989,-1.112,0.0,0.0,-1.3298,-1.3714,-1.5325,-1.5802,-1.6182,-1.7502,-1.7882,-1.805,-1.8031,-1.8021,-1.7757,0.0,-1.6386,-1.5895,-1.5186,0.0,-1.4884,-1.5054,-1.5659,-1.7033,-1.9305,-2.0168,-2.1608,-2.4573,-2.4997,-2.5486,-2.6721,-2.6705,-2.6515,-2.65,-2.5886,-2.552,-2.5476,-2.4479,-2.3833,-2.3384,-2.1091,0.0,0.0,0.0,0.0,0.0,0.0,0.0,0.0,0.0,0.0,0.0,0.0,0.0,0.0,0.0,0.0,0.0,0.0,0.0,0.0,0.0,0.0,0.0,0.0,0.0,0.0,0.0,0.0,-0.8323,-0.8278,0.0,0.0,-0.8335,-0.8497,-0.9018,-0.9427,-0.9719,-1.0168,-1.0269,-1.0367,-1.0655,-1.0786,-1.0911,-1.1036,-1.1188,-1.1286,-1.133,-1.1487,-1.1563,-1.1563,-1.1563,-1.1563,-1.1563,-1.1563,-1.1563,-1.1552,-1.1422,-1.109,-1.0655,-1.053,-1.0454,-1.0416,-1.0416,-1.0416,-1.0422,-1.0465,-1.0427,-1.0506,-1.1183,-1.2414,-1.3755,-1.4096,-1.416,-1.4295,-1.4941,-1.4507,-1.4399,-1.5973,-1.6376,-1.6738,-1.8077,-1.8456,-1.8456,-1.8456,-1.8456,-1.8361,-1.8068,-1.7558,-1.6887,-1.5999,-1.6008,-1.6027,-1.5687,-1.6282,-1.7536,-1.9703,-2.1187,-2.2887,-2.475,-2.5949,-2.6729,-2.7013,-2.65,-2.6193,-2.6193,-2.5388,-2.492,-2.492,-2.459,-2.4154,-2.3578,-2.2467,-2.0895,0.0,0.0,0.0,0.0,0.0,0.0,0.0,0.0,0.0,0.0,0.0,0.0,0.0,0.0,0.0,0.0,0.0,0.0,0.0,0.0,0.0,0.0,0.0,0.0,0.0,0.0,-0.8228,-0.9007,-0.8876,-0.8855,-0.8834,-0.9043,-0.9231,-0.947,-0.9786,-1.0123,-1.0487,-1.0655,-1.0829,-1.1031,-1.1118,-1.1199,-1.1281,-1.1438,-1.1536,-1.158,-1.1743,-1.1819,-1.1819,-1.1819,-1.1819,-1.1819,-1.1819,-1.1819,-1.1819,-1.1775,-1.1547,-1.1204,-1.1041,-1.0976,-1.0971,-1.0889,-1.0862,-1.0851,-1.1311,-1.1706,-1.2055,-1.2842,-1.4214,-1.563,-1.5988,-1.6038,-1.6299,-1.6775,-1.6384,-1.6021,-1.6964,-1.7368,-1.7602,-1.8491,-1.873,-1.8758,-1.8692,-1.8673,-1.8673,-1.8673,-1.8276,-1.7719,-1.7029,-1.7086,-1.7076,-1.666,-1.7123,-1.8384,-2.099,-2.2482,-2.394,-2.5827,-2.7087,-2.7466,-2.7027,-2.6296,-2.5857,-2.5857,-2.4935,-2.4452,-2.4569,-2.4351,-2.4094,-2.3743,-2.3145,-2.1726,-1.9626,0.0,0.0,0.0,0.0,0.0,0.0,0.0,0.0,0.0,0.0,0.0,0.0,0.0,0.0,0.0,0.0,0.0,0.0,0.0,0.0,0.0,0.0,0.0,-0.6942,-0.8119,-0.8939,-0.8694,-0.9154,-0.9416,-0.9193,-0.959,-0.996,-1.0204,-1.0438,-1.0623,-1.0748,-1.0976,-1.1161,-1.1281,-1.1281,-1.14,-1.1639,-1.1645,-1.1705,-1.1824,-1.183,-1.183,-1.183,-1.183,-1.183,-1.183,-1.183,-1.183,-1.1819,-1.1705,-1.1721,-1.1803,-1.1558,-1.1465,-1.1438,-1.1204,-1.1285,-1.1435,-1.2483,-1.3839,-1.4698,-1.4698,-1.4863,-1.5036,-1.6369,-1.6706,-1.7044,-1.8365,-1.8692,-1.8692,-1.8692,-1.8843,-1.8938,-1.8739,-1.8843,-1.8928,-1.8739,-1.8692,-1.8692,-1.8683,-1.8513,-1.8371,-1.8352,-1.8191,-1.8059,-1.8059,-1.8389,0.0,-2.3103,-2.3794,-2.4964,-2.8,-2.8154,-2.77,-2.7056,-2.6091,-2.552,-2.552,-2.4598,-2.4203,-2.4525,-2.4015,-2.3743,-2.4115,-2.2859,-2.1572,-2.0255,0.0,0.0,0.0,0.0,0.0,0.0,0.0,0.0,0.0,0.0,0.0,0.0,0.0,0.0,0.0,0.0,0.0,0.0,0.0,0.0,0.0,0.0,-0.7557,-0.6662,-0.7867,-0.906,-0.9496,-0.9682,-0.9916,-1.003,-1.0231,-1.0422,-1.0579,-1.0732,-1.0911,-1.1112,-1.1188,-1.1319,-1.1531,-1.1536,-1.1612,-1.1764,-1.1851,-1.1906,-1.1944,-1.2031,-1.2074,-1.2074,-1.2074,-1.2074,-1.2074,-1.2074,-1.2074,-1.2069,-1.2036,-1.2047,-1.2042,-1.1716,-1.1639,-1.1881,-1.2616,-1.3481,-1.4298,-1.4372,-1.5257,-1.6361,-1.6237,-1.6939,-1.7888,-1.822,-1.8496,-1.8624,-1.8959,-1.9127,-1.9127,-1.9127,-1.9165,-1.9193,-1.9146,-1.9165,-1.9193,-1.9136,-1.9127,-1.908,-1.8919,-1.8843,-1.8711,-1.8409,-1.8305,-1.8746,-1.9999,-2.021,0.0,-2.35,-2.4857,-2.5911,-2.658,-2.7563,-2.8037,-2.7393,-2.6222,-2.5569,-2.547,-2.4431,-2.3911,-2.4238,-2.4508,-2.4733,-2.4859,-2.4034,-2.3083,0.0,0.0,0.0,0.0,0.0,0.0,0.0,0.0,0.0,0.0,0.0,0.0,0.0,0.0,0.0,0.0,0.0,0.0,0.0,0.0,0.0,0.0,-0.7996,-0.846,-0.7912,-0.8718,-0.9487,-0.9938,-1.0139,-1.0302,-1.0443,-1.0612,-1.0737,-1.0808,-1.0971,-1.1128,-1.1264,-1.1368,-1.1487,-1.1634,-1.1683,-1.177,-1.1889,-1.1955,-1.2015,-1.2063,-1.214,-1.2172,-1.2172,-1.2172,-1.2172,0.0,-1.2172,-1.2172,-1.2167,-1.2118,-1.2123,0.0,0.0,0.0,0.0,0.0,-1.5454,-1.6482,-1.6207,-1.7044,-1.7891,-1.7705,-1.8156,-1.8862,-1.8947,-1.9061,-1.9184,-1.9278,-1.9297,-1.9297,-1.9297,-1.9363,-1.9401,-1.9316,-1.9363,-1.9401,-1.9316,-1.9297,-1.9259,-1.9136,-1.9108,0.0,-1.9761,-1.9715,-2.0227,-2.1816,-2.2134,-2.2817,-2.4564,-2.57,-2.6594,-2.7056,-2.7874,-2.8183,-2.7539,-2.6673,0.0,0.0,0.0,-2.4441,-2.4366,-2.4872,0.0,0.0,0.0,0.0,0.0,0.0,0.0,0.0,-2.3638,-2.3908,0.0,0.0,0.0,0.0,0.0,0.0,0.0,0.0,0.0,0.0,0.0,0.0,0.0,0.0,0.0,0.0,-0.8628,-0.9487,-0.9851,-0.9911,-0.9998,-1.0215,-1.0427,-1.0568,-1.0596,-1.0791,-1.0933,-1.096,-1.1156,-1.1286,-1.1313,0.0,0.0,0.0,0.0,-1.1895,-1.2009,-1.2009,-1.2063,-1.2172,-1.2172,-1.2172,-1.2172,-1.2172,-1.2172,-1.2172,-1.2172,-1.2172,-1.2161,-1.2053,-1.2251,-1.2317,-1.2102,-1.2919,-1.4335,-1.5621,-1.7161,-1.8194,-1.8006,0.0,0.0,-1.9051,-1.8872,-1.8777,-1.8928,-1.9004,-1.9089,-1.9278,-1.9354,-1.9373,-1.9373,-1.9495,-1.959,-1.941,-1.9505,-1.9581,-1.941,-1.9373,-1.9363,-1.9673,-1.9663,-2.0318,-2.2277,-2.1883,-2.19,-2.3828,-2.4148,-2.4786,-2.6346,-2.6689,-2.7175,-2.873,0.0,0.0,-2.7642,-2.723,-2.6706,-2.582,-2.5831,-2.5589,-2.4991,-2.5308,-2.5607,-2.5872,-2.6292,-2.6962,-2.7866,-2.8121,-2.8349,-2.8356,-2.5801,-2.5502,0.0,0.0,0.0,0.0,0.0,0.0,0.0,0.0,0.0,0.0,0.0,0.0,0.0,0.0,0.0,-0.859,-0.9184,-0.9862,-1.0226,-1.0356,-1.0433,-1.0481,-1.0525,-1.0634,-1.0829,-1.0889,-1.0998,-1.1188,-1.1248,-1.1357,-1.1552,-1.1612,0.0,-1.1911,-1.1944,-1.2015,-1.2134,-1.2134,-1.2145,-1.2172,0.0,0.0,-1.2172,-1.2172,-1.2172,-1.2172,-1.2172,-1.2172,-1.2172,-1.2145,-1.2841,-1.3877,-1.3635,-1.4461,-1.5789,-1.7071,-1.8522,-1.959,-1.9386,-1.9428,-1.9477,-1.9099,-1.907,-1.9155,-1.9014,-1.9212,0.0,-1.9524,-1.9666,-1.9798,-1.9798,-1.9826,-1.9845,-1.9807,-1.9826,-1.9845,-1.9807,-1.9798,-2.0086,-2.1418,-2.1715,-2.2664,-2.5779,-2.3669,-2.2482,-2.5731,-2.6213,-2.6773,-2.8289,-2.8633,-2.8863,-2.8915,-2.8842,-2.8651,-2.8286,-2.7422,-2.7008,-2.7175,-2.7077,-2.6916,-2.7059,-2.7442,-2.763,-2.77,-2.8601,-2.9026,-2.8925,-2.9626,-2.9976,-3.0236,-2.9167,-2.8731,0.0,0.0,0.0,0.0,0.0,0.0,0.0,0.0,0.0,0.0,0.0,-0.7519,0.0,0.0,-0.8905,-0.9329,-0.9796,-1.0199,-1.0438,-1.0574,-1.0645,-1.0645,-1.0645,-1.0715,-1.09,-1.0976,-1.1085,-1.1259,-1.1384,-1.1509,-1.1629,-1.1748,-1.1868,-1.1982,-1.2047,-1.2107,-1.2172,-1.2172,-1.2172,-1.2172,-1.2172,-1.2172,-1.2172,-1.2172,-1.2172,-1.2172,-1.2172,-1.2172,-1.2172,-1.2172,-1.2511,-1.3373,-1.452,-1.5876,-1.7427,-1.8688,-1.9515,-2.0204,-1.9987,-1.9911,-1.9836,-1.942,-1.9288,-1.9278,-1.9165,-1.9288,-1.9467,-1.9571,-1.9751,-1.9921,-1.9921,-1.9921,-1.9921,-1.9921,-1.9921,-1.9921,-1.9921,-2.0598,-2.1424,-2.2321,-2.3143,-2.4625,-2.7184,-2.5918,-2.5363,-2.8011,-2.8319,-2.8584,-2.9239,-2.9515,-2.9559,-2.9398,-2.9237,-2.9159,-2.9005,-2.8223,-2.8021,-2.8722,-2.8395,-2.835,-2.8491,-2.8979,-2.9246,-2.9246,-2.9954,-3.0395,-3.0552,-3.0933,-3.1135,-3.1471,-3.1433,-3.1055,0.0,0.0,0.0,0.0,0.0,0.0,0.0,0.0,-0.7078,-0.7584,-0.8013,-0.8399,-0.8736,-0.9133,-0.9525,-0.9883,-1.021,-1.046,-1.0574,-1.0677,-1.0737,-1.0737,-1.0737,-1.0797,-1.0938,-1.1047,-1.1161,-1.1297,-1.1509,-1.1645,-1.1672,-1.1873,-1.1998,-1.2025,-1.2118,-1.2172,-1.2172,-1.2172,-1.2172,-1.2172,-1.2172,-1.2172,-1.2172,-1.2172,-1.2172,-1.2172,-1.2172,-1.2361,-1.2544,-1.2544,-1.2922,-1.3645,-1.578,-1.7475,-1.8879,-1.9897,-2.027,-2.0393,-2.0223,-2.0185,-2.0157,-1.9779,-1.9552,-1.941,-1.9373,-1.9325,-1.9335,-1.9495,-1.9666,-1.9798,-1.9798,-1.9798,-1.9798,-1.9798,-1.9798,-1.9798,-2.0135,-2.1495,-2.2674,-2.3358,-2.4708,-2.6255,-2.8171,-2.8315,-2.8578,-2.9821,-2.9954,-2.9939,-2.9866,-2.9925,-2.9939,-2.9866,-2.9792,-2.9656,-2.9658,-2.9336,-2.9446,-2.9976,-2.9828,-2.968,-2.968,-3.0292,-3.0609,-3.0588,-3.1011,-3.1496,-3.2015,-3.211,-3.2263,-3.2467,-3.279,-3.2676,0.0175,-0.0459,0.0,-0.2099,-0.3281,-0.4724,0.0,0.0,-0.822,-0.8812,-0.9057,-0.9242,-0.9503,-0.9677,-0.99,-1.0264,-1.0443,-1.0579,-1.0699,-1.0726,-1.0737,-1.0737,-1.0737,-1.0829,-1.1058,-1.1096,-1.1194,-1.1417,-1.1558,-1.1683,-1.1792,-1.1917,-1.2036,-1.2145,-1.2167,-1.2172,-1.2172,-1.2172,-1.2172,-1.2172,-1.2172,-1.2172,-1.2172,-1.2172,-1.2172,-1.2172,-1.2172,-1.2922,-1.4234,-1.4234,-1.573,-1.8144,-1.83,-1.9045,-2.0308,-2.01,-1.9968,-1.9987,-1.9959,-2.0072,-2.0185,-1.9959,-1.9864,-1.9817,-1.9618,-1.9439,-1.9306,-1.9325,-1.9344,-1.9373,-1.9373,-1.9373,-1.9373,-1.9373,-1.9373,-1.9692,-2.1348,-2.184,-2.2844,-2.5982,-2.6816,-2.7566,-2.9842,-3.0035,-3.017,-3.0305,-3.029,-3.0188,-2.9895,-3.0115,-3.0188,-2.9895,-3.0159,-3.049,-3.0633,-3.0793,-3.0903,-3.0761,-3.1051,-3.122,-3.122,-3.1554,-3.176,-3.1792,-3.2444,-3.2634,-3.2364,-3.3031,-3.3222,-3.2952,-3.2952,-3.2964,-0.1044,0.0,0.0,0.0,-0.4917,-0.6487,-0.7474,-0.8303,-0.8867,-0.9258,-0.9487,-0.9644,-0.9748,-0.9981,-1.021,0.0,-1.0541,-1.0704,-1.0824,-1.0721,-1.0655,-1.0726,-1.0672,-1.0753,-1.1074,-1.1101,-1.1199,-1.1438,-1.1634,-1.1764,-1.1819,-1.1993,-1.2118,-1.2172,-1.2172,-1.2172,-1.2172,-1.2172,-1.2172,-1.2172,-1.2172,-1.2172,-1.2172,-1.2172,-1.2733,-1.3487,-1.4416,-1.5167,-1.573,-1.573,-1.6479,-1.7763,-1.8325,-1.888,-1.923,-1.985,-2.0015,-1.9921,-1.9921,-2.0053,-2.0204,-2.0119,-2.0091,-2.0053,-1.9845,-1.9722,-1.9637,-1.9505,-1.9562,-1.9656,-1.9656,-1.9656,-1.9628,-1.9505,-2.0318,-2.1114,-2.1798,-2.3419,-2.54,-2.6875,-2.8042,-2.9072,-2.9879,-3.0071,-3.0071,-3.0071,-3.0393,-3.0583,-3.0437,-3.0539,-3.066,-3.0499,-3.0956,-3.1158,-3.1286,-3.1731,-3.1811,-3.1669,-3.2173,-3.2205,-3.1999,-3.2332,-3.2428,-3.2205,-3.2491,-3.2666,-3.273,-3.3031,-3.3206,-3.327,-3.327,-3.3806,-0.2496,0.0,0.0,-0.5056,-0.6381,-0.7752,-0.8088,-0.876,-0.934,-0.9541,-0.972,-0.9845,-0.9883,-1.0106,0.0,-1.0373,-1.0552,-1.0732,-1.0851,-1.0688,-1.059,-1.0677,-1.0606,-1.0672,-1.0971,-1.1031,-1.115,-1.1389,-1.1629,-1.1786,-1.1819,-1.2042,-1.2172,-1.2172,-1.2172,-1.2172,-1.2172,-1.2172,-1.2172,-1.2172,-1.255,-1.2733,-1.2733,-1.3293,-1.4046,-1.5174,-1.6292,-1.6845,-1.7219,-1.7219,-1.76,-1.7957,-1.8945,-1.9114,-1.9068,-1.9999,-2.0148,-1.9921,-1.9921,-2.0053,-2.0233,-2.0289,-2.0308,-2.028,-2.0138,-2.0015,-1.9873,-1.9656,-1.9666,-1.9751,-1.9751,-1.9751,-1.9876,-2.0226,-2.1197,-2.2316,-2.3132,-2.54,-2.7201,-2.7608,-2.8901,-2.9734,-2.9734,-2.9734,-2.9764,-2.9851,-3.0261,-3.0598,-3.0685,-3.07,-3.0733,-3.1061,-3.1356,-3.1572,-3.1966,-3.2253,-3.2412,-3.2412,-3.2666,-3.2682,-3.2412,-3.2666,-3.2682,-3.2412,-3.2507,-3.2634,-3.2809,-3.3,-3.319,-3.3333,-3.3444,-3.4425,0.0,0.0,-0.5937,-0.6117,-0.7107,-0.8159,-0.9088,-0.9476,-0.9688,-0.9802,-0.9829,-0.9873,-0.9992,-1.0025,-1.0106,-1.0346,-1.0487,-1.0601,-1.0726,-1.0634,-1.0558,-1.0563,-1.0558,-1.0606,0.0,-1.0857,-1.1025,-1.1259,-1.1504,-1.1694,-1.1813,-1.2042,-1.2172,-1.2172,-1.2172,-1.2172,-1.2172,-1.2172,-1.2172,-1.2172,-1.3676,-1.4422,-1.4422,-1.5917,-1.6658,-1.6658,-1.6658,-1.7592,-1.8913,-1.8913,-1.9666,-2.0983,-2.1159,-2.0904,-2.0365,-2.0535,-2.027,-1.9921,-1.9921,-2.0053,-2.0251,-2.0469,-2.0535,-2.0535,-2.0526,-2.0242,-1.9873,-1.9656,-1.9458,-1.9316,-1.9316,-1.9316,-1.9813,-2.1463,-2.1954,-2.2943,-2.641,-2.7228,-2.7635,-2.9123,-2.9398,-2.9398,-2.9398,-2.9398,-2.95,-2.9807,-2.9881,-2.9998,-3.032,-3.0364,-3.0573,-3.1213,-3.1182,-3.1487,-3.2253,-3.2412,-3.2412,-3.2412,-3.2412,-3.2428,-3.2412,-3.2412,-3.2412,-3.2412,-3.2761,-3.2777,-3.2428,-3.3127,-3.3301,-3.2984,-3.3333,-3.4425,0.0,0.0,-0.7682,-0.8048,-0.8561,-0.9171,-0.9622,-0.972,-0.9769,-0.9731,-0.9661,-0.959,-0.9552,-0.9677,-0.9867,-1.0106,-1.0313,-1.0541,-1.0819,-1.0683,-1.0585,-1.0666,-1.0606,0.0,0.0,0.0,0.0,-1.1079,-1.1498,-1.1688,-1.1813,-1.2042,-1.2172,-1.2172,-1.2172,-1.2172,-1.2172,-1.311,-1.3676,-1.3676,-1.5167,-1.5917,-1.5917,-1.7414,-1.816,-1.816,-1.9285,-2.0037,-2.0417,-2.0417,-2.0788,-2.1159,-2.1007,-2.0781,-2.0526,-2.0384,-2.0157,-1.9921,-1.9921,-1.9968,-2.0081,-2.0431,-2.0544,-2.0544,-2.0544,-2.044,-2.0261,-1.9911,-1.976,-1.9713,-1.9713,-2.0554,-2.1521,-2.2043,-2.4007,-2.5956,-2.7105,-2.8219,-2.9177,-2.972,-2.9705,-2.9705,-2.9705,-2.9515,-2.9412,-2.9529,-2.972,-3.0071,-3.0351,-3.0528,-3.0806,-3.1487,-3.1631,-3.1791,-3.2412,-3.2412,-3.2412,-3.2412,-3.2412,-3.2412,-3.2412,-3.2412,-3.2412,-3.2412,-3.2539,-3.265,-3.2777,-3.3015,-3.319,-3.3301,-3.3429,-3.4556,0.0,-0.8102,-0.866,-0.9139,-0.9465,-0.9688,-0.9758,-0.9742,-0.9677,-0.9563,-0.9372,-0.9209,-0.9128,-0.9204,-0.9416,-0.9829,-1.0063,-1.0346,-1.0791,-1.0683,-1.0585,-1.0661,-1.0645,0.0,0.0,0.0,0.0,-1.102,-1.1293,-1.1688,-1.1813,-1.2042,-1.2172,-1.2172,-1.2172,-1.2356,-1.2922,-1.3907,-1.506,-1.6191,-1.7063,-1.7787,-1.8346,-1.9285,-1.9666,-1.9851,-2.0788,-2.1168,-2.1168,-2.1168,-2.1168,-2.1159,-2.1017,-2.079,-2.0526,-2.0384,-2.0157,-1.9921,-1.9921,-1.9921,-1.9977,-2.0318,-2.0478,-2.0526,-2.045,-2.0478,-2.0459,-2.0034,-2.0434,-2.0945,-2.0945,-2.2309,-2.3801,-2.431,-2.6129,-2.7929,-2.8414,-2.9371,-3.0173,-3.0056,-3.0042,-2.9998,-2.9881,-2.969,-2.9544,-2.9544,-2.9734,-2.9983,-3.004,-3.0186,-3.0665,-3.1286,-3.1604,-3.1809,-3.2396,-3.2412,-3.2364,-3.2237,-3.2348,-3.2364,-3.2237,-3.2348,-3.2412,-3.2412,-3.2539,-3.2714,-3.2952,-3.3079,-3.3333,-3.3667,-3.3667,-3.5147,-0.8318,-0.8622,-0.8916,-0.9378,-0.959,-0.9677,-0.9661,-0.9563,-0.9427,-0.9285,-0.8976,-0.8725,0.0,0.0,-0.8812,-0.9525,-0.9758,-1.0057,-1.0661,-1.0645,-1.0574,0.0,0.0,0.0,0.0,0.0,0.0,-1.0767,0.0,-1.1325,-1.1824,-1.2234,-1.2361,-1.2361,-1.2367,-1.3122,-1.4435,-1.4754,-1.6335,-1.9364,-1.9185,-1.9851,-2.1168,-2.1168,-2.1168,-2.1168,-2.1168,-2.1168,-2.1168,-2.1168,-2.1168,-2.1168,-2.1159,-2.0904,-2.0535,-2.0526,-2.027,-1.9921,-1.9921,-1.9921,-1.9959,-2.0166,-2.0365,-2.0488,-2.0289,-2.0374,-2.044,-2.0209,-2.1282,-2.2643,-2.2643,-2.4189,-2.5884,-2.7759,-2.8096,-2.8783,-3.0484,-3.0817,-3.0729,-3.0437,-3.0378,-3.0276,-2.9939,-2.9895,-2.9881,-2.9866,-2.9866,-2.9749,-2.9442,-2.973,-3.0205,-3.0678,-3.1151,-3.159,-3.238,-3.2412,-3.2269,-3.1967,-3.2237,-3.2285,-3.1983,-3.2269,-3.2444,-3.2459,-3.2809,-3.2984,-3.2984,-3.3317,-3.3667,-3.4016,-3.4016,-3.5991,-0.8682,-0.9057,-0.9356,-0.9568,-0.9709,-0.9748,-0.9574,-0.9372,-0.9111,-0.8725,-0.8426,-0.8155,-0.7888,0.0,0.0,-0.9182,-0.9666,0.0,-1.0786,-1.0846,0.0,0.0,0.0,-1.1009,-1.1009,-1.0966,0.0,0.0,-1.1352,-1.1544,-1.2124,-1.3596,-1.4442,-1.4442,-1.5289,-1.5906,-1.6284,-1.745,-1.8995,-2.0888,-2.0695,-2.0797,-2.1168,-2.1168,-2.1168,-2.1168,-2.1168,-2.1168,-2.1168,-2.1168,-2.1168,-2.1159,-2.0989,-2.0771,-2.0526,-2.0365,-2.0138,-1.9921,-1.9921,-1.9921,-1.9977,-2.0346,-2.0384,-2.0318,-2.0431,-2.0384,-2.0596,-2.1526,-2.2309,-2.2987,-2.436,-2.6054,-2.7591,-2.7928,-2.9118,-3.0317,-3.0651,-3.0817,-3.0803,-3.0715,-3.07,-3.0598,-3.0276,-3.0217,-3.0144,-2.9895,-2.9866,-2.9998,-3.0245,-3.023,-3.071,-3.1507,-3.1651,-3.1841,-3.2412,-3.2412,-3.238,-3.2285,-3.2364,-3.2491,-3.2682,-3.2777,-3.2936,-3.3206,-3.3301,-3.3349,-3.3349,-3.3444,-3.3667,-3.4016,-3.4016,-3.5475,-0.9068,-0.941,-0.9655,-0.9726,-0.9715,-0.9595,-0.9253,-0.8948,-0.859,-0.8051,-0.779,0.0,0.0,0.0,0.0,0.0,0.0,0.0,-1.0666,-1.0851,-1.0965,0.0,-1.1145,0.0,-1.1177,-1.133,-1.2022,0.0,-1.2589,-1.2346,-1.3474,-1.4552,-1.5382,-1.5744,-1.6575,-1.7253,-1.8169,-1.9415,-2.0746,-2.1612,-2.131,-2.1168,-2.1168,-2.1168,-2.1168,-2.1168,0.0,-2.1168,-2.1168,-2.1168,-2.1168,-2.1159,-2.1036,-2.0809,-2.0526,-2.0403,-2.0176,-1.9921,-1.9921,-1.9921,-1.9959,-2.0195,-2.0308,-2.0346,-2.0289,-2.0831,-2.1696,-2.2404,-2.3846,-2.5203,-2.6223,-2.7928,-2.9286,-2.9286,-3.0136,-3.0817,-3.0817,-3.0817,-3.0817,-3.0817,-3.0817,-3.0773,-3.0583,-3.0719,-3.0824,-3.0632,-3.078,-3.0943,-3.0943,-3.0851,-3.1052,-3.1993,-3.2169,-3.2553,-3.2873,-3.2873,-3.2809,-3.2666,-3.2793,-3.2904,-3.2952,-3.3111,-3.3349,-3.3715,-3.3715,-3.3794,-3.3937,-3.3937,-3.4112,-3.4461,-3.5125,-3.6659,-0.9416,-0.9671,-0.9835,-0.9818,-0.9639,-0.9334,-0.8834,-0.8432,-0.7992,-0.7388,0.0,0.0,-0.6774,0.0,-0.7676,-0.8312,0.0,-0.9882,-1.0818,-1.1121,-1.1317,-1.1474,-1.158,-1.1653,-1.1489,-1.1866,-1.315,-1.6074,-1.4055,-1.3554,-1.5361,-1.5695,-1.6328,-1.7258,-1.7258,-1.8166,-1.9845,-2.0998,-2.1565,-2.1745,-2.1357,-2.1168,-2.1168,-2.1168,-2.1168,-2.1168,0.0,0.0,-2.1168,-2.1168,-2.1168,-2.1168,-2.1168,-2.0932,-2.0582,-2.0554,-2.0299,-1.9959,-1.993,-2.0095,-2.0269,-2.0298,-2.0529,-2.075,-2.0754,-2.2101,-2.3534,-2.3453,-2.5714,-2.8096,-2.8433,-2.9635,-3.0817,-3.0817,-3.0817,-3.0817,-3.0817,-3.0817,-3.0817,-3.0817,-3.0817,-3.0817,-3.0817,-3.115,-3.1482,-3.1482,-3.1828,-3.2009,-3.1647,-3.1492,-3.1572,-3.2189,-3.2707,-3.3143,-3.346,-3.3492,-3.3349,-3.3047,-3.3317,-3.3349,-3.3047,-3.3317,-3.3651,-3.4001,-3.4016,-3.4175,-3.4509,-3.4509,-3.4838,-3.5296,-3.6476,-3.8293,-0.9568,-0.9737,-0.9813,-0.972,-0.9514,-0.9188,-0.8611,-0.8122,0.0,0.0,0.0,-0.6518,-0.6388,-0.6828,0.0,-0.8285,0.0,0.0,0.0,0.0,-1.274,0.0,0.0,0.0,0.0,0.0,0.0,0.0,0.0,0.0,-1.6427,-1.876,-2.0358,-2.0654,-2.0654,-2.0962,-2.1401,-2.1386,-2.1489,-2.1518,-2.1282,-2.1168,-2.1168,-2.1168,-2.1168,-2.1168,-2.1168,0.0,-2.1168,-2.1168,-2.1168,-2.1168,-2.1168,-2.1017,-2.0771,-2.0601,-2.0384,-2.0148,-1.9977,-2.0945,-2.2168,-2.2357,-2.2347,-2.262,-2.4107,-2.4926,-2.5323,-2.6758,-2.7591,-2.8446,-2.9969,-3.0484,-3.0817,-3.0817,-3.0817,-3.0817,-3.0817,-3.0817,-3.0817,-3.0817,-3.0817,-3.0817,-3.0817,-3.115,-3.1482,-3.1482,-3.1828,-3.2339,-3.2489,-3.2232,-3.2022,-3.2247,-3.2577,-3.3085,-3.3476,-3.3492,-3.346,-3.3397,-3.3444,-3.346,-3.3397,-3.346,-3.3651,-3.4001,-3.4016,-3.4175,-3.4509,-3.4509,-3.52,-3.6761,-3.7027,-3.8812,-0.9606,-0.9709,-0.972,-0.9606,-0.9345,-0.8932,-0.8209,0.0,0.0,0.0,0.0,-0.6198,-0.6024,0.0,0.0,0.0,0.0,0.0,0.0,0.0,0.0,0.0,0.0,0.0,0.0,0.0,0.0,0.0,0.0,0.0,-1.7779,-2.0064,-2.1244,-2.131,-2.1414,-2.1518,-2.1622,-2.1518,-2.1471,-2.1471,-2.1263,-2.1168,-2.1168,-2.1168,-2.1168,-2.1168,-2.1168,0.0,-2.1168,-2.1168,-2.1168,-2.1168,-2.1168,-2.097,-2.0677,-2.0573,-2.0337,-2.0219,-2.0975,-2.1791,-2.3009,-2.5003,-2.5051,-2.4373,-2.5223,-2.6264,-2.7106,-2.7968,-2.8783,-2.9635,-3.0651,-3.0984,-3.115,-3.115,-3.1331,-3.1497,-3.1497,-3.1497,-3.1497,-3.1497,-3.1497,-3.1497,-3.1497,-3.1828,-3.2159,-3.2159,-3.2654,-3.2834,-3.2819,-3.2819,-3.2834,-3.2834,-3.2999,-3.3312,-3.3492,-3.3492,-3.3492,-3.3492,-3.3492,-3.3492,-3.3492,-3.3667,-3.3921,-3.4255,-3.4271,-3.443,-3.4779,-3.5418,-3.6325,-3.7142,-3.8725,-4.0414,-0.9541,-0.9628,-0.9633,-0.9487,-0.916,-0.866,-0.785,-0.7339,0.0,0.0,0.0,-0.5958,-0.5801,0.0,0.0,0.0,0.0,0.0,0.0,0.0,0.0,0.0,0.0,0.0,0.0,0.0,0.0,0.0,0.0,0.0,-1.9471,-2.0603,-2.1168,-2.1168,-2.1319,-2.1404,-2.1404,-2.1404,-2.1404,-2.1404,-2.1244,-2.1168,-2.1168,-2.1168,-2.1168,-2.1168,-2.1168,0.0,0.0,-2.1168,-2.1168,-2.1168,-2.1168,-2.0941,-2.0601,-2.0913,-2.0831,-2.084,-2.2665,-2.3503,-2.4178,-2.7084,-2.7225,-2.6326,-2.6468,-2.7578,-2.8927,-2.8683,-2.9635,-3.0817,-3.0817,-3.115,-3.1482,-3.1647,-3.2009,-3.2174,-3.2174,-3.2174,-3.2174,-3.2174,-3.2174,-3.2205,-3.2266,-3.2613,-3.2959,-3.3037,-3.3321,-3.3423,-3.3093,-3.336,-3.3492,-3.3492,-3.3492,-3.3492,-3.3492,-3.3492,-3.3492,-3.3492,-3.3556,-3.3603,-3.3603,-3.3937,-3.4271,-3.4604,-3.4541,-3.4838,-3.5531,-3.6677,-3.7439,-3.8159,-4.0424,-4.1817,-0.9334,-0.9497,-0.9612,-0.9378,-0.897,-0.8432,-0.7703,0.0,0.0,0.0,-0.5839,-0.579,-0.5871,0.0,0.0,0.0,0.0,0.0,0.0,0.0,0.0,0.0,0.0,0.0,0.0,0.0,0.0,0.0,0.0,0.0,0.0,-2.1168,-2.1168,-2.1168,-2.1187,-2.1196,-2.1196,-2.1196,-2.1196,-2.1196,-2.1178,-2.1168,-2.1168,-2.1168,-2.1168,-2.1168,-2.1168,0.0,0.0,-2.1168,-2.1168,-2.1168,-2.1168,-2.1026,-2.0972,-2.2557,-2.2839,-2.2934,-2.4601,-2.6223,-2.7591,-2.7928,-2.7941,-2.8136,-2.9802,-3.0499,-3.0527,-3.0499,-3.0651,-3.0817,-3.0817,-3.115,-3.1647,-3.2009,-3.2174,-3.2174,-3.2174,-3.2174,-3.2174,-3.2174,-3.2174,-3.2266,-3.2556,-3.2952,-3.3395,-3.3707,-3.3824,-3.3969,-3.3969,-3.3683,-3.3492,-3.3492,-3.3492,-3.3492,-3.3492,-3.3492,-3.3492,-3.3492,-3.3794,-3.3969,-3.3969,-3.4287,-3.462,-3.497,-3.4668,-3.5515,-3.7386,-3.718,-3.8434,-4.1125,-4.1403,-4.2305,-0.933,-0.9323,-0.9323,-0.9226,-0.884,-0.8296,-0.7573,0.0,0.0,-0.6002,-0.5812,-0.5746,-0.5795,-0.5899,-0.6323,0.0,-0.8461,0.0,0.0,0.0,0.0,0.0,0.0,0.0,0.0,0.0,0.0,0.0,0.0,0.0,0.0,-2.1168,-2.1168,-2.1168,-2.1168,-2.1168,-2.1168,-2.1168,-2.1168,-2.1168,-2.1168,-2.1168,-2.1168,-2.1168,-2.1168,-2.1168,-2.1168,0.0,0.0,-2.1168,-2.1168,-2.1168,-2.1168,-2.1683,-2.243,-2.3041,-2.382,-2.466,-2.6431,-2.7422,-2.8265,-2.9286,-2.9802,-2.9802,-3.0651,-3.0817,-3.0817,-3.0817,-3.0817,-3.0817,-3.115,-3.1813,-3.2324,-3.2834,-3.2999,-3.2999,-3.2999,-3.3156,-3.3312,-3.3312,-3.3469,-3.3578,-3.3516,-3.384,-3.395,-3.3887,-3.4103,-3.4239,-3.4032,-3.3889,-3.3715,-3.3508,-3.3492,-3.3492,-3.3492,-3.3492,-3.3492,-3.3492,-3.3619,-3.3794,-3.4001,-3.4334,-3.4573,-3.4716,-3.4573,-3.5287,-3.6856,-3.7608,-3.9111,-4.1348,-4.2281,-4.3147,-0.9841,-0.976,-0.949,-0.9456,-0.8907,-0.8084,0.0,0.0,-0.6388,-0.5942,-0.579,-0.5735,-0.5735,-0.5828,-0.6258,0.0,-0.8542,-1.0004,-1.2132,0.0,0.0,0.0,0.0,0.0,0.0,0.0,0.0,0.0,0.0,0.0,0.0,-2.1168,-2.1168,-2.1168,-2.1168,-2.1168,-2.1168,-2.1168,-2.1168,-2.1168,-2.1168,-2.1168,-2.1168,-2.1168,-2.1168,-2.1168,0.0,0.0,0.0,-2.1168,-2.1168,-2.1168,-2.1898,-2.2525,-2.3365,-2.4595,-2.5485,-2.6406,-2.8265,-2.895,-2.9118,-3.0317,-3.0817,-3.0817,-3.0817,-3.0817,-3.0817,-3.0817,-3.0817,-3.115,-3.1647,-3.2324,-3.2983,-3.3328,-3.3492,-3.3492,-3.3492,-3.3762,-3.3985,-3.3873,-3.4128,-3.4287,-3.4048,-3.4207,-3.4318,-3.4175,-3.4271,-3.4318,-3.4175,-3.4064,-3.3953,-3.381,-3.3794,-3.3746,-3.3651,-3.3635,-3.3683,-3.3778,-3.3889,-3.4001,-3.4144,-3.4477,-3.4604,-3.4509,-3.4887,-3.5858,-3.7212,-3.8591,-4.0139,-4.1888,-4.2984,-4.3615,-1.1184,-1.0953,-1.0435,-1.0432,-0.9092,-0.7752,0.0,-0.6698,-0.617,-0.5812,-0.5735,-0.5735,-0.5735,-0.5828,-0.6258,-0.7369,-0.8816,-1.0564,0.0,0.0,0.0,0.0,0.0,0.0,0.0,0.0,0.0,0.0,0.0,0.0,0.0,-2.1168,-2.1168,-2.1168,-2.1168,-2.1168,-2.1168,-2.1168,-2.1168,-2.1168,-2.1168,-2.1168,-2.1168,-2.1168,-2.1168,0.0,0.0,0.0,0.0,-2.1168,-2.1168,-2.1353,-2.3342,-2.3774,-2.3709,-2.7384,-2.8604,-2.8265,-3.0136,-3.0817,-3.0817,-3.0817,-3.0817,-3.0817,-3.0817,-3.0817,-3.0817,-3.0817,-3.115,-3.1647,-3.2489,-3.2819,-3.2983,-3.3328,-3.3492,-3.3492,-3.3492,-3.3762,-3.3905,-3.3556,-3.3778,-3.4016,-3.4016,-3.4016,-3.4128,-3.4445,-3.4223,-3.4128,-3.4461,-3.4207,-3.4144,-3.4461,-3.4493,-3.4366,-3.4032,-3.4001,-3.4144,-3.4477,-3.4827,-3.4859,-3.4509,-3.4843,-3.4859,-3.4509,-3.5792,-3.7375,-3.9011,-4.0349,-4.1888,-4.3615,-4.3615,-4.3615,-1.0273,-1.0193,-1.0026,-0.9868,-0.8987,-0.8039,-0.7503,-0.6859,-0.6165,-0.5806,-0.608,-0.6257,-0.5819,-0.6554,-0.7618,-0.8844,-0.9872,0.0,0.0,0.0,0.0,0.0,0.0,0.0,0.0,0.0,0.0,0.0,0.0,0.0,0.0,-2.1168,-2.1168,-2.1168,-2.1168,-2.1168,-2.1168,-2.1168,-2.1168,-2.1168,-2.1168,-2.1168,-2.1168,-2.1168,0.0,0.0,0.0,0.0,0.0,-2.2616,-2.3065,-2.3101,-2.4902,-2.6198,-2.6946,-2.8168,-2.9125,-2.9969,-3.0651,-3.0817,-3.0817,-3.0817,-3.0817,-3.0817,-3.0817,-3.0817,-3.0817,-3.115,-3.1662,-3.2174,-3.2654,-3.2983,-3.3328,-3.3492,-3.3492,-3.3492,-3.3492,-3.3762,-3.3985,-3.3873,-3.4112,-3.4271,-3.4048,-3.4207,-3.4302,-3.4191,-3.4271,-3.4302,-3.4175,-3.408,-3.3953,-3.3826,-3.381,-3.3858,-3.4001,-3.4016,-3.3953,-3.381,-3.3921,-3.4032,-3.4159,-3.4271,-3.4774,-3.5775,-3.63,-3.7738,-4.0506,-4.086,-4.1888,-4.3615,-4.3615,-4.3615,0.0,-1.0308,-1.0198,-1.0092,-0.9187,-0.8236,-0.7623,-0.7246,-0.6801,-0.6227,-0.6694,-0.6953,-0.6257,-0.7141,-0.8221,-0.9137,0.0,0.0,0.0,0.0,0.0,0.0,0.0,0.0,0.0,0.0,0.0,0.0,0.0,0.0,0.0,0.0,-2.1168,-2.1168,-2.1168,-2.1168,-2.1168,-2.1168,-2.1168,-2.1168,-2.1168,-2.1168,-2.1168,-2.1168,0.0,0.0,0.0,0.0,0.0,-2.3515,-2.4332,-2.5094,-2.6961,-2.8062,-2.8698,-2.9275,-3.0071,-3.0817,-3.0817,-3.0817,-3.0817,-3.0817,-3.0817,-3.0817,-3.0817,-3.0817,-3.0984,-3.1662,-3.1994,-3.2339,-3.2999,-3.3312,-3.3492,-3.3492,-3.3492,-3.3492,-3.3492,-3.3762,-3.3969,-3.3842,-3.408,-3.4207,-3.3873,-3.3985,-3.4048,-3.3842,-3.3985,-3.4096,-3.4016,-3.4016,-3.3969,-3.3873,-3.3873,-3.3905,-3.4001,-3.4016,-3.3969,-3.3873,-3.3873,-3.4237,-3.4965,-3.4965,-3.5706,-3.7147,-3.7953,-3.9123,-4.1113,-4.1733,-4.2524,-4.3615,-4.3615,-4.3615,0.0,-1.1043,-1.0833,-1.0816,-0.9719,-0.8535,-0.7687,-0.7732,0.0,-0.6986,-0.7394,-0.7672,-0.7094,-0.7766,-0.8543,-0.8752,0.0,0.0,0.0,0.0,0.0,0.0,0.0,0.0,0.0,0.0,0.0,0.0,0.0,0.0,0.0,0.0,-2.1168,-2.1168,-2.1168,-2.1168,-2.1168,-2.1168,-2.1168,-2.1168,-2.1168,-2.1168,-2.1168,-2.1159,0.0,0.0,0.0,0.0,0.0,-2.4376,-2.5445,-2.7218,-2.8929,-2.934,-2.9217,-3.0694,-3.1081,-3.0817,-3.0817,-3.0817,-3.0817,-3.0817,-3.0817,-3.0817,-3.0817,-3.0817,-3.0998,-3.1843,-3.2174,-3.2339,-3.3164,-3.3476,-3.3492,-3.3492,-3.3492,-3.3492,-3.3492,-3.3746,-3.3873,-3.3556,-3.3746,-3.3873,-3.354,-3.3492,-3.3492,-3.3492,-3.3492,-3.3603,-3.3937,-3.3969,-3.4096,-3.4398,-3.443,-3.4302,-3.4001,-3.4001,-3.4128,-3.4414,-3.4598,-3.5092,-3.6379,-3.6525,-3.7326,-3.8706,-4.0452,-4.1268,-4.1268,-4.283,-4.3615,-4.3615,-4.3615,-4.3615,-0.9271,0.0,-0.9903,-0.9739,-0.9204,-0.854,0.0,-0.7714,-0.7764,0.0,0.0,0.0,0.0,0.0,0.0,0.0,0.0,0.0,0.0,0.0,0.0,0.0,0.0,0.0,0.0,0.0,0.0,0.0,0.0,0.0,0.0,0.0,-2.1168,-2.1168,-2.1168,-2.1168,-2.1168,-2.1168,-2.1168,-2.1168,-2.1168,-2.1168,-2.1168,-2.0998,0.0,0.0,0.0,0.0,-2.3705,-2.6528,-2.781,-2.8325,-3.0167,-3.0637,-3.0351,-3.0796,-3.089,-3.0817,-3.0817,-3.0817,-3.0817,-3.0817,-3.0817,-3.0817,-3.0817,-3.0817,-3.0984,-3.1497,-3.1994,-3.2339,-3.2819,-3.3164,-3.3492,-3.3492,-3.3492,-3.3492,-3.3492,-3.3556,-3.3587,-3.3508,-3.3556,-3.3587,-3.3492,-3.3492,-3.3492,-3.3492,-3.3492,-3.3508,-3.3603,-3.3603,-3.3635,-3.3715,-3.373,-3.3699,-3.3619,-3.3858,-3.3921,-3.373,-3.4998,-3.5747,-3.6131,-3.7401,-3.8798,-4.0471,-4.2196,-4.2984,-4.2984,-4.3462,-4.3615,-4.3615,-4.3615,-4.3615,-0.7877,-0.8828,-0.9904,-0.979,-0.9648,-0.94,-0.8577,0.0,0.0,0.0,0.0,0.0,0.0,0.0,0.0,0.0,0.0,0.0,0.0,0.0,0.0,0.0,0.0,0.0,0.0,0.0,0.0,0.0,0.0,0.0,0.0,0.0,-2.1017,-2.1017,-2.1017,-2.1064,-2.1168,-2.1064,-2.1017,-2.1017,-2.0922,-2.0885,-2.0875,-2.1649,-2.1951,0.0,0.0,0.0,-2.5994,-2.8082,-2.9403,-3.0125,-3.102,-3.1198,-3.1037,-3.0876,-3.0817,-3.0817,-3.0984,-3.1331,-3.1331,-3.115,-3.115,-3.115,-3.115,-3.115,-3.115,-3.1662,-3.2159,-3.2505,-3.2983,-3.3312,-3.3492,-3.3492,-3.3492,-3.3492,-3.3492,-3.3492,-3.3492,-3.3492,-3.3492,-3.3492,-3.3492,-3.3492,-3.3492,-3.3492,-3.3492,-3.3492,-3.3492,-3.3492,-3.3492,-3.3492,-3.3492,-3.3804,-3.4588,-3.4768,-3.4801,-3.4604,-3.5527,-3.6637,-3.8231,-3.9179,-4.0452,-4.2196,-4.3136,-4.3615,-4.3615,-4.3615,-4.3718,-4.3925,-4.3925,-4.3925,-0.6888,-0.8321,-0.9967,-0.9901,-1.0076,-1.0195,-0.941,0.0,0.0,0.0,0.0,0.0,0.0,0.0,0.0,0.0,0.0,0.0,0.0,0.0,0.0,0.0,0.0,0.0,0.0,0.0,0.0,0.0,0.0,0.0,0.0,0.0,0.0,-2.08,-2.08,-2.0885,-2.1074,-2.0894,-2.08,-2.079,-2.08,-2.0894,-2.1074,-2.2799,-2.3654,0.0,0.0,0.0,-2.8831,-2.9004,-3.0237,-3.1622,-3.1344,-3.1242,-3.1198,-3.092,-3.0817,-3.0984,-3.1482,-3.1828,-3.2174,-3.1662,-3.1647,-3.1647,-3.1647,-3.1647,-3.1813,-3.2174,-3.2505,-3.2819,-3.3312,-3.3476,-3.3492,-3.3492,-3.3492,-3.3492,-3.3492,-3.3492,-3.3492,-3.3492,-3.3492,-3.3492,-3.3492,-3.3492,-3.3492,-3.3492,-3.3492,-3.3492,-3.3492,-3.3492,-3.364,-3.3788,-3.3968,-3.4588,-3.6316,-3.6316,-3.6477,-3.6797,-3.6797,-3.8231,-4.1404,-4.1424,-4.2196,-4.3615,-4.3615,-4.3615,-4.3615,-4.3677,-4.3925,-4.4298,-4.4381,-4.4401,-0.6839,-0.7839,-0.8613,-0.7889,-0.8609,-0.9326,-0.8428,0.0,0.0,0.0,0.0,0.0,0.0,0.0,0.0,0.0,0.0,0.0,0.0,0.0,0.0,0.0,0.0,0.0,0.0,0.0,0.0,0.0,0.0,0.0,0.0,0.0,0.0,-2.0592,-2.0592,-2.0601,-2.0639,-2.0601,-2.0592,-2.0592,-2.2148,-2.2831,-2.3009,-2.4543,-2.5299,0.0,0.0,-2.7891,-2.8399,-2.9944,-3.0629,-3.0964,-3.092,-3.089,-3.089,-3.0846,-3.0984,-3.1482,-3.2009,-3.2174,-3.2174,-3.2174,-3.2009,-3.2009,-3.2009,-3.2324,-3.2654,-3.2654,-3.2819,-3.2819,-3.2819,-3.3148,-3.3492,-3.3492,-3.3492,-3.3492,-3.3492,-3.3492,-3.3492,-3.3492,-3.3492,-3.3492,-3.3492,-3.3492,-3.3492,-3.3492,-3.3492,-3.3492,-3.3492,-3.3492,-3.4115,-3.5527,-3.5689,-3.6316,-3.7896,-3.8054,-3.8706,-4.0139,-4.0315,-4.1249,-4.3136,-4.3289,-4.331,-4.3615,-4.3615,-4.3615,-4.3615,-4.4008,-4.4236,-4.4319,-4.4712,-4.4877,-0.6105,-0.6763,-0.7492,-0.7389,-0.8791,-1.023,-1.0348,0.0,0.0,0.0,0.0,0.0,0.0,0.0,0.0,0.0,0.0,0.0,0.0,0.0,0.0,0.0,0.0,0.0,0.0,0.0,0.0,0.0,0.0,0.0,0.0,0.0,0.0,-2.1767,-2.0889,-2.1235,-2.3336,-2.2174,-2.1646,-2.1944,-2.3556,-2.436,-2.4534,-2.613,-2.6923,-2.7081,0.0,-2.9635,-2.9635,-3.0484,-3.0817,-3.0817,-3.0817,-3.0984,-3.115,-3.1497,-3.1828,-3.2159,-3.2505,-3.267,-3.2834,-3.267,-3.2505,-3.2505,-3.2505,-3.2654,-3.2819,-3.3148,-3.3148,-3.3148,-3.3148,-3.3312,-3.3492,-3.3492,-3.3492,-3.3492,-3.3492,-3.3492,-3.3492,-3.3492,-3.3492,-3.3492,-3.3492,-3.3492,-3.3492,-3.3492,-3.3492,-3.3492,-3.3492,-3.4278,-3.5221,-3.5994,-3.6797,-3.8054,-3.9826,-3.9826,-4.0296,-4.1113,-4.1888,-4.283,-4.3615,-4.3615,-4.3615,-4.3615,-4.3863,-4.3987,-4.3987,-4.4443,-4.4795,-4.5064,-4.5271,-4.5374,-0.5721,-0.6021,-0.6731,-0.7604,-0.9041,-1.0658,-1.1973,0.0,0.0,0.0,0.0,0.0,0.0,0.0,0.0,0.0,0.0,0.0,0.0,0.0,0.0,0.0,0.0,0.0,0.0,0.0,0.0,0.0,0.0,0.0,0.0,0.0,-2.1359,-2.2912,-2.1875,-2.2738,-2.5675,-2.4453,-2.3765,-2.3598,-2.5299,-2.6054,-2.6054,-2.7928,-2.8783,-2.8783,-3.0136,-3.0817,-3.0817,-3.0817,-3.0817,-3.0984,-3.0984,-3.1316,-3.1662,-3.2174,-3.2505,-3.2819,-3.2983,-3.3148,-3.3492,-3.3148,-3.2983,-3.2983,-3.2983,-3.2983,-3.2983,-3.3312,-3.3492,-3.3492,-3.3492,-3.3492,-3.3492,-3.3492,-3.3492,-3.3492,-3.3492,-3.3492,-3.3492,-3.3492,-3.3492,-3.3492,-3.3492,-3.3492,-3.364,-3.3952,-3.418,-3.4408,-3.4719,-3.6055,-3.706,-3.7543,-3.8572,-3.9921,-4.1578,-4.1733,-4.1733,-4.1733,-4.283,-4.3615,-4.3615,-4.3615,-4.3615,-4.3615,-4.407,-4.4298,-4.4298,-4.4877,-4.5333,-4.5685,-4.5788,-4.585,-0.6151,-0.6115,-0.6438,-0.8384,-0.8456,0.0,-1.1318,-1.169,0.0,0.0,0.0,0.0,0.0,0.0,0.0,0.0,0.0,0.0,0.0,0.0,0.0,0.0,0.0,0.0,0.0,0.0,0.0,0.0,0.0,0.0,0.0,0.0,0.0,-2.2675,-2.4212,-2.5239,-2.5409,-2.6914,-2.6914,-2.5239,-2.7084,-2.7928,-2.7928,-2.9802,-3.0651,-3.0651,-3.0817,-3.0817,-3.0817,-3.0817,-3.0984,-3.1482,-3.1482,-3.1662,-3.2174,-3.2654,-3.2819,-3.2819,-3.3328,-3.3476,-3.3476,-3.3492,-3.3476,-3.3476,-3.3476,-3.3476,-3.3492,-3.3476,-3.3492,-3.3492,-3.3492,-3.3492,-3.3492,-3.3492,-3.3492,-3.3492,-3.3492,-3.3492,-3.3492,-3.3492,-3.3492,-3.3492,-3.3492,-3.3492,-3.3952,-3.5527,-3.614,-3.7014,-3.8616,-3.9266,-4.0154,-4.1766,-4.1736,-4.2149,-4.333,-4.3462,-4.3462,-4.3462,-4.3462,-4.3615,-4.3615,-4.3615,-4.3615,-4.3615,-4.407,-4.4298,-4.4298,-4.5209,-4.5643,-4.5705,-4.6099,-4.6306,-0.5854,-0.6382,-0.7257,-0.8668,0.0,0.0,0.0,0.0,0.0,0.0,0.0,0.0,0.0,0.0,0.0,0.0,0.0,0.0,0.0,0.0,0.0,0.0,0.0,0.0,0.0,0.0,0.0,0.0,0.0,0.0,0.0,0.0,0.0,-2.5884,-2.5543,-2.6393,-2.8783,-2.8265,-2.8265,-2.8783,-2.9453,-2.9802,-2.9802,-3.0484,-3.0817,-3.0817,-3.0817,-3.0984,-3.115,-3.0984,-3.1331,-3.1994,-3.2159,-3.2489,-3.267,-3.2999,-3.3312,-3.3312,-3.3492,-3.3492,-3.3492,-3.3492,-3.3492,-3.3492,-3.3492,-3.3492,-3.3492,-3.3492,-3.3492,-3.3492,-3.3492,-3.3492,-3.3492,-3.3492,-3.3492,-3.3492,-3.3492,-3.3492,-3.3492,-3.3492,-3.3492,-3.3804,-3.4896,-3.5059,-3.5774,-3.7757,-3.8079,-3.8599,-3.9502,-4.0621,-4.1702,-4.2344,-4.318,-4.4004,-4.4484,-4.4215,-4.4049,-4.4049,-4.4049,-4.4049,-4.4049,-4.4319,-4.4463,-4.4463,-4.4919,-4.5167,-4.5167,-4.5788,-4.6099,-4.6099,-4.6264,-4.6347,-0.5878,-0.6331,-0.7362,0.0,0.0,0.0,0.0,0.0,0.0,0.0,0.0,0.0,0.0,0.0,0.0,0.0,0.0,0.0,0.0,0.0,0.0,0.0,0.0,0.0,0.0,0.0,0.0,0.0,0.0,0.0,0.0,0.0,0.0,0.0,-2.7422,-2.8265,-3.0817,-2.9635,-2.9635,-3.0817,-3.0817,-3.0817,-3.0832,-3.0984,-3.0984,-3.0984,-3.1164,-3.1497,-3.1662,-3.1331,-3.1662,-3.2505,-3.2819,-3.2983,-3.2983,-3.3312,-3.3492,-3.3492,-3.3492,-3.3492,-3.3492,-3.3492,-3.3492,-3.3492,-3.3492,-3.3492,-3.3492,-3.3492,-3.3492,-3.3492,-3.3492,-3.3492,-3.3492,-3.3492,-3.3492,-3.3492,-3.3492,-3.3492,-3.3492,-3.3492,-3.3952,-3.4588,-3.5833,-3.6477,-3.7561,-3.972,-4.0066,-4.0613,-4.1533,-4.2837,-4.3519,-4.34,-4.4535,-4.5147,-4.5002,-4.4712,-4.4526,-4.4526,-4.465,-4.4608,-4.4319,-4.4753,-4.5002,-4.5002,-4.5436,-4.5685,-4.5685,-4.6119,-4.6347,-4.6347,-4.6347,-4.6347,-0.6237,-0.5975,0.0,0.0,0.0,0.0,0.0,0.0,0.0,0.0,0.0,0.0,0.0,0.0,0.0,0.0,0.0,0.0,0.0,0.0,0.0,0.0,0.0,0.0,0.0,0.0,0.0,0.0,0.0,0.0,0.0,0.0,0.0,0.0,-2.9802,-3.0817,-3.0817,-3.0817,-3.0817,-3.0817,-3.0817,-3.0817,-3.0817,-3.1316,-3.1482,-3.1482,-3.2009,-3.2174,-3.2174,-3.2174,-3.2505,-3.2819,-3.3328,-3.3492,-3.3492,-3.3492,-3.3492,-3.3492,-3.3492,-3.3492,-3.3492,-3.3492,-3.3492,-3.3492,-3.3492,-3.3492,-3.3492,-3.3492,-3.3492,-3.3492,-3.3492,-3.3492,-3.3492,-3.3492,-3.3492,-3.3492,-3.3492,-3.3476,-3.3476,-3.3476,-3.4896,-3.5994,-3.5994,-3.7436,-3.931,-4.1503,-4.2229,-4.316,-4.5463,-4.6078,-4.6182,-4.5747,-4.5685,-4.5498,-4.5043,-4.5002,-4.5002,-4.5002,-4.5436,-4.5271,-4.436,-4.4753,-4.5002,-4.5002,-4.5457,-4.5685,-4.5685,-4.614,-4.6347,-4.6347,-4.6347,-4.6347,-0.5812,0.0,0.0,0.0,0.0,0.0,0.0,0.0,0.0,0.0,0.0,0.0,0.0,0.0,0.0,0.0,0.0,0.0,0.0,0.0,0.0,0.0,0.0,0.0,0.0,0.0,0.0,0.0,0.0,0.0,0.0,0.0,0.0,0.0,-3.0484,-3.0817,-3.0817,-3.0817,-3.0817,-3.0817,-3.115,-3.115,-3.0817,-3.1316,-3.1482,-3.1482,-3.2009,-3.2339,-3.267,-3.2999,-3.2999,-3.2819,-3.3328,-3.3492,-3.3492,-3.3492,-3.3492,-3.3492,-3.3492,-3.3492,-3.3492,-3.3492,-3.3492,-3.3492,-3.3492,-3.3492,-3.3492,-3.3492,-3.3492,-3.3492,-3.3492,-3.3492,-3.3492,-3.3492,-3.3492,-3.3492,-3.3492,-3.4425,-3.5221,-3.5221,-3.6637,-3.8231,-3.9355,-4.0211,-4.1522,-4.3731,-4.4356,-4.5123,-4.5917,-4.6264,-4.6306,-4.6161,-4.614,-4.6099,-4.5954,-4.5664,-4.5478,-4.5478,-4.5602,-4.5561,-4.5291,-4.5705,-4.5954,-4.5954,-4.6078,-4.614,-4.614,-4.6285,-4.6347,-4.6347,-4.6347,-4.6347,-0.6286,0.0,0.0,0.0,0.0,0.0,0.0,0.0,0.0,0.0,0.0,0.0,0.0,0.0,0.0,0.0,0.0,0.0,0.0,0.0,0.0,0.0,0.0,0.0,0.0,0.0,0.0,0.0,0.0,0.0,0.0,0.0,0.0,0.0,-3.0817,-3.0817,-3.0817,-3.0817,-3.0817,-3.0832,-3.1316,-3.1316,-3.115,-3.1647,-3.1994,-3.1978,-3.2489,-3.2834,-3.3148,-3.3312,-3.3312,-3.3148,-3.3328,-3.3492,-3.3492,-3.3492,-3.3492,-3.3492,-3.3492,-3.3492,-3.3492,-3.3492,-3.3492,-3.3492,-3.3492,-3.3492,-3.3492,-3.3492,-3.3492,-3.3492,-3.3492,-3.3492,-3.3492,-3.3492,-3.3492,-3.364,-3.4425,-3.5204,-3.6155,-3.6797,-3.8499,-4.0211,-4.1191,-4.2348,-4.3594,-4.503,-4.5643,-4.6037,-4.6306,-4.6347,-4.6347,-4.6347,-4.6347,-4.6347,-4.6347,-4.6099,-4.5954,-4.5954,-4.5954,-4.5954,-4.5954,-4.6202,-4.6347,-4.6347,-4.6347,-4.6347,-4.6347,-4.6347,-4.6347,-4.6347,-4.6347,-4.6347,0.0,0.0,0.0,0.0,0.0,0.0,0.0,0.0,0.0,0.0,0.0,0.0,0.0,0.0,0.0,0.0,0.0,0.0,0.0,0.0,0.0,0.0,0.0,0.0,0.0,0.0,0.0,0.0,0.0,0.0,0.0,0.0,0.0,0.0,-3.0817,-3.0817,-3.0817,-3.0817,-3.0817,0.0,-3.1316,-3.1482,-3.1647,-3.2489,-3.2819,-3.2819,-3.3312,-3.3492,-3.3492,-3.3492,-3.3492,-3.3492,-3.3492,-3.3492,-3.3492,-3.3492,-3.3492,-3.3492,-3.3492,-3.3492,-3.3492,-3.3492,-3.3492,-3.3476,-3.364,-3.364,-3.3476,-3.3804,-3.3804,-3.3476,-3.364,-3.364,-3.3492,-3.3492,-3.3492,-3.3952,-3.5689,-3.6155,-3.6797,-3.839,-4.0464,-4.2034,-4.2034,-4.3731,-4.5209,-4.5664,-4.6099,-4.6347,-4.6347,-4.6347,-4.6347,-4.6347,-4.6347,-4.6347,-4.6347,-4.6347,-4.6347,-4.6347,-4.6347,-4.6347,-4.6347,-4.6347,-4.6347,-4.6347,-4.6347,-4.6347,-4.6347,-4.6347,-4.6347,-4.6347,-4.6347,-4.6347,0.0,0.0,0.0,0.0,0.0,0.0,0.0,0.0,0.0,0.0,0.0,0.0,0.0,0.0,0.0,0.0,0.0,0.0,0.0,0.0,0.0,0.0,0.0,0.0,0.0,0.0,0.0,0.0,0.0,0.0,0.0,0.0,0.0,-3.0817,-3.0817,-3.0817,-3.0817,-3.0817,-3.0817,0.0,-3.1662,-3.2009,-3.2009,-3.2489,-3.2983,-3.3312,-3.3492,-3.3492,-3.3492,-3.3492,-3.3492,-3.3492,-3.3492,-3.3492,-3.3492,-3.3492,-3.3492,-3.3492,-3.3492,-3.3492,-3.3492,-3.3492,-3.3492,-3.3804,-3.5059,-3.4588,-3.4115,-3.6637,-3.5544,-3.3804,-3.5059,-3.4425,-3.3492,-3.3492,-3.3492,-3.3952,-3.5689,-3.7099,-3.8548,-4.0139,-4.2246,-4.3812,-4.3812,-4.4824,-4.5685,-4.614,-4.6285,-4.6347,-4.6347,-4.6347,-4.6347,-4.6347,-4.6347,-4.6347,-4.6347,-4.6347,-4.6347,-4.6347,-4.6347,-4.6347,-4.6347,-4.6347,-4.6347,-4.6347,-4.6347,-4.6347,-4.6347,-4.6347,-4.6347,-4.6347,-4.6347,-4.6347,0.0,0.0,0.0,0.0,0.0,0.0,0.0,0.0,0.0,0.0,0.0,0.0,0.0,0.0,0.0,0.0,0.0,0.0,0.0,0.0,0.0,0.0,0.0,0.0,0.0,0.0,0.0,0.0,0.0,0.0,0.0,-3.051,-3.0598,-3.0598,-3.0744,-3.0817,-3.0817,-3.0817,-3.0817,-3.0832,-3.1677,-3.2339,-3.2834,-3.2983,-3.3312,-3.3492,-3.3492,-3.3492,-3.3492,-3.3492,-3.3492,-3.3492,-3.3492,-3.3492,-3.3492,-3.3492,-3.3492,-3.3492,-3.3492,-3.3492,-3.3492,-3.3492,-3.4115,-3.4896,-3.5689,-3.6011,-3.6333,-3.8073,-3.7277,-3.6172,-3.6957,-3.6776,-3.6234,-3.5901,-3.5221,-3.5221,-3.6797,-3.8548,-4.0353,-4.2321,-4.3678,-4.4712,-4.4919,-4.5374,-4.5768,-4.5995,-4.6037,-4.6099,-4.6326,-4.6347,-4.6347,-4.6347,-4.6347,-4.6347,-4.6347,-4.6347,-4.6347,-4.6347,-4.6347,-4.6347,-4.6347,-4.6347,-4.6347,-4.6347,-4.6347,-4.6347,-4.6347,-4.6347,-4.6347,-4.6347,-4.6347,-4.6347,0.0,0.0,0.0,0.0,0.0,0.0,0.0,0.0,0.0,0.0,0.0,0.0,0.0,0.0,0.0,0.0,0.0,0.0,0.0,0.0,0.0,0.0,0.0,0.0,0.0,0.0,0.0,0.0,0.0,0.0,-2.9866,-3.0115,-3.0261,-3.0261,-3.0568,-3.0744,-3.0744,-3.0803,-3.0817,-3.0832,-3.1677,-3.267,-3.3492,-3.3492,-3.3492,-3.3492,-3.3492,-3.3492,-3.3492,-3.3492,-3.3492,-3.3492,-3.3492,-3.3492,-3.3492,-3.3492,-3.3492,-3.3476,-3.3804,-3.3952,-3.3952,-3.4278,-3.5383,-3.6477,-3.6797,-3.7578,-3.8688,-3.916,-3.9059,-3.864,-3.8956,-3.9056,-3.908,-3.8805,-3.7845,-3.7277,-3.8706,-4.0139,-4.1677,-4.3783,-4.4629,-4.5105,-4.5498,-4.5685,-4.5768,-4.5705,-4.5747,-4.5933,-4.6306,-4.6347,-4.6347,-4.6347,-4.6347,-4.6347,-4.6347,-4.6347,-4.6347,-4.6347,-4.6347,-4.6347,-4.6347,-4.6347,-4.6347,-4.6347,-4.6347,-4.6347,-4.6347,-4.6347,-4.6347,-4.6347,-4.6347,-4.6347,0.0,0.0,0.0,0.0,0.0,0.0,0.0,0.0,0.0,0.0,0.0,0.0,0.0,0.0,0.0,0.0,0.0,0.0,0.0,0.0,0.0,0.0,0.0,0.0,0.0,0.0,0.0,0.0,0.0,0.0,-2.9851,-2.991,-2.9925,-2.9925,-3.0246,-3.0407,-3.0407,-3.0685,-3.0817,-3.0832,-3.1677,-3.267,-3.3492,-3.3492,-3.3492,-3.3492,-3.3492,-3.3492,-3.3492,-3.3492,-3.3492,-3.3492,-3.3492,-3.3492,-3.3492,-3.3492,-3.3492,-3.364,-3.5221,-3.5689,-3.5833,-3.7436,-3.7914,-3.839,-3.9983,-3.9494,-3.9179,-4.2022,-4.1035,-3.9382,-4.099,-4.0235,-3.9226,-3.9682,-4.002,-4.0471,-4.0627,-4.0938,-4.1598,-4.3371,-4.4401,-4.5022,-4.5064,-4.5747,-4.6119,-4.5747,-4.6016,-4.6285,-4.6347,-4.6347,-4.6347,-4.6347,-4.6347,-4.6347,-4.6347,-4.6347,-4.6347,-4.6347,-4.6347,-4.6347,-4.6347,-4.6347,-4.6347,-4.6347,-4.6347,-4.6347,-4.6347,-4.6347,-4.6347,-4.6347,-4.6347,-4.6347,0.0,0.0,0.0,0.0,0.0,0.0,0.0,0.0,0.0,0.0,0.0,0.0,0.0,0.0,0.0,0.0,0.0,0.0,0.0,0.0,0.0,0.0,0.0,0.0,0.0,0.0,0.0,0.0,0.0,-2.9164,-2.931,-2.9486,-2.9588,-2.9588,-2.991,-3.0086,-3.0086,-3.0217,-3.0706,-3.1392,-3.2083,-3.2834,-3.3492,-3.3492,-3.3492,-3.3492,-3.3492,-3.3492,-3.3492,-3.3492,-3.3492,-3.364,-3.4588,-3.4278,-3.3804,-3.5544,-3.5689,-3.5221,-3.6797,-3.7419,-3.7578,-3.8213,-3.9179,-4.0139,-4.0938,-4.1249,-4.1713,-4.3136,-4.2826,-4.221,-4.3014,-4.306,-4.2762,-4.2722,-4.306,-4.321,-4.2948,-4.2685,-4.2758,-4.3792,-4.4546,-4.5002,-4.5002,-4.5333,-4.5602,-4.5685,-4.585,-4.6057,-4.6306,-4.6347,-4.6347,-4.6347,-4.6347,-4.6347,-4.6347,-4.6347,-4.6347,-4.6347,-4.6347,-4.6347,-4.6347,-4.6347,-4.6347,-4.6347,-4.6347,-4.6811,-4.773,-4.6811,-4.6811,-4.7752,-4.6811,-4.6347,0.0,0.0,0.0,0.0,0.0,0.0,0.0,0.0,0.0,0.0,0.0,0.0,0.0,0.0,0.0,0.0,0.0,0.0,0.0,0.0,0.0,0.0,0.0,0.0,0.0,0.0,0.0,0.0,0.0,-2.8886,-2.8886,-2.912,-2.9251,-2.9251,-2.9573,-2.9734,-2.9734,-2.9983,-3.0674,-3.1833,-3.2406,-3.2905,-3.3492,-3.3492,-3.3804,-3.4115,-3.364,-3.3492,-3.3476,-3.3952,-3.4115,-3.4262,-3.6011,-3.585,-3.5059,-3.7596,-3.7737,-3.6957,-3.8548,-3.9179,-3.9179,-3.9651,-4.0608,-4.1733,-4.1733,-4.2677,-4.3615,-4.3615,-4.4029,-4.4484,-4.4484,-4.5084,-4.5623,-4.5395,-4.5167,-4.4836,-4.4256,-4.3863,-4.3718,-4.4049,-4.4505,-4.4815,-4.4815,-4.5022,-4.5291,-4.5643,-4.5788,-4.5975,-4.6306,-4.6347,-4.6347,-4.6347,-4.6347,-4.6347,-4.6347,-4.6347,-4.6347,-4.6347,-4.6347,-4.6347,-4.6347,-4.6347,-4.6347,-4.6347,-4.6347,-4.6972,-4.8208,-4.6972,-4.7111,-4.882,-4.7592,-4.6972,0.0,0.0,0.0,0.0,0.0,0.0,0.0,0.0,0.0,0.0,0.0,0.0,0.0,0.0,0.0,0.0,0.0,0.0,0.0,0.0,0.0,0.0,0.0,0.0,0.0,0.0,0.0,0.0,0.0,-2.8886,-2.8886,-2.89,-2.8915,-2.8915,-2.9237,-2.9398,-2.9398,-3.02,-3.0997,-3.2305,-3.232,-3.267,-3.3492,-3.3492,-3.4425,-3.5833,-3.4115,-3.3492,-3.364,-3.5204,-3.5833,-3.5994,-3.7737,-3.839,-3.8231,-3.8371,-3.8371,-3.8706,-4.0296,-4.0938,-4.1249,-4.283,-4.3462,-4.3462,-4.3462,-4.3462,-4.3615,-4.3615,-4.4256,-4.496,-4.496,-4.5312,-4.5788,-4.6182,-4.5623,-4.4753,-4.3842,-4.3635,-4.3615,-4.3635,-4.4029,-4.4339,-4.4339,-4.5064,-4.5664,-4.5685,-4.6037,-4.6326,-4.6347,-4.6347,-4.6347,-4.6347,-4.6347,-4.6347,-4.6347,-4.6347,-4.6347,-4.6347,-4.6347,-4.6347,-4.6347,-4.6347,-4.6347,-4.6347,-4.6347,-4.6347,-4.6509,-4.6347,-4.7111,-4.882,-4.8662,-4.8662,0.0,0.0,0.0,0.0,0.0,0.0,0.0,0.0,0.0,0.0,0.0,0.0,0.0,0.0,0.0,0.0,0.0,0.0,0.0,0.0,0.0,0.0,0.0,0.0,0.0,0.0,0.0,0.0,0.0,0.0,-2.8871,-2.8886,-2.8886,-2.8886,-2.9003,-2.9218,-2.939,-3.0505,-3.1317,-3.1978,-3.3627,-3.4081,-3.364,-3.5706,-3.6477,-3.5994,-3.6477,-3.6654,-3.6797,-3.7436,-3.7578,-3.7755,-3.9512,-3.9494,-3.8706,-4.0919,-4.1074,-4.0452,-4.2042,-4.2677,-4.283,-4.3462,-4.3615,-4.3615,-4.3615,-4.3615,-4.3615,-4.3615,-4.4277,-4.5002,-4.5002,-4.554,-4.6078,-4.5954,-4.5457,-4.4898,-4.4567,-4.4505,-4.4505,-4.4505,-4.4381,-4.4484,-4.5084,-4.5229,-4.5436,-4.6016,-4.6244,-4.6347,-4.6347,-4.6347,-4.6347,-4.6347,-4.6347,-4.6347,-4.6347,-4.6347,-4.6347,-4.6347,-4.6347,-4.6347,-4.6347,-4.6347,-4.6347,-4.6347,-4.6347,-4.6811,-4.789,-4.789,-4.882,-5.0365,-5.0365,-5.0365,0.0,0.0,0.0,0.0,0.0,0.0,0.0,0.0,0.0,0.0,0.0,0.0,0.0,0.0,0.0,0.0,0.0,0.0,0.0,0.0,0.0,0.0,0.0,0.0,0.0,0.0,0.0,0.0,0.0,0.0,-2.8725,-2.8842,-2.8886,-2.9056,-2.9056,-2.9368,-3.0004,-3.0685,-3.1575,-3.2694,-3.4474,-3.5163,-3.5053,-3.7383,-3.8231,-3.7755,-3.8864,-3.9022,-3.8548,-3.9179,-3.9336,-3.9494,-4.1249,-4.1249,-4.0432,-4.281,-4.283,-4.2042,-4.3136,-4.3615,-4.3615,-4.3615,-4.3615,-4.3615,-4.3615,-4.3615,-4.3615,-4.3615,-4.4174,-4.4795,-4.496,-4.5561,-4.6057,-4.5747,-4.5333,-4.5084,-4.5374,-4.5084,-4.4753,-4.4753,-4.4381,-4.436,-4.5291,-4.5188,-4.5312,-4.6202,-4.6347,-4.6347,-4.6347,-4.6347,-4.6347,-4.6347,-4.6347,-4.6347,-4.6347,-4.6347,-4.6347,-4.6347,-4.6347,-4.6347,-4.6347,-4.6347,-4.6347,-4.6347,-4.6347,-4.6811,-4.789,-4.8525,-4.9584,-5.1293,-5.1907,-5.206,0.0,0.0,0.0,0.0,0.0,0.0,0.0,0.0,0.0,0.0,0.0,0.0,0.0,0.0,0.0,0.0,0.0,0.0,0.0,0.0,0.0,0.0,0.0,0.0,0.0,0.0,0.0,0.0,0.0,-2.8417,-2.8432,-2.8725,-2.9056,-2.9523,-2.9523,-2.9989,-3.0778,-3.0933,-3.2171,-3.4333,-3.4848,-3.6164,-3.7961,-3.8346,-3.9494,-4.1113,-4.1113,-4.0139,-3.8845,-4.0471,-4.1113,-4.1268,-4.2984,-4.3615,-4.3615,-4.3615,-4.3615,-4.3615,-4.3615,-4.3615,-4.3615,-4.3615,-4.3615,-4.3615,-4.3615,-4.3615,-4.3615,-4.3615,-4.3946,-4.4401,-4.4877,-4.5312,-4.5643,-4.5664,-4.5312,-4.5209,-4.6119,-4.525,-4.4319,-4.4339,-4.3967,-4.3946,-4.4857,-4.5002,-4.5312,-4.6202,-4.6347,-4.6347,-4.6347,-4.6347,-4.6347,-4.6347,-4.6347,-4.6347,-4.6347,-4.6347,-4.6347,-4.6347,-4.6347,-4.6347,-4.6347,-4.6347,-4.6347,-4.6347,-4.6347,-4.6347,-4.6509,-4.8049,-4.9741,-5.1293,-5.2973,-5.3726,-0.8964,0.0,0.0,0.0,0.0,0.0,0.0,0.0,0.0,0.0,0.0,0.0,0.0,0.0,0.0,0.0,0.0,0.0,0.0,0.0,0.0,0.0,0.0,0.0,0.0,0.0,0.0,0.0,-2.77,-2.7949,-2.8417,-2.8725,-2.8886,-2.9056,-3.0716,-3.1791,-3.2113,-3.3751,-3.5149,-3.5977,-3.7464,-3.8045,-3.7961,-4.0547,-4.1416,-4.1113,-4.235,-4.2657,-4.2176,-4.2677,-4.2984,-4.2984,-4.3462,-4.3615,-4.3615,-4.3615,-4.3615,-4.3615,-4.3615,-4.3615,-4.3615,-4.3615,-4.3615,-4.3615,-4.3615,-4.3615,-4.3615,-4.3615,-4.3946,-4.4401,-4.4877,-4.4836,-4.4774,-4.5105,-4.4836,-4.465,-4.525,-4.4815,-4.4505,-4.5167,-4.4919,-4.4795,-4.5395,-4.5209,-4.5312,-4.6202,-4.6347,-4.6347,-4.6347,-4.6347,-4.6347,-4.6347,-4.6347,-4.6347,-4.6347,-4.6347,-4.6347,-4.6347,-4.6347,-4.6347,-4.6347,-4.6347,-4.6811,-4.8049,-4.8049,-4.8662,-4.9897,-5.0365,-5.083,-5.1293,-5.4199,-5.5435,-1.0148,-1.1266,-1.2862,0.0,0.0,0.0,0.0,0.0,0.0,0.0,0.0,0.0,0.0,0.0,0.0,0.0,0.0,0.0,0.0,0.0,0.0,0.0,0.0,0.0,0.0,0.0,0.0,-2.7247,-2.7393,-2.7984,-2.9094,-2.9426,-3.0054,-3.0956,-3.2607,-3.36,-3.3751,-3.5402,-3.6553,-3.7538,-3.8619,-3.9265,-3.9449,-4.1826,-4.2453,-4.1935,-4.3055,-4.3615,-4.3615,-4.3615,-4.3615,-4.3615,-4.3615,-4.3615,-4.3615,-4.3615,-4.3615,-4.3615,-4.3615,-4.3615,-4.3615,-4.3615,-4.3615,-4.3615,-4.3615,-4.3615,-4.3615,-4.3615,-4.3946,-4.4319,-4.4401,-4.436,-4.4381,-4.465,-4.436,-4.4194,-4.4857,-4.4629,-4.4463,-4.5002,-4.4733,-4.4629,-4.5291,-4.5167,-4.5312,-4.6202,-4.6347,-4.6347,-4.6347,-4.6347,-4.6347,-4.6347,-4.6347,-4.6347,-4.6347,-4.6347,-4.6347,-4.6347,-4.6347,-4.6649,-4.7272,-4.7272,-4.8208,-4.9741,-4.9897,-5.0675,-5.2365,-5.2365,-5.267,-5.3449,-5.5287,-5.6219,-1.1594,-1.2644,-1.4402,-1.5549,0.0,0.0,-1.8277,-1.8057,0.0,0.0,0.0,0.0,0.0,0.0,0.0,0.0,0.0,0.0,0.0,0.0,0.0,0.0,0.0,0.0,0.0,-2.6457,-2.6588,-2.691,-2.7276,-2.8326,-3.0071,-3.0569,-3.1661,-3.3631,-3.4557,-3.5348,-3.57,-3.6294,-3.7326,-3.8806,-3.92,-4.0171,-4.1607,-4.2456,-4.287,-4.2952,-4.3408,-4.3615,-4.3615,-4.3615,-4.3615,-4.3615,-4.3615,-4.3615,-4.3615,-4.3615,-4.3615,-4.3615,-4.3615,-4.3615,-4.3615,-4.3615,-4.3615,-4.3615,-4.3615,-4.3615,-4.3615,-4.3615,-4.3905,-4.4132,-4.3718,-4.3925,-4.4236,-4.4236,-4.3905,-4.3842,-4.465,-4.4526,-4.4236,-4.4236,-4.3925,-4.3967,-4.4836,-4.5002,-4.5312,-4.6202,-4.6347,-4.6347,-4.6347,-4.6347,-4.6347,-4.6347,-4.6347,-4.6347,-4.6347,-4.6347,-4.6347,-4.6347,-4.6347,-4.7132,-4.8662,-4.882,-4.9584,-5.1601,-5.1754,-5.2518,-5.405,-5.3726,-5.4497,-5.6219,-5.6219,-5.6219,-1.498,-1.5832,-1.6843,-1.6414,0.0,0.0,0.0,-1.6769,0.0,0.0,0.0,0.0,0.0,0.0,0.0,0.0,0.0,0.0,0.0,0.0,0.0,0.0,0.0,0.0,0.0,-2.6105,-2.6252,-2.6574,-2.7144,-2.8221,-2.9723,-3.0055,-3.1267,-3.3186,-3.4863,-3.6237,-3.7014,-3.8661,-3.9858,-4.0433,-4.0515,-4.0905,-4.1586,-4.2145,-4.258,-4.2952,-4.3408,-4.3615,-4.3615,-4.3615,-4.3615,-4.3615,-4.3615,-4.3615,-4.3615,-4.3615,-4.3615,-4.3615,-4.3615,-4.3615,-4.3615,-4.3615,-4.3615,-4.3615,-4.3615,-4.3615,-4.3615,-4.3615,-4.3677,-4.3718,-4.3635,-4.3677,-4.3739,-4.3739,-4.3677,-4.3656,-4.3842,-4.3801,-4.3739,-4.3739,-4.3967,-4.4339,-4.4898,-4.5002,-4.5312,-4.6202,-4.6347,-4.6347,-4.6347,-4.6347,-4.6347,-4.6347,-4.6347,-4.6347,-4.6347,-4.6347,-4.6347,-4.6347,-4.6347,-4.7132,-4.8662,-4.882,-5.0209,-5.3124,-5.4522,-5.5435,-5.5754,-5.4348,-5.4497,-5.6219,-5.6219,-5.6219,-1.6484,-1.7216,-1.8218,-1.7896,0.0,0.0,0.0,0.0,0.0,0.0,0.0,0.0,0.0,0.0,0.0,0.0,0.0,0.0,0.0,0.0,0.0,0.0,0.0,0.0,0.0,-2.5535,-2.6002,-2.7195,-2.784,-2.9122,-3.1226,-3.1895,-3.3012,-3.481,-3.6512,-3.7557,-3.8184,-3.9614,-4.0453,-4.0882,-4.0882,-4.0986,-4.1234,-4.171,-4.2166,-4.2621,-4.3077,-4.3387,-4.3615,-4.3615,-4.3615,-4.3615,-4.3615,-4.3615,-4.3615,-4.3615,-4.3615,-4.3615,-4.3615,-4.3615,-4.3615,-4.3615,-4.3615,-4.3615,-4.3615,-4.3615,-4.3615,-4.3615,-4.3615,-4.3615,-4.3615,-4.3615,-4.3615,-4.3615,-4.3615,-4.3615,-4.3615,-4.3615,-4.3615,-4.3615,-4.3801,-4.4112,-4.4567,-4.4836,-4.5229,-4.5912,-4.6202,-4.6347,-4.6347,-4.6347,-4.6347,-4.6347,-4.6347,-4.6347,-4.6347,-4.6347,-4.6347,-4.6347,-4.6347,-4.7432,-4.9897,-5.0053,-5.1601,-5.4819,-5.5754,-5.6219,-5.6219,-5.5287,-5.5435,-5.6219,-5.6219,-5.6219,0.0,0.0,0.0,0.0,0.0,-1.813,0.0,0.0,0.0,-1.8101,0.0,0.0,0.0,0.0,0.0,0.0,0.0,0.0,0.0,0.0,0.0,0.0,0.0,0.0,0.0,-2.4938,-2.5889,-2.7972,-2.8381,-2.9847,-3.2892,-3.3743,-3.492,-3.666,-3.7766,-3.8485,-3.907,-3.9861,-4.0371,-4.0882,-4.0882,-4.0882,-4.0903,-4.1358,-4.1814,-4.229,-4.2725,-4.318,-4.3615,-4.3615,-4.3615,-4.3615,-4.3615,-4.3615,-4.3615,-4.3615,-4.3615,-4.3615,-4.3615,-4.3615,-4.3615,-4.3615,-4.3615,-4.3615,-4.3615,-4.3615,-4.3615,-4.3615,-4.3615,-4.3615,-4.3615,-4.3615,-4.3615,-4.3615,-4.3615,-4.3615,-4.3615,-4.3615,-4.3615,-4.3615,-4.3615,-4.376,-4.4215,-4.4691,-4.5147,-4.5623,-4.6057,-4.6347,-4.6347,-4.6347,-4.6347,-4.6347,-4.6347,-4.6306,-4.6223,-4.6306,-4.6467,-4.6685,-4.6769,-4.8367,-5.1601,-5.206,-5.3449,-5.6219,-5.6219,-5.6219,-5.6219,-5.6219,-5.6219,-5.6219,-5.6219,-5.6219,0.0,0.0,0.0,0.0,-2.0237,0.0,0.0,0.0,-1.7808,-1.6843,0.0,0.0,0.0,0.0,0.0,0.0,0.0,0.0,0.0,0.0,0.0,0.0,0.0,0.0,0.0,0.0,-2.5707,-2.814,-2.7956,-2.9155,-3.2399,-3.3046,-3.4321,-3.6641,-3.7174,-3.7868,-3.907,-3.9536,-4.0044,-4.0882,-4.0882,-4.0882,-4.0903,-4.1358,-4.1814,-4.229,-4.2725,-4.318,-4.3615,-4.3615,-4.3615,-4.3615,-4.3615,-4.3615,-4.3615,-4.3615,-4.3615,-4.3615,-4.3615,-4.3615,-4.3615,-4.3615,-4.3615,-4.3615,-4.3615,-4.3615,-4.3615,-4.3615,-4.3615,-4.3615,-4.3615,-4.3615,-4.3615,-4.3615,-4.3615,-4.3615,-4.3615,-4.3615,-4.3615,-4.3615,-4.3615,-4.376,-4.4215,-4.4691,-4.5147,-4.5623,-4.6057,-4.6347,-4.6347,-4.6347,-4.6347,-4.6347,-4.6347,-4.6182,-4.5788,-4.6119,-4.6783,-4.7896,-4.8265,-5.0053,-5.3275,-5.4819,-5.5754,-5.6219,-5.6219,-5.6219,-5.6219,-5.6219,-5.6219,-5.6219,-5.6219,-5.6219,0.0,0.0,0.0,0.0,0.0,0.0,-1.8379,0.0,-1.7691,0.0,0.0,0.0,0.0,0.0,0.0,0.0,0.0,0.0,0.0,0.0,0.0,0.0,0.0,0.0,0.0,0.0,0.0,0.0,0.0,-2.9635,-3.28,-3.3671,-3.472,-3.615,-3.6818,-3.7788,-3.8969,-3.9373,-4.0003,-4.0882,-4.0882,-4.0882,-4.0882,-4.1069,-4.1565,-4.2269,-4.2456,-4.2952,-4.3615,-4.3615,-4.3615,-4.3615,-4.3615,-4.3615,-4.3615,-4.3615,-4.3615,-4.3615,-4.3615,-4.3615,-4.3615,-4.3615,-4.3615,-4.3615,-4.3615,-4.3615,-4.3615,-4.3615,-4.3615,-4.3615,-4.3615,-4.3615,-4.3615,-4.3615,-4.3615,-4.3615,-4.3615,-4.3615,-4.3615,-4.3615,-4.3615,-4.3677,-4.3863,-4.4277,-4.465,-4.4857,-4.5271,-4.5664,-4.5933,-4.5726,-4.5768,-4.6285,-4.5871,-4.5899,-4.689,-4.6983,-4.7567,-4.9314,-5.0842,-5.219,-5.3576,-5.5287,-5.6219,-5.6219,-5.6219,-5.6219,-5.6219,-5.6219,-5.6219,-5.6219,-5.6219,-5.6043,-2.1891,0.0,0.0,0.0,0.0,0.0,0.0,0.0,0.0,0.0,0.0,0.0,0.0,0.0,0.0,-1.7808,0.0,0.0,0.0,0.0,0.0,0.0,0.0,0.0,0.0,0.0,0.0,0.0,0.0,0.0,-3.3125,-3.4062,-3.4916,-3.5865,-3.6773,-3.7646,-3.88,-3.9368,-3.9959,-4.0696,-4.082,-4.0882,-4.0882,-4.0882,-4.1317,-4.2083,-4.2207,-4.2704,-4.3428,-4.3553,-4.3615,-4.3615,-4.3615,-4.3615,-4.3615,-4.3615,-4.3615,-4.3615,-4.3615,-4.3615,-4.3615,-4.3615,-4.3615,-4.3615,-4.3615,-4.3615,-4.3615,-4.3615,-4.3615,-4.3615,-4.3615,-4.3615,-4.3615,-4.3615,-4.3615,-4.3615,-4.3615,-4.3615,-4.3615,-4.3615,-4.3615,-4.3615,-4.3615,-4.3987,-4.4298,-4.4298,-4.4691,-4.5105,-4.5457,-4.5209,-4.5387,-4.651,-4.5985,-4.6273,-4.8146,-4.81,-4.8776,-5.0967,-5.3288,-5.4497,-5.4497,-5.5876,-5.651,-5.6365,-5.6365,-5.6365,-5.6219,-5.6365,-5.6289,-5.5993,-5.5993,-5.5767,0.0,0.0,0.0,-2.0808,0.0,0.0,0.0,0.0,-1.895,0.0,0.0,0.0,0.0,-1.854,-1.854,-1.7911,-1.8548,0.0,0.0,0.0,0.0,0.0,0.0,0.0,0.0,0.0,0.0,0.0,0.0,0.0,-3.2637,-3.3633,-3.4603,-3.5845,-3.6723,-3.7455,-3.831,-3.9055,-3.9785,-4.0261,-4.0675,-4.0882,-4.0882,-4.0882,-4.1131,-4.1607,-4.2062,-4.2518,-4.2973,-4.3428,-4.3615,-4.3615,-4.3615,-4.3615,-4.3615,-4.3615,-4.3615,-4.3615,-4.3615,-4.3615,-4.3615,-4.3615,-4.3615,-4.3615,-4.3615,-4.3615,-4.3615,-4.3615,-4.3615,-4.3615,-4.3615,-4.3615,-4.3615,-4.3615,-4.3615,-4.3615,-4.3615,-4.3615,-4.3615,-4.3615,-4.3615,-4.3615,-4.3615,-4.3987,-4.4298,-4.4298,-4.4691,-4.5002,-4.5022,-4.5002,-4.5607,-4.7137,-4.7247,-4.7639,-4.8794,-4.9331,-5.0434,-5.2612,-5.5259,-5.6656,-5.6656,-5.7091,-5.7235,-5.6801,-5.6801,-5.6656,-5.6219,-5.6656,-5.6378,-5.5415,-5.5415,-5.5415,0.0,0.0,-2.3808,-2.1979,0.0,0.0,0.0,0.0,0.0,0.0,0.0,0.0,0.0,-1.8569,-1.8569,-1.7925,-1.8859,-1.9574,0.0,0.0,0.0,0.0,0.0,0.0,0.0,0.0,0.0,0.0,0.0,0.0,0.0,-3.3248,-3.4372,-3.54,-3.6385,-3.7534,-3.8562,-3.9172,-3.9765,-4.0241,-4.0675,-4.0882,-4.0882,-4.0882,-4.1131,-4.1565,-4.1731,-4.2228,-4.2932,-4.3097,-4.3325,-4.3615,-4.3615,-4.3615,-4.3615,-4.3615,-4.3615,-4.3615,-4.3615,-4.3615,-4.3615,-4.3615,-4.3615,-4.3615,-4.3615,-4.3615,-4.3615,-4.3615,-4.3615,-4.3615,-4.3615,-4.3615,-4.3615,-4.3615,-4.3615,-4.3615,-4.3615,-4.3615,-4.3615,-4.3615,-4.3615,-4.3615,-4.3615,-4.3739,-4.3842,-4.3842,-4.3967,-4.4194,-4.4505,-4.4277,-4.4894,-4.7006,-4.681,-4.7507,-5.0312,-5.1995,-5.3274,-5.4334,-5.5811,-5.6946,-5.7235,-5.7379,-5.7379,-5.7235,-5.7235,-5.6912,-5.6361,-5.6504,-5.6224,-5.5522,-5.5166,-5.4848,-2.4115,-2.432,0.0,-2.271,-2.2023,0.0,-1.9535,0.0,0.0,0.0,0.0,0.0,0.0,-2.0292,-1.9558,-1.9917,-2.0232,-2.0372,0.0,0.0,0.0,0.0,0.0,0.0,0.0,0.0,-2.4925,-2.7923,0.0,0.0,0.0,0.0,-3.4306,-3.5341,-3.6343,-3.7442,-3.8605,-3.9061,-3.9537,-3.9992,-4.0427,-4.0737,-4.0882,-4.0882,-4.1048,-4.1338,-4.1503,-4.2,-4.2704,-4.2849,-4.3201,-4.3615,-4.3615,-4.3615,-4.3615,-4.3615,-4.3615,-4.3615,-4.3615,-4.3615,-4.3615,-4.3615,-4.3615,-4.3615,-4.3615,-4.3615,-4.3615,-4.3615,-4.3615,-4.3615,-4.3615,-4.3615,-4.3615,-4.3615,-4.3615,-4.3615,-4.3615,-4.3615,-4.3615,-4.3615,-4.3615,-4.3615,-4.3615,-4.3615,-4.3615,-4.3615,-4.3615,-4.3718,-4.4029,-4.4238,-4.5298,-4.7542,-4.775,-4.8957,-5.2048,-5.3768,-5.4899,-5.5242,-5.6275,-5.7149,-5.7498,-5.7667,-5.7667,-5.7523,-5.7318,-5.7035,-5.6508,-5.6444,-5.6059,-5.5355,-5.5134,-5.4714]},{"header":{"parameterUnit":"m.s-1","parameterCategory":1,"la1":30.6,"la2":29.2853,"lo1":-89.7004,"lo2":-87.6739,"dy":0.0162,"dx":0.0183,"nx":112,"ny":82,"refTime":"2024-07-08T18:00:00:Z","depth":0,"parameterNumber":3,"parameterNumberName":"V-component_of_WINDS"},"data":[0.0,0.0,0.0,0.0,0.0,0.0,0.0,0.0,0.0,0.0,0.0,0.0,0.0,0.0,0.0,0.0,0.0,0.0,0.0,0.0,0.0,0.0,0.0,0.0,0.0,0.0,0.0,0.0,0.0,0.0,0.0,0.0,0.0,0.0,0.0,0.0,0.0,0.0,0.0,0.0,0.0,0.0,0.0,0.0,0.0,0.0,0.0,0.0,0.0,0.0,0.0,0.0,0.0,0.0,0.0,0.0,0.0,0.0,0.0,0.0,0.0,0.0,0.0,0.0,0.0,0.0,0.0,0.0,0.0,0.0,0.0,0.0,0.0,0.0,0.0,0.0,0.0,0.0,0.0,0.0,0.0,0.0,0.0,0.0,0.0,0.0,0.0,0.0,0.0,0.0,0.0,-5.554,-6.0741,-6.4085,-6.4753,-6.323,-5.9515,-5.32,0.0,0.0,0.0,0.0,0.0,0.0,0.0,0.0,0.0,0.0,0.0,0.0,0.0,0.0,0.0,0.0,0.0,0.0,0.0,0.0,0.0,0.0,0.0,0.0,0.0,0.0,0.0,0.0,0.0,0.0,0.0,0.0,0.0,0.0,0.0,0.0,0.0,0.0,0.0,0.0,0.0,0.0,0.0,0.0,0.0,0.0,0.0,0.0,0.0,0.0,0.0,0.0,0.0,0.0,0.0,0.0,0.0,0.0,0.0,0.0,0.0,0.0,0.0,0.0,0.0,0.0,0.0,0.0,0.0,0.0,0.0,0.0,0.0,0.0,0.0,0.0,0.0,0.0,0.0,0.0,0.0,0.0,0.0,0.0,0.0,0.0,0.0,0.0,0.0,0.0,0.0,0.0,0.0,0.0,0.0,0.0,0.0,0.0,0.0,0.0,0.0,0.0,0.0,0.0,-5.1193,-6.0295,-6.3305,-6.4679,-6.4791,-6.271,-5.9181,-5.3943,0.0,0.0,0.0,0.0,0.0,0.0,0.0,0.0,0.0,0.0,0.0,0.0,0.0,0.0,0.0,0.0,0.0,0.0,0.0,0.0,0.0,0.0,0.0,0.0,0.0,0.0,0.0,0.0,0.0,0.0,0.0,0.0,0.0,0.0,0.0,0.0,0.0,0.0,0.0,0.0,0.0,0.0,0.0,0.0,0.0,0.0,0.0,0.0,0.0,0.0,0.0,0.0,0.0,0.0,0.0,0.0,0.0,0.0,0.0,0.0,0.0,0.0,0.0,0.0,0.0,0.0,0.0,0.0,0.0,0.0,0.0,0.0,0.0,0.0,0.0,0.0,0.0,0.0,0.0,0.0,0.0,0.0,0.0,0.0,0.0,0.0,0.0,0.0,0.0,0.0,0.0,0.0,0.0,0.0,0.0,0.0,0.0,0.0,0.0,0.0,0.0,0.0,0.0,-4.9993,-5.5137,-6.3631,-6.4786,-6.5113,-6.5459,-6.3267,-5.9367,-5.3534,-4.889,0.0,0.0,0.0,0.0,0.0,0.0,0.0,0.0,0.0,0.0,0.0,0.0,0.0,0.0,0.0,0.0,0.0,0.0,0.0,0.0,0.0,0.0,0.0,0.0,0.0,0.0,0.0,0.0,0.0,0.0,0.0,0.0,0.0,0.0,0.0,0.0,0.0,0.0,0.0,0.0,0.0,0.0,0.0,0.0,0.0,0.0,0.0,0.0,0.0,0.0,0.0,0.0,0.0,0.0,0.0,0.0,0.0,0.0,0.0,0.0,0.0,0.0,0.0,0.0,0.0,0.0,0.0,0.0,0.0,0.0,0.0,0.0,0.0,0.0,0.0,0.0,0.0,0.0,0.0,0.0,0.0,0.0,0.0,0.0,0.0,0.0,0.0,0.0,0.0,0.0,0.0,0.0,0.0,0.0,0.0,0.0,0.0,0.0,0.0,0.0,0.0,0.0,-5.566,-5.902,-6.5708,-6.559,-6.5307,-6.6017,-6.3119,-5.8772,-5.2977,-4.7293,0.0,0.0,0.0,0.0,0.0,0.0,0.0,0.0,0.0,0.0,0.0,0.0,0.0,0.0,0.0,0.0,0.0,0.0,0.0,0.0,0.0,0.0,0.0,0.0,0.0,0.0,0.0,0.0,0.0,0.0,0.0,0.0,0.0,0.0,0.0,0.0,0.0,0.0,0.0,0.0,0.0,0.0,0.0,0.0,0.0,0.0,0.0,0.0,0.0,0.0,0.0,0.0,0.0,0.0,0.0,0.0,0.0,0.0,0.0,0.0,0.0,0.0,0.0,0.0,0.0,0.0,0.0,0.0,0.0,0.0,0.0,0.0,0.0,0.0,0.0,0.0,0.0,0.0,0.0,0.0,0.0,0.0,0.0,0.0,0.0,0.0,0.0,0.0,0.0,0.0,0.0,0.0,0.0,0.0,0.0,0.0,0.0,0.0,0.0,0.0,0.0,0.0,-5.648,-6.131,-6.5888,-6.5448,-6.5162,-6.6017,-6.1038,-5.6357,-5.2828,-4.5138,0.0,0.0,0.0,0.0,0.0,0.0,0.0,0.0,0.0,0.0,0.0,0.0,0.0,0.0,0.0,0.0,0.0,0.0,0.0,0.0,0.0,0.0,0.0,0.0,0.0,0.0,0.0,0.0,0.0,0.0,0.0,0.0,0.0,0.0,0.0,0.0,0.0,0.0,0.0,0.0,0.0,0.0,0.0,0.0,0.0,0.0,0.0,0.0,0.0,0.0,0.0,0.0,0.0,0.0,0.0,0.0,0.0,0.0,0.0,0.0,0.0,0.0,0.0,0.0,0.0,0.0,0.0,0.0,0.0,0.0,0.0,0.0,0.0,0.0,0.0,0.0,0.0,0.0,0.0,0.0,0.0,0.0,0.0,0.0,0.0,0.0,0.0,0.0,0.0,0.0,0.0,0.0,0.0,0.0,0.0,0.0,0.0,0.0,0.0,0.0,0.0,0.0,-5.5988,-6.0825,0.0,-6.617,-6.5948,-6.6247,-6.2315,-5.7546,-5.2197,0.0,0.0,0.0,0.0,0.0,0.0,0.0,0.0,0.0,0.0,0.0,0.0,0.0,0.0,0.0,0.0,0.0,0.0,0.0,0.0,0.0,0.0,0.0,0.0,0.0,0.0,0.0,0.0,0.0,0.0,0.0,0.0,0.0,0.0,0.0,0.0,0.0,0.0,0.0,0.0,0.0,0.0,0.0,0.0,0.0,0.0,0.0,0.0,0.0,0.0,0.0,0.0,0.0,0.0,0.0,0.0,0.0,0.0,0.0,0.0,0.0,0.0,0.0,0.0,0.0,0.0,0.0,0.0,0.0,0.0,0.0,0.0,0.0,0.0,0.0,0.0,0.0,0.0,0.0,0.0,0.0,0.0,0.0,0.0,0.0,0.0,0.0,0.0,0.0,0.0,0.0,0.0,0.0,0.0,0.0,0.0,0.0,0.0,0.0,0.0,0.0,0.0,-5.1328,-5.661,-6.1507,0.0,-6.6373,-6.6075,-6.6292,-6.1943,-5.6878,-5.1379,0.0,0.0,0.0,0.0,0.0,0.0,0.0,0.0,0.0,0.0,0.0,0.0,0.0,0.0,0.0,0.0,0.0,0.0,0.0,0.0,0.0,0.0,0.0,0.0,0.0,0.0,0.0,0.0,0.0,0.0,0.0,0.0,0.0,0.0,0.0,0.0,0.0,0.0,0.0,0.0,0.0,0.0,0.0,0.0,0.0,0.0,0.0,0.0,0.0,0.0,0.0,0.0,0.0,0.0,0.0,0.0,0.0,0.0,0.0,0.0,0.0,0.0,0.0,0.0,0.0,0.0,0.0,0.0,0.0,0.0,0.0,0.0,0.0,0.0,0.0,0.0,0.0,0.0,0.0,0.0,0.0,0.0,0.0,0.0,0.0,0.0,0.0,0.0,0.0,0.0,0.0,0.0,0.0,0.0,0.0,0.0,0.0,0.0,0.0,0.0,0.0,0.0,-5.1746,-5.8603,-6.3946,-6.6462,-6.5801,-6.5471,-6.6063,-5.9329,-5.3683,0.0,0.0,0.0,0.0,0.0,0.0,0.0,0.0,0.0,0.0,0.0,0.0,0.0,0.0,0.0,0.0,0.0,0.0,0.0,0.0,0.0,0.0,0.0,0.0,0.0,0.0,0.0,0.0,0.0,0.0,0.0,0.0,0.0,0.0,0.0,0.0,0.0,0.0,0.0,0.0,0.0,0.0,0.0,0.0,0.0,0.0,0.0,0.0,0.0,0.0,0.0,0.0,0.0,0.0,0.0,0.0,0.0,0.0,0.0,0.0,0.0,0.0,0.0,0.0,0.0,0.0,0.0,0.0,0.0,0.0,0.0,0.0,0.0,0.0,0.0,0.0,0.0,0.0,0.0,0.0,0.0,0.0,0.0,0.0,0.0,0.0,0.0,0.0,0.0,0.0,0.0,0.0,0.0,0.0,0.0,0.0,0.0,0.0,0.0,0.0,0.0,0.0,0.0,-5.2608,-5.9613,-6.5086,-6.777,-6.7488,-6.7058,-6.6842,-6.1871,-5.663,-5.1591,0.0,0.0,0.0,0.0,0.0,0.0,0.0,0.0,0.0,0.0,0.0,0.0,0.0,0.0,0.0,0.0,0.0,0.0,0.0,0.0,0.0,0.0,0.0,0.0,0.0,0.0,0.0,0.0,0.0,0.0,0.0,0.0,0.0,0.0,0.0,0.0,0.0,0.0,0.0,0.0,0.0,0.0,0.0,0.0,0.0,0.0,0.0,0.0,0.0,0.0,0.0,0.0,0.0,0.0,0.0,0.0,0.0,0.0,0.0,0.0,0.0,0.0,0.0,0.0,0.0,0.0,0.0,0.0,0.0,0.0,0.0,0.0,0.0,0.0,0.0,0.0,0.0,0.0,0.0,0.0,0.0,0.0,0.0,0.0,0.0,0.0,0.0,0.0,0.0,0.0,0.0,0.0,0.0,0.0,0.0,0.0,0.0,0.0,0.0,0.0,0.0,0.0,-5.3366,-6.0316,-6.5615,-6.8224,-6.8254,-6.7793,-6.7005,-6.3533,-5.8802,-5.2694,0.0,0.0,0.0,0.0,0.0,0.0,0.0,0.0,0.0,0.0,0.0,0.0,0.0,0.0,0.0,0.0,0.0,0.0,0.0,0.0,0.0,0.0,0.0,0.0,0.0,0.0,0.0,0.0,0.0,0.0,0.0,0.0,0.0,0.0,0.0,0.0,0.0,0.0,0.0,0.0,0.0,0.0,0.0,0.0,0.0,0.0,0.0,0.0,0.0,0.0,0.0,0.0,0.0,0.0,0.0,0.0,0.0,0.0,0.0,0.0,0.0,0.0,0.0,0.0,0.0,0.0,0.0,0.0,0.0,0.0,0.0,0.0,0.0,0.0,0.0,0.0,0.0,0.0,0.0,0.0,0.0,0.0,0.0,0.0,0.0,0.0,0.0,0.0,0.0,0.0,0.0,0.0,0.0,0.0,0.0,0.0,0.0,0.0,0.0,0.0,0.0,0.0,-5.4162,-6.0871,-6.5877,-6.8183,-6.8447,-6.799,-6.6958,-6.4627,-6.0492,-5.41,0.0,0.0,0.0,0.0,0.0,0.0,0.0,0.0,0.0,0.0,0.0,0.0,0.0,0.0,0.0,0.0,0.0,0.0,0.0,0.0,0.0,0.0,0.0,0.0,0.0,0.0,0.0,0.0,0.0,0.0,0.0,0.0,0.0,0.0,0.0,0.0,0.0,0.0,0.0,0.0,0.0,0.0,0.0,0.0,0.0,0.0,0.0,0.0,0.0,0.0,0.0,0.0,0.0,0.0,0.0,0.0,0.0,0.0,0.0,0.0,-4.4987,0.0,0.0,0.0,0.0,0.0,0.0,0.0,0.0,0.0,0.0,0.0,0.0,0.0,0.0,0.0,0.0,0.0,0.0,0.0,0.0,0.0,0.0,0.0,0.0,0.0,0.0,0.0,0.0,0.0,0.0,0.0,0.0,0.0,0.0,0.0,0.0,0.0,0.0,0.0,0.0,0.0,-5.5148,-6.1743,-6.6821,-6.9323,-6.9588,-6.9171,-6.8262,-6.5804,-6.2295,-5.7649,-5.187,0.0,0.0,0.0,0.0,0.0,0.0,0.0,0.0,0.0,0.0,0.0,0.0,0.0,0.0,0.0,0.0,0.0,0.0,0.0,0.0,0.0,0.0,0.0,0.0,0.0,0.0,0.0,0.0,0.0,0.0,0.0,0.0,0.0,0.0,0.0,0.0,0.0,0.0,0.0,0.0,0.0,0.0,0.0,0.0,0.0,0.0,0.0,0.0,0.0,0.0,0.0,0.0,0.0,0.0,0.0,0.0,0.0,0.0,0.0,0.0,-4.843,0.0,0.0,0.0,0.0,0.0,0.0,0.0,0.0,0.0,0.0,0.0,0.0,0.0,0.0,0.0,0.0,0.0,0.0,0.0,0.0,0.0,0.0,0.0,0.0,0.0,0.0,0.0,0.0,0.0,0.0,0.0,0.0,0.0,0.0,0.0,0.0,0.0,0.0,0.0,0.0,-5.655,-6.2463,-6.7087,-6.9626,-6.9699,-6.9162,-6.8332,-6.6729,-6.4009,-5.9889,-5.5175,0.0,0.0,0.0,0.0,0.0,0.0,0.0,0.0,0.0,0.0,0.0,0.0,0.0,0.0,0.0,0.0,0.0,0.0,0.0,0.0,0.0,0.0,0.0,0.0,0.0,0.0,0.0,0.0,0.0,0.0,0.0,0.0,0.0,0.0,0.0,0.0,0.0,0.0,0.0,0.0,0.0,0.0,0.0,0.0,0.0,0.0,0.0,0.0,0.0,0.0,0.0,0.0,0.0,-5.7791,-5.8797,-6.0809,-6.0809,-6.1969,-6.3632,-5.7985,-5.6051,-5.6553,0.0,0.0,0.0,0.0,0.0,0.0,0.0,0.0,0.0,0.0,0.0,0.0,0.0,0.0,0.0,0.0,0.0,0.0,0.0,0.0,0.0,0.0,0.0,0.0,0.0,-5.9649,-5.8673,0.0,0.0,0.0,0.0,0.0,0.0,0.0,0.0,0.0,0.0,0.0,0.0,-5.8218,-6.3448,-6.7353,-6.955,-6.934,-6.8784,-6.8022,-6.744,-6.5561,-6.199,-5.8554,-5.4737,0.0,0.0,0.0,0.0,0.0,0.0,0.0,0.0,0.0,0.0,0.0,0.0,0.0,0.0,0.0,0.0,0.0,0.0,0.0,0.0,0.0,0.0,0.0,0.0,0.0,0.0,0.0,0.0,0.0,0.0,0.0,0.0,-3.6013,-3.7212,0.0,0.0,0.0,0.0,0.0,0.0,0.0,0.0,0.0,0.0,0.0,0.0,0.0,-5.6636,-5.9785,-6.2143,-6.4213,-6.6031,-6.8119,-6.928,-6.9628,-6.9628,-6.9821,-7.0092,-6.9164,0.0,-6.0306,-5.8952,0.0,0.0,0.0,0.0,0.0,0.0,0.0,0.0,0.0,0.0,0.0,0.0,0.0,0.0,0.0,0.0,0.0,0.0,0.0,0.0,0.0,0.0,-6.3838,-6.3206,-6.3802,-6.3962,0.0,-5.6387,-5.0634,-4.6797,-4.5103,0.0,0.0,0.0,0.0,0.0,0.0,0.0,-6.0113,-6.5154,-6.8489,-6.9143,-6.9134,-6.884,-6.8315,-6.7503,-6.6526,-6.5217,-6.2056,-5.9139,-5.6757,-5.1486,0.0,0.0,0.0,0.0,0.0,0.0,0.0,0.0,0.0,0.0,0.0,0.0,0.0,0.0,0.0,0.0,0.0,0.0,0.0,0.0,0.0,0.0,0.0,0.0,0.0,0.0,0.0,0.0,0.0,-3.5416,-3.9444,-4.0385,-4.0836,-4.041,0.0,0.0,0.0,0.0,0.0,0.0,0.0,0.0,0.0,-5.9232,-6.1428,-6.3745,-6.6105,-6.8214,-6.9899,-7.1137,-7.2684,-7.369,-7.4154,-7.4154,-7.4425,-7.485,-7.4386,-7.2452,-6.9357,-6.518,-6.1543,-5.8488,0.0,0.0,0.0,0.0,-5.694,-5.7753,-6.0422,-6.1118,0.0,-5.9106,0.0,0.0,0.0,0.0,0.0,0.0,0.0,0.0,0.0,0.0,-6.7131,-6.803,-6.8739,-6.9013,-6.8177,-6.4989,-6.0627,0.0,-5.3518,-5.1357,-4.5179,0.0,0.0,0.0,0.0,-5.7856,-6.1655,-6.5689,-6.8316,-6.8622,-6.8416,-6.8161,-6.7908,-6.73,-6.6572,-6.573,-6.3496,-6.1419,-5.9611,-5.488,-5.075,0.0,0.0,0.0,0.0,0.0,0.0,0.0,0.0,0.0,0.0,0.0,0.0,0.0,0.0,0.0,0.0,0.0,0.0,0.0,0.0,0.0,0.0,0.0,0.0,0.0,0.0,0.0,0.0,-3.9265,-4.3066,-4.3786,-4.5269,-4.5438,0.0,0.0,0.0,0.0,0.0,0.0,-5.7062,-5.9878,-6.2794,-6.5947,-6.8111,-7.0104,-7.1949,-7.3264,-7.4347,-7.5198,-7.5817,-7.6436,-7.7055,-7.7055,-7.7403,-7.7983,-7.7365,-7.7055,-7.663,-7.0866,-6.7501,-6.576,-6.3632,-6.2278,-6.166,-6.2936,-6.3787,-6.4754,-6.7501,-6.8468,-6.8197,-6.6533,0.0,-6.1196,-5.7811,0.0,0.0,0.0,0.0,-6.2767,-6.6346,-6.8071,-6.9343,-7.1284,-7.2054,-7.2203,-7.1559,-7.0953,-6.8641,0.0,-6.106,-5.8976,-5.2077,0.0,0.0,0.0,0.0,-6.1228,-6.3834,-6.6871,-6.8721,-6.8433,-6.8099,-6.7743,-6.7396,-6.6858,-6.6243,-6.5627,-6.407,-6.2657,-6.1462,-5.7614,-5.4242,-5.1592,0.0,0.0,0.0,0.0,0.0,0.0,0.0,0.0,0.0,0.0,0.0,0.0,0.0,0.0,0.0,0.0,0.0,0.0,0.0,0.0,0.0,0.0,0.0,0.0,0.0,0.0,0.0,0.0,0.0,-4.8174,-5.1757,0.0,0.0,0.0,0.0,-5.4323,-5.7545,-6.0576,-6.3201,-6.6471,-6.9452,-7.2104,-7.3071,-7.4773,-7.7287,-7.7403,-7.7867,-7.8757,-7.8796,-7.8834,-7.8873,-7.8873,-7.8873,-7.8912,-7.8873,-7.8873,-7.8641,-7.5817,-7.3651,-7.2065,-7.1098,-7.017,-6.9435,-6.9512,-6.9589,-6.9744,-7.075,-7.1098,-7.1214,-7.191,-6.986,-6.7033,-6.656,-6.4715,0.0,0.0,-6.6854,-6.8165,-7.0582,-7.1277,-7.1512,-7.2206,-7.2394,-7.2393,-7.2317,-7.2279,-7.1218,0.0,-6.5722,-6.3751,-6.0909,0.0,-5.9696,-6.0378,-6.2804,-6.5275,-6.7326,-6.976,-7.0677,-6.8914,-6.8678,-6.8165,-6.6976,-6.6098,-6.5627,-6.5591,-6.407,-6.3164,-6.3056,-5.9835,-5.7185,-5.5425,-4.9991,0.0,0.0,0.0,0.0,0.0,0.0,0.0,0.0,0.0,0.0,0.0,0.0,0.0,0.0,0.0,0.0,0.0,0.0,0.0,0.0,0.0,0.0,0.0,0.0,0.0,0.0,0.0,0.0,-5.3299,-5.623,0.0,0.0,-5.7485,-5.9514,-6.1254,-6.4036,-6.7033,-7.0126,-7.1927,-7.3767,-7.5817,-7.6746,-7.7635,-7.8525,-7.9608,-8.0304,-8.0614,-8.1736,-8.2277,-8.2277,-8.2277,-8.2277,-8.2277,-8.2277,-8.2277,-8.22,-8.1271,-7.8912,-7.5817,-7.4928,-7.4386,-7.4115,-7.4115,-7.4115,-7.4154,-7.4463,-7.4193,-7.359,-7.266,-7.131,-6.9949,-6.9284,-6.8832,-6.8724,-6.9546,-7.0515,-7.1574,-7.2799,-7.311,-7.3228,-7.3875,-7.4023,-7.4023,-7.4023,-7.4023,-7.3644,-7.2469,-7.0422,-6.7731,-6.4168,-6.4206,-6.4282,-6.2917,-6.5305,-6.7808,-6.9284,-7.0396,-7.0437,-6.8934,-6.8491,-6.7855,-6.6858,-6.5591,-6.483,-6.483,-6.2838,-6.1679,-6.1679,-5.9366,-5.7601,-5.6572,-5.2929,-4.8928,0.0,0.0,0.0,0.0,0.0,0.0,0.0,0.0,0.0,0.0,0.0,0.0,0.0,0.0,0.0,0.0,0.0,0.0,0.0,0.0,0.0,0.0,0.0,0.0,0.0,0.0,-5.5053,-5.6869,-6.0288,-6.2027,-6.0925,-6.3342,-6.5682,-6.7384,-6.9628,-7.2026,-7.4618,-7.5817,-7.7055,-7.8486,-7.9105,-7.9685,-8.0266,-8.1387,-8.2084,-8.2393,-8.3554,-8.4095,-8.4095,-8.4095,-8.4095,-8.4095,-8.4095,-8.4095,-8.4095,-8.3786,-8.2161,-7.9724,-7.8564,-7.8099,-7.8061,-7.7481,-7.7287,-7.721,-7.6828,-7.6057,-7.5053,-7.3773,-7.3123,-7.2754,-7.2116,-7.2345,-7.2767,-7.2659,-7.3148,-7.3788,-7.4219,-7.4486,-7.4752,-7.4859,-7.5122,-7.5236,-7.497,-7.4895,-7.4895,-7.4895,-7.3303,-7.1066,-6.83,-6.8527,-6.8489,-6.6821,-6.8679,-7.0453,-7.0863,-7.1305,-7.1035,-6.9538,-6.8764,-6.7981,-6.6895,-6.5084,-6.3997,-6.3997,-6.1716,-6.052,-6.081,-5.8789,-5.7457,-5.6969,-5.3871,-5.0569,-4.7089,0.0,0.0,0.0,0.0,0.0,0.0,0.0,0.0,0.0,0.0,0.0,0.0,0.0,0.0,0.0,0.0,0.0,0.0,0.0,0.0,0.0,0.0,0.0,-5.0186,-5.5148,-5.8935,-5.9051,-6.4115,-6.6998,-6.5412,-6.8236,-7.0866,-7.2607,-7.427,-7.5585,-7.6475,-7.8099,-7.9415,-8.0266,-8.0266,-8.1117,-8.2819,-8.2857,-8.3283,-8.4134,-8.4173,-8.4173,-8.4173,-8.4173,-8.4173,-8.4173,-8.4173,-8.4173,-8.4095,-8.3283,-8.3399,-8.3979,-8.2238,-8.1581,-8.1387,-7.9724,-7.9042,-7.8863,-7.7715,-7.6532,-7.5616,-7.5616,-7.5584,-7.5589,-7.5392,-7.5358,-7.5322,-7.5051,-7.497,-7.497,-7.497,-7.5577,-7.5956,-7.516,-7.5577,-7.5918,-7.516,-7.497,-7.497,-7.4932,-7.425,-7.3682,-7.3606,-7.2962,-7.2431,-7.2431,-7.3073,0.0,-7.2174,-7.2689,-7.2502,-7.0629,-6.9684,-6.8561,-6.6967,-6.4577,-6.3164,-6.3164,-6.0883,-5.9905,-6.0701,-5.8336,-5.6969,-5.6812,-5.2888,-5.021,-4.8901,0.0,0.0,0.0,0.0,0.0,0.0,0.0,0.0,0.0,0.0,0.0,0.0,0.0,0.0,0.0,0.0,0.0,0.0,0.0,0.0,0.0,0.0,-5.6449,-5.6287,-5.9758,-6.3458,-6.6513,-6.8893,-7.0556,-7.1369,-7.28,-7.4154,-7.5276,-7.6359,-7.7635,-7.9067,-7.9608,-8.0536,-8.2045,-8.2084,-8.2625,-8.3708,-8.4327,-8.4714,-8.4985,-8.5604,-8.5913,-8.5913,-8.5913,-8.5913,-8.5913,-8.5913,-8.5913,-8.5875,-8.5643,-8.572,-8.5681,-8.336,-8.2819,-8.3218,-8.1964,-8.0559,-7.9069,-7.7546,-7.67,-7.6153,-7.558,-7.5626,-7.5969,-7.589,-7.6306,-7.6837,-7.6755,-7.6714,-7.6714,-7.6714,-7.6865,-7.6979,-7.679,-7.6865,-7.6979,-7.6752,-7.6714,-7.6524,-7.588,-7.5577,-7.5046,-7.3833,-7.3416,-7.3144,-7.273,-7.2874,0.0,-7.2867,-7.2704,-7.2169,-7.1092,-7.0423,-6.9394,-6.78,-6.4903,-6.2891,-6.2257,-5.9348,-5.8083,-5.8878,-5.8088,-5.7568,-5.7514,-5.5274,-5.3728,0.0,0.0,0.0,0.0,0.0,0.0,0.0,0.0,0.0,0.0,0.0,0.0,0.0,0.0,0.0,0.0,0.0,0.0,0.0,0.0,0.0,0.0,-5.7809,-6.2161,-6.3296,-6.5122,-6.7501,-7.0711,-7.2142,-7.3303,-7.4309,-7.5508,-7.6397,-7.69,-7.8061,-7.9183,-8.015,-8.0885,-8.1736,-8.278,-8.3128,-8.3747,-8.4598,-8.5062,-8.5488,-8.5836,-8.6377,-8.661,-8.661,-8.661,-8.661,0.0,-8.661,-8.661,-8.6571,-8.6223,-8.6261,0.0,0.0,0.0,0.0,0.0,-8.1397,-8.0119,-7.878,-7.7683,-7.6731,-7.5932,-7.5624,-7.5653,-7.5994,-7.6449,-7.6941,-7.732,-7.7396,-7.7396,-7.7396,-7.7661,-7.7813,-7.7472,-7.7661,-7.7813,-7.7472,-7.7396,-7.7244,-7.6752,-7.6638,0.0,-7.5059,-7.4223,-7.3559,-7.3062,-7.2967,-7.292,-7.2886,-7.2576,-7.2087,-7.1413,-7.0762,-6.9756,-6.8162,-6.5605,0.0,0.0,0.0,-5.8286,-5.8106,-5.7891,0.0,0.0,0.0,0.0,0.0,0.0,0.0,0.0,-5.6717,-5.7366,0.0,0.0,0.0,0.0,0.0,0.0,0.0,0.0,0.0,0.0,0.0,0.0,0.0,0.0,0.0,0.0,-6.34,-6.7501,-7.0092,-7.0518,-7.1137,-7.2684,-7.4193,-7.5198,-7.5392,-7.6784,-7.779,-7.7983,-7.9376,-8.0304,-8.0498,0.0,0.0,0.0,0.0,-8.4637,-8.5449,-8.5449,-8.5836,-8.661,-8.661,-8.661,-8.661,-8.661,-8.661,-8.661,-8.661,-8.661,-8.6532,-8.5759,-8.5809,-8.6273,-8.4765,-8.3933,-8.3426,-8.228,-8.1613,-8.1229,-8.0391,0.0,0.0,-7.6411,-7.569,-7.5311,-7.5918,-7.6221,-7.6562,-7.732,-7.7623,-7.7699,-7.7699,-7.8192,-7.8571,-7.7851,-7.823,-7.8533,-7.7851,-7.7699,-7.7661,-7.7463,-7.7425,-7.7175,-7.6429,-7.5079,-7.3934,-7.3335,-7.3231,-7.3017,-7.2386,-7.2343,-7.2204,-7.1557,0.0,0.0,-6.8416,-6.6559,-6.4874,-6.3506,-6.16,-5.9921,-5.852,-5.8554,-5.8892,-5.9501,-6.0469,-6.2009,-6.4087,-6.5848,-6.7194,-6.8038,-6.229,-6.1948,0.0,0.0,0.0,0.0,0.0,0.0,0.0,0.0,0.0,0.0,0.0,0.0,0.0,0.0,0.0,-6.2104,-6.6399,-7.017,-7.2761,-7.369,-7.4231,-7.4579,-7.4889,-7.5662,-7.7055,-7.7481,-7.8254,-7.9608,-8.0034,-8.0807,-8.22,-8.2625,0.0,-8.4753,-8.4985,-8.5488,-8.6339,-8.6339,-8.6416,-8.661,0.0,0.0,-8.661,-8.661,-8.661,-8.661,-8.661,-8.661,-8.661,-8.6416,-8.5921,-8.5205,-8.4888,-8.4157,-8.3163,-8.2071,-8.1035,-8.006,-7.9225,-7.8652,-7.8116,-7.66,-7.6486,-7.6828,-7.6259,-7.7055,0.0,-7.8306,-7.8874,-7.9405,-7.9405,-7.9519,-7.9594,-7.9443,-7.9519,-7.9594,-7.9443,-7.9405,-7.9091,-7.789,-7.7645,-7.713,-7.5402,-7.5068,-7.4698,-7.3683,-7.3513,-7.3061,-7.1816,-7.2227,-7.2345,-7.1567,-7.1386,-7.0915,-7.0009,-6.7873,-6.6017,-6.4806,-6.3023,-6.1901,-6.1497,-6.2737,-6.3167,-6.2581,-6.4617,-6.5967,-6.6523,-6.8135,-6.9771,-7.1231,-6.8714,-6.8516,0.0,0.0,0.0,0.0,0.0,0.0,0.0,0.0,0.0,0.0,0.0,-5.3498,0.0,0.0,-6.3362,-6.6379,-6.9705,-7.2568,-7.427,-7.5237,-7.574,-7.574,-7.574,-7.6243,-7.7558,-7.8099,-7.8873,-8.0111,-8.1001,-8.189,-8.2741,-8.3592,-8.4443,-8.5256,-8.572,-8.6145,-8.661,-8.661,-8.661,-8.661,-8.661,-8.661,-8.661,-8.661,-8.661,-8.661,-8.661,-8.661,-8.661,-8.661,-8.6285,-8.5642,-8.4504,-8.3623,-8.2875,-8.1758,-8.1284,-8.1035,-8.0163,-7.986,-7.9556,-7.7889,-7.7358,-7.732,-7.6865,-7.7358,-7.8078,-7.8495,-7.9215,-7.9898,-7.9898,-7.9898,-7.9898,-7.9898,-7.9898,-7.9898,-7.9898,-7.9645,-7.9265,-7.8489,-7.8129,-7.751,-7.6236,-7.5809,-7.5255,-7.3934,-7.3775,-7.3505,-7.2826,-7.3052,-7.316,-7.2762,-7.2364,-7.1721,-7.0898,-6.8559,-6.6823,-6.6057,-6.5305,-6.4813,-6.4751,-6.5859,-6.6467,-6.6467,-6.8076,-6.9077,-6.9435,-7.0718,-7.2036,-7.3252,-7.229,-7.2283,0.0,0.0,0.0,0.0,0.0,0.0,0.0,0.0,-5.0364,-5.3962,-5.7018,-5.9764,-6.2162,-6.4986,-6.7771,-7.0324,-7.2645,-7.4425,-7.5237,-7.5972,-7.6397,-7.6397,-7.6397,-7.6823,-7.7829,-7.8602,-7.9415,-8.0382,-8.189,-8.2857,-8.3051,-8.4482,-8.5372,-8.5565,-8.6223,-8.661,-8.661,-8.661,-8.661,-8.661,-8.661,-8.661,-8.661,-8.661,-8.661,-8.661,-8.661,-8.6583,-8.6517,-8.6517,-8.6461,-8.6152,-8.4118,-8.3104,-8.2596,-8.1312,-8.13,-8.1793,-8.111,-8.0959,-8.0845,-7.9329,-7.8419,-7.7851,-7.7699,-7.751,-7.7548,-7.8192,-7.8874,-7.9405,-7.9405,-7.9405,-7.9405,-7.9405,-7.9405,-7.9405,-7.928,-7.8841,-7.8429,-7.8228,-7.7771,-7.7345,-7.6876,-7.624,-7.5432,-7.4276,-7.4138,-7.4102,-7.3921,-7.4066,-7.4102,-7.3921,-7.3277,-7.2488,-7.16,-6.9533,-6.8127,-6.7725,-6.779,-6.7855,-6.7855,-6.8439,-6.9154,-6.9931,-7.0897,-7.158,-7.1906,-7.2974,-7.376,-7.4225,-7.4083,-7.4262,-4.0195,-4.2107,0.0,-4.8079,-4.8444,-5.0208,0.0,0.0,-5.8488,-6.2704,-6.4445,-6.576,-6.7617,-6.8854,-7.044,-7.3032,-7.4309,-7.5276,-7.6127,-7.632,-7.6397,-7.6397,-7.6397,-7.7055,-7.868,-7.895,-7.9647,-8.1233,-8.2238,-8.3128,-8.3902,-8.4792,-8.5643,-8.6416,-8.6571,-8.661,-8.661,-8.661,-8.661,-8.661,-8.661,-8.661,-8.661,-8.661,-8.661,-8.661,-8.661,-8.6461,-8.6215,-8.6215,-8.5915,-8.5358,-8.4286,-8.332,-8.2216,-8.0618,-8.0087,-8.0163,-8.0049,-8.0504,-8.0959,-8.0049,-7.967,-7.9481,-7.8685,-7.7965,-7.7434,-7.751,-7.7586,-7.7699,-7.7699,-7.7699,-7.7699,-7.7699,-7.7699,-7.7538,-7.6977,-7.6798,-7.6506,-7.5457,-7.5206,-7.5225,-7.5277,-7.5284,-7.5146,-7.5008,-7.4971,-7.4718,-7.3993,-7.4537,-7.4718,-7.3993,-7.3718,-7.3158,-7.2166,-7.1673,-7.1072,-7.0324,-7.0154,-7.0122,-7.0122,-7.0871,-7.1335,-7.1406,-7.2869,-7.3298,-7.2691,-7.419,-7.4618,-7.4011,-7.4011,-7.4476,-4.784,0.0,0.0,0.0,-5.4819,-5.6936,-6.0871,-6.2025,-6.3091,-6.5876,-6.7501,-6.8622,-6.9357,-7.1021,-7.2645,0.0,-7.5005,-7.6165,-7.7016,-7.6281,-7.5817,-7.632,-7.5933,-7.6514,-7.8796,-7.8989,-7.9685,-8.1387,-8.278,-8.3708,-8.4095,-8.5333,-8.6223,-8.661,-8.661,-8.661,-8.661,-8.661,-8.661,-8.661,-8.661,-8.661,-8.661,-8.661,-8.6489,-8.6375,-8.6146,-8.6017,-8.5915,-8.5915,-8.5775,-8.5399,-8.4401,-8.3437,-8.2475,-8.1122,-8.0277,-7.9898,-7.9898,-8.0428,-8.1035,-8.0694,-8.058,-8.0428,-7.9594,-7.9102,-7.8761,-7.823,-7.8457,-7.8836,-7.8836,-7.8836,-7.8723,-7.823,-7.7861,-7.7447,-7.6648,-7.6005,-7.5366,-7.4853,-7.4507,-7.4279,-7.4421,-7.4428,-7.4428,-7.4428,-7.5225,-7.5696,-7.5334,-7.5587,-7.5412,-7.4549,-7.4276,-7.3852,-7.2821,-7.2543,-7.2295,-7.1973,-7.2263,-7.2334,-7.187,-7.262,-7.2834,-7.2334,-7.2976,-7.3369,-7.3512,-7.419,-7.4582,-7.4725,-7.4725,-7.4612,-5.1971,0.0,0.0,-5.6375,-5.9463,-6.2017,-6.2486,-6.4367,-6.6456,-6.7887,-6.9164,-7.0054,-7.0324,-7.191,0.0,-7.3806,-7.5082,-7.6359,-7.721,-7.6049,-7.5353,-7.5972,-7.5469,-7.5933,-7.8061,-7.8486,-7.9337,-8.1039,-8.2741,-8.3863,-8.4095,-8.5681,-8.661,-8.661,-8.661,-8.661,-8.661,-8.661,-8.661,-8.661,-8.6556,-8.6489,-8.6489,-8.6366,-8.6246,-8.6055,-8.5811,-8.5664,-8.559,-8.559,-8.5552,-8.5398,-8.4584,-8.3624,-8.2593,-8.1729,-8.0807,-7.9898,-7.9898,-8.0428,-8.1148,-8.1376,-8.1452,-8.1338,-8.0769,-8.0277,-7.9708,-7.8836,-7.8874,-7.9215,-7.9215,-7.9215,-7.8983,-7.8208,-7.7748,-7.719,-7.6256,-7.5366,-7.4735,-7.4335,-7.3842,-7.3595,-7.3595,-7.3595,-7.3667,-7.3885,-7.4899,-7.5732,-7.5949,-7.5985,-7.5593,-7.4528,-7.432,-7.3931,-7.308,-7.2869,-7.2798,-7.2798,-7.3369,-7.3405,-7.2798,-7.3369,-7.3405,-7.2798,-7.3012,-7.3298,-7.369,-7.4118,-7.4547,-7.4868,-7.5118,-7.4673,0.0,0.0,-5.6486,-5.8195,-6.119,-6.4131,-6.5702,-6.7423,-6.8932,-6.9744,-6.9938,-7.0247,-7.1098,-7.133,-7.191,-7.3612,-7.4618,-7.543,-7.632,-7.5662,-7.5121,-7.516,-7.5121,-7.5469,0.0,-7.7248,-7.8448,-8.0111,-8.1852,-8.3206,-8.4057,-8.5681,-8.661,-8.661,-8.661,-8.661,-8.661,-8.661,-8.661,-8.661,-8.6345,-8.6184,-8.6184,-8.5881,-8.57,-8.57,-8.57,-8.5514,-8.5311,-8.5311,-8.5181,-8.4947,-8.4863,-8.3839,-8.2444,-8.2361,-8.13,-7.9898,-7.9898,-8.0428,-8.1224,-8.2096,-8.2361,-8.2361,-8.2323,-8.1186,-7.9708,-7.8836,-7.804,-7.7472,-7.7472,-7.7472,-7.7306,-7.6742,-7.6563,-7.6231,-7.5101,-7.4808,-7.4409,-7.2998,-7.2762,-7.2762,-7.2762,-7.2762,-7.3016,-7.3776,-7.3957,-7.4247,-7.5044,-7.5152,-7.473,-7.3532,-7.346,-7.3288,-7.2869,-7.2798,-7.2798,-7.2798,-7.2798,-7.2834,-7.2798,-7.2798,-7.2798,-7.2798,-7.3583,-7.3619,-7.2834,-7.4404,-7.4796,-7.4083,-7.4868,-7.4673,0.0,0.0,-5.9349,-6.2177,-6.5025,-6.7386,-6.8468,-6.9164,-6.9512,-6.9241,-6.8738,-6.8236,-6.7965,-6.8854,-7.0208,-7.191,-7.338,-7.5005,-7.6978,-7.6011,-7.5314,-7.5895,-7.5469,0.0,0.0,0.0,0.0,-8.0097,-8.1813,-8.3167,-8.4057,-8.5681,-8.661,-8.661,-8.661,-8.661,-8.661,-8.6433,-8.6345,-8.6345,-8.6017,-8.5881,-8.5881,-8.559,-8.5435,-8.5435,-8.5228,-8.5094,-8.5044,-8.5044,-8.4954,-8.4863,-8.4256,-8.3347,-8.2323,-8.1755,-8.0845,-7.9898,-7.9898,-8.0087,-8.0542,-8.1944,-8.2399,-8.2399,-8.2399,-8.1982,-8.1262,-7.986,-7.9253,-7.9064,-7.9064,-7.8768,-7.8267,-7.7512,-7.6722,-7.592,-7.4978,-7.4482,-7.407,-7.3559,-7.3523,-7.3523,-7.3523,-7.3052,-7.2798,-7.3088,-7.3559,-7.3964,-7.4188,-7.4157,-7.3915,-7.3288,-7.3183,-7.3114,-7.2798,-7.2798,-7.2798,-7.2798,-7.2798,-7.2798,-7.2798,-7.2798,-7.2798,-7.2798,-7.3083,-7.3333,-7.3619,-7.4154,-7.4547,-7.4796,-7.5082,-7.4957,0.0,-5.9529,-6.1621,-6.5025,-6.7346,-6.8932,-6.9435,-6.9319,-6.8854,-6.8042,-6.6688,-6.5528,-6.4948,-6.5489,-6.6998,-6.9938,-7.1601,-7.3612,-7.6784,-7.6011,-7.5314,-7.5856,-7.574,0.0,0.0,0.0,0.0,-7.9671,-8.1644,-8.3167,-8.4057,-8.5681,-8.661,-8.661,-8.661,-8.6544,-8.6461,-8.6585,-8.6511,-8.6307,-8.578,-8.5513,-8.5395,-8.5228,-8.5181,-8.5138,-8.4954,-8.4901,-8.4901,-8.4901,-8.4901,-8.4863,-8.4294,-8.3385,-8.2323,-8.1755,-8.0845,-7.9898,-7.9898,-7.9898,-8.0125,-8.1489,-8.2134,-8.2323,-8.202,-8.2134,-8.2058,-8.0352,-7.9728,-7.9554,-7.9554,-7.9102,-7.8461,-7.7692,-7.6975,-7.6216,-7.5494,-7.5043,-7.4682,-7.4392,-7.4356,-7.4247,-7.3957,-7.3486,-7.3124,-7.3124,-7.3595,-7.3747,-7.3428,-7.3327,-7.3127,-7.2821,-7.2684,-7.2722,-7.2762,-7.2798,-7.2691,-7.2405,-7.2655,-7.2691,-7.2405,-7.2655,-7.2798,-7.2798,-7.3083,-7.3476,-7.4011,-7.4297,-7.4868,-7.5617,-7.5617,-7.5372,-5.9184,-6.135,-6.3439,-6.6727,-6.8236,-6.8854,-6.8738,-6.8042,-6.7075,-6.6069,-6.3864,-6.2085,0.0,0.0,-6.2704,-6.7771,-6.9435,-7.1562,-7.5856,-7.574,-7.5237,0.0,0.0,0.0,0.0,0.0,0.0,-7.9114,0.0,-8.3217,-8.4134,-8.5693,-8.6583,-8.6583,-8.6621,-8.651,-8.6261,-8.7,-8.7075,-8.6451,-8.5651,-8.5138,-8.4901,-8.4901,-8.4901,-8.4901,-8.4901,-8.4901,-8.4901,-8.4901,-8.4901,-8.4901,-8.4863,-8.3839,-8.2361,-8.2323,-8.13,-7.9898,-7.9898,-7.9898,-8.0049,-8.0883,-8.1679,-8.2172,-8.1376,-8.1717,-8.1982,-8.0309,-7.9425,-7.8966,-7.8966,-7.8506,-7.7923,-7.7316,-7.7194,-7.6983,-7.6409,-7.6275,-7.6058,-7.5334,-7.5189,-7.4935,-7.4102,-7.3993,-7.3957,-7.3921,-7.3921,-7.3631,-7.2871,-7.2669,-7.2473,-7.2274,-7.2072,-7.2221,-7.2727,-7.2798,-7.2477,-7.1799,-7.2405,-7.2513,-7.1834,-7.2477,-7.2869,-7.2905,-7.369,-7.4083,-7.4083,-7.4832,-7.5617,-7.6402,-7.6402,-7.5882,-6.1776,-6.4445,-6.6572,-6.8081,-6.9087,-6.9357,-6.8119,-6.6688,-6.4831,-6.2085,-5.9957,-5.8023,-5.6128,0.0,0.0,-6.5334,-6.8777,0.0,-7.6746,-7.7171,0.0,0.0,0.0,-7.8332,-7.8332,-7.9284,0.0,0.0,-8.207,-8.3463,-8.492,-8.5844,-8.63,-8.63,-8.6709,-8.6876,-8.6806,-8.6738,-8.6573,-8.6176,-8.5379,-8.4992,-8.4901,-8.4901,-8.4901,-8.4901,-8.4901,-8.4901,-8.4901,-8.4901,-8.4901,-8.4863,-8.4181,-8.3309,-8.2323,-8.1679,-8.0769,-7.9898,-7.9898,-7.9898,-8.0125,-8.1603,-8.1755,-8.1489,-8.1944,-8.1755,-8.1097,-7.9642,-7.9102,-7.8866,-7.8453,-7.7866,-7.7376,-7.7255,-7.6856,-7.6475,-7.6342,-7.6275,-7.6239,-7.6022,-7.5985,-7.5732,-7.4935,-7.479,-7.4609,-7.3993,-7.3921,-7.3783,-7.3471,-7.3435,-7.3236,-7.2896,-7.2791,-7.2794,-7.2798,-7.2798,-7.2727,-7.2513,-7.2691,-7.2976,-7.3405,-7.3619,-7.3976,-7.4582,-7.4796,-7.4903,-7.4903,-7.5118,-7.5617,-7.6402,-7.6402,-7.6512,-6.4522,-6.6959,-6.87,-6.9203,-6.9125,-6.8274,-6.5837,-6.3671,-6.1118,-5.7288,-5.5432,0.0,0.0,0.0,0.0,0.0,0.0,0.0,-7.5895,-7.721,-7.8022,0.0,-7.9299,0.0,-7.9531,-8.0614,-8.1659,0.0,-8.2996,-8.3861,-8.5072,-8.5806,-8.6137,-8.5992,-8.6274,-8.6738,-8.7349,-8.668,-8.6412,-8.6682,-8.5469,-8.4901,-8.4901,-8.4901,-8.4901,-8.4901,0.0,-8.4901,-8.4901,-8.4901,-8.4901,-8.4863,-8.437,-8.346,-8.2323,-8.1831,-8.0921,-7.9898,-7.9898,-7.9898,-8.0049,-8.0997,-8.1452,-8.1603,-8.1376,-8.1279,-8.0972,-7.944,-7.8611,-7.8146,-7.7809,-7.7255,-7.6793,-7.6793,-7.6505,-7.6275,-7.6275,-7.6275,-7.6275,-7.6275,-7.6275,-7.6167,-7.5696,-7.5556,-7.5345,-7.4875,-7.4771,-7.4704,-7.4704,-7.4024,-7.36,-7.358,-7.3545,-7.3547,-7.3833,-7.3833,-7.369,-7.3369,-7.3654,-7.3904,-7.4011,-7.4368,-7.4903,-7.5724,-7.5724,-7.5903,-7.6224,-7.6224,-7.6616,-7.7401,-7.663,-7.6428,-6.6998,-6.8816,-6.9976,-6.986,-6.8584,-6.6417,-6.2859,-5.9996,-5.6863,-5.2569,0.0,0.0,-4.8198,0.0,-5.4619,-5.9145,0.0,-6.922,-7.461,-7.6698,-7.8051,-7.9133,-7.9868,-8.037,-8.0473,-8.1839,-8.3027,-8.3665,-8.3988,-8.4387,-8.495,-8.5723,-8.6003,-8.5781,-8.5781,-8.6392,-8.7704,-8.6632,-8.6493,-8.7213,-8.5659,-8.4901,-8.4901,-8.4901,-8.4901,-8.4901,0.0,0.0,-8.4901,-8.4901,-8.4901,-8.4901,-8.4901,-8.3953,-8.2551,-8.2437,-8.1414,-8.0049,-7.9936,-7.9854,-7.981,-7.9924,-8.0832,-8.1703,-8.025,-8.0376,-8.0742,-7.9177,-7.7979,-7.7194,-7.7071,-7.67,-7.6275,-7.6275,-7.6275,-7.6275,-7.6275,-7.6275,-7.6275,-7.6275,-7.6275,-7.6275,-7.6275,-7.614,-7.6003,-7.6003,-7.5901,-7.5868,-7.5934,-7.4644,-7.3931,-7.4474,-7.4333,-7.444,-7.5153,-7.5225,-7.4903,-7.4225,-7.4832,-7.4903,-7.4225,-7.4832,-7.5581,-7.6367,-7.6402,-7.6759,-7.7508,-7.7508,-7.7789,-7.8354,-7.6905,-7.5973,-6.8081,-6.928,-6.9821,-6.9164,-6.7694,-6.5373,-6.1273,-5.7791,0.0,0.0,0.0,-4.638,-4.5452,-4.8585,0.0,-5.8952,0.0,0.0,0.0,0.0,-7.8227,0.0,0.0,0.0,0.0,0.0,0.0,0.0,0.0,0.0,-8.5506,-8.5505,-8.5621,-8.6032,-8.6032,-8.648,-8.7459,-8.6577,-8.6189,-8.6303,-8.5356,-8.4901,-8.4901,-8.4901,-8.4901,-8.4901,-8.4901,0.0,-8.4901,-8.4901,-8.4901,-8.4901,-8.4901,-8.4294,-8.3309,-8.2627,-8.1755,-8.0807,-8.0125,-7.9554,-7.9263,-7.994,-7.9902,-7.9541,-7.9471,-7.9054,-7.8517,-7.771,-7.7376,-7.7107,-7.657,-7.6409,-7.6275,-7.6275,-7.6275,-7.6275,-7.6275,-7.6275,-7.6275,-7.6275,-7.6275,-7.6275,-7.6275,-7.614,-7.6003,-7.6003,-7.5901,-7.5727,-7.5621,-7.5476,-7.5438,-7.5512,-7.537,-7.5191,-7.5189,-7.5225,-7.5153,-7.501,-7.5118,-7.5153,-7.501,-7.5153,-7.5581,-7.6367,-7.6402,-7.6759,-7.7508,-7.7508,-7.724,-7.664,-7.6338,-7.5358,-6.8352,-6.9087,-6.9164,-6.8352,-6.6495,-6.3555,-5.841,0.0,0.0,0.0,0.0,-4.4098,-4.286,0.0,0.0,0.0,0.0,0.0,0.0,0.0,0.0,0.0,0.0,0.0,0.0,0.0,0.0,0.0,0.0,0.0,-8.5475,-8.5209,-8.5204,-8.5469,-8.5886,-8.6303,-8.672,-8.6303,-8.6114,-8.6114,-8.528,-8.4901,-8.4901,-8.4901,-8.4901,-8.4901,-8.4901,0.0,-8.4901,-8.4901,-8.4901,-8.4901,-8.4901,-8.4105,-8.293,-8.2513,-8.1565,-8.0346,-7.9668,-7.9246,-7.8941,-7.8702,-7.8851,-7.9103,-7.8796,-7.8496,-7.8168,-7.7365,-7.6983,-7.67,-7.6342,-7.6208,-7.614,-7.614,-7.6108,-7.6039,-7.6039,-7.6039,-7.6039,-7.6039,-7.6039,-7.6039,-7.6039,-7.5901,-7.5762,-7.5762,-7.555,-7.5514,-7.5478,-7.5478,-7.5514,-7.5514,-7.5442,-7.5262,-7.5225,-7.5225,-7.5225,-7.5225,-7.5225,-7.5225,-7.5225,-7.5617,-7.6188,-7.6937,-7.6973,-7.733,-7.8115,-7.7269,-7.6587,-7.6152,-7.4787,-7.3665,-6.7887,-6.8506,-6.8545,-6.7501,-6.518,-6.1621,-5.5857,-5.2221,0.0,0.0,0.0,-4.2396,-4.1274,0.0,0.0,0.0,0.0,0.0,0.0,0.0,0.0,0.0,0.0,0.0,0.0,0.0,0.0,0.0,0.0,0.0,-8.5186,-8.4999,-8.4901,-8.4901,-8.5507,-8.5848,-8.5848,-8.5848,-8.5848,-8.5848,-8.5204,-8.4901,-8.4901,-8.4901,-8.4901,-8.4901,-8.4901,0.0,0.0,-8.4901,-8.4901,-8.4901,-8.4901,-8.3991,-8.2627,-8.2347,-8.1279,-7.9865,-7.9041,-7.8714,-7.8469,-7.7555,-7.7961,-7.8681,-7.7974,-7.7878,-7.7887,-7.7228,-7.67,-7.6275,-7.6275,-7.614,-7.6003,-7.5934,-7.5868,-7.5798,-7.5798,-7.5798,-7.5798,-7.5798,-7.5798,-7.587,-7.6013,-7.5908,-7.5801,-7.598,-7.5728,-7.5512,-7.5657,-7.5369,-7.5225,-7.5225,-7.5225,-7.5225,-7.5225,-7.5225,-7.5225,-7.5225,-7.5367,-7.5474,-7.5474,-7.6224,-7.6973,-7.7723,-7.758,-7.7789,-7.8419,-7.6896,-7.5919,-7.5297,-7.3303,-7.2066,-6.6417,-6.7578,-6.839,-6.6727,-6.3826,-5.9996,-5.4813,0.0,0.0,0.0,-4.1545,-4.1197,-4.1777,0.0,0.0,0.0,0.0,0.0,0.0,0.0,0.0,0.0,0.0,0.0,0.0,0.0,0.0,0.0,0.0,0.0,0.0,-8.4901,-8.4901,-8.4901,-8.4976,-8.5014,-8.5014,-8.5014,-8.5014,-8.5014,-8.4939,-8.4901,-8.4901,-8.4901,-8.4901,-8.4901,-8.4901,0.0,0.0,-8.4901,-8.4901,-8.4901,-8.4901,-8.4332,-8.3339,-8.2033,-8.0981,-7.998,-7.8624,-7.7809,-7.7376,-7.7255,-7.7292,-7.7304,-7.6636,-7.6445,-7.6518,-7.6445,-7.6342,-7.6275,-7.6275,-7.614,-7.5934,-7.5868,-7.5798,-7.5798,-7.5798,-7.5798,-7.5798,-7.5798,-7.5798,-7.6013,-7.6697,-7.6697,-7.6804,-7.752,-7.6872,-7.6295,-7.6295,-7.5653,-7.5225,-7.5225,-7.5225,-7.5225,-7.5225,-7.5225,-7.5225,-7.5225,-7.5903,-7.6295,-7.6295,-7.7009,-7.7758,-7.8543,-7.7865,-7.7483,-7.7509,-7.6654,-7.5025,-7.2688,-7.244,-7.1463,-6.5353,-6.634,-6.634,-6.5644,-6.2897,-5.9029,-5.3884,0.0,0.0,-4.2705,-4.1351,-4.0887,-4.1235,-4.197,-4.3606,0.0,-4.8605,0.0,0.0,0.0,0.0,0.0,0.0,0.0,0.0,0.0,0.0,0.0,0.0,0.0,0.0,-8.4901,-8.4901,-8.4901,-8.4901,-8.4901,-8.4901,-8.4901,-8.4901,-8.4901,-8.4901,-8.4901,-8.4901,-8.4901,-8.4901,-8.4901,-8.4901,0.0,0.0,-8.4901,-8.4901,-8.4901,-8.4901,-8.3843,-8.2271,-8.1696,-8.0413,-7.881,-7.7863,-7.7436,-7.7133,-7.6793,-7.6636,-7.6636,-7.6342,-7.6275,-7.6275,-7.6275,-7.6275,-7.6275,-7.614,-7.5865,-7.5691,-7.5514,-7.5442,-7.5442,-7.5442,-7.58,-7.6158,-7.6158,-7.6516,-7.6766,-7.6623,-7.6907,-7.7158,-7.7015,-7.7048,-7.6902,-7.6438,-7.6117,-7.5724,-7.526,-7.5225,-7.5225,-7.5225,-7.5225,-7.5225,-7.5225,-7.551,-7.5903,-7.6367,-7.7116,-7.7651,-7.7972,-7.7651,-7.6985,-7.5986,-7.4612,-7.3172,-7.1616,-7.1069,-7.0409,-6.3025,-6.4342,-6.4461,-6.4229,-6.1428,-5.7521,0.0,0.0,-4.5452,-4.228,-4.1197,-4.081,-4.081,-4.1467,-4.251,0.0,-4.5534,-4.863,-5.4726,0.0,0.0,0.0,0.0,0.0,0.0,0.0,0.0,0.0,0.0,0.0,0.0,-8.4901,-8.4901,-8.4901,-8.4901,-8.4901,-8.4901,-8.4901,-8.4901,-8.4901,-8.4901,-8.4901,-8.4901,-8.4901,-8.4901,-8.4901,0.0,0.0,0.0,-8.4901,-8.4901,-8.4901,-8.4675,-8.3337,-8.1482,-8.1078,-7.9614,-7.7789,-7.7133,-7.692,-7.6856,-7.6475,-7.6275,-7.6275,-7.6275,-7.6275,-7.6275,-7.6275,-7.6275,-7.614,-7.5934,-7.5691,-7.5406,-7.5297,-7.5225,-7.5225,-7.5225,-7.5831,-7.6331,-7.6081,-7.6652,-7.7009,-7.6474,-7.683,-7.708,-7.6759,-7.6973,-7.708,-7.6759,-7.6509,-7.6259,-7.5938,-7.5903,-7.5796,-7.5581,-7.5546,-7.5653,-7.5867,-7.6117,-7.6367,-7.6688,-7.7437,-7.7723,-7.7508,-7.6996,-7.6031,-7.4636,-7.2962,-7.1674,-7.0757,-7.0143,-6.9798,-5.8909,-6.1334,-6.3207,-6.2336,-5.907,-5.5161,0.0,-4.7657,-4.3904,-4.1351,-4.081,-4.081,-4.081,-4.1467,-4.251,-4.4036,-4.6993,-5.0788,0.0,0.0,0.0,0.0,0.0,0.0,0.0,0.0,0.0,0.0,0.0,0.0,0.0,-8.4901,-8.4901,-8.4901,-8.4901,-8.4901,-8.4901,-8.4901,-8.4901,-8.4901,-8.4901,-8.4901,-8.4901,-8.4901,-8.4901,0.0,0.0,0.0,0.0,-8.4901,-8.4901,-8.4854,-8.4167,-8.2909,-8.1342,-8.0096,-7.8589,-7.7133,-7.6505,-7.6275,-7.6275,-7.6275,-7.6275,-7.6275,-7.6275,-7.6275,-7.6275,-7.6275,-7.614,-7.5934,-7.5621,-7.5478,-7.5406,-7.5297,-7.5225,-7.5225,-7.5225,-7.5831,-7.6152,-7.5367,-7.5867,-7.6402,-7.6402,-7.6402,-7.6652,-7.7366,-7.6866,-7.6652,-7.7401,-7.683,-7.6688,-7.7401,-7.7473,-7.7187,-7.6438,-7.6367,-7.6688,-7.7437,-7.8222,-7.8294,-7.7508,-7.8258,-7.8294,-7.7508,-7.5889,-7.4555,-7.3756,-7.2049,-7.0757,-6.9798,-6.9798,-6.9798,-5.4111,-5.5676,-5.6143,-5.5259,-5.3706,-5.1485,-4.805,-4.5896,-4.3866,-4.1313,-4.0681,-4.0654,-4.0759,-4.0805,-4.2129,-4.6033,-4.7461,0.0,0.0,0.0,0.0,0.0,0.0,0.0,0.0,0.0,0.0,0.0,0.0,0.0,0.0,-8.4901,-8.4901,-8.4901,-8.4901,-8.4901,-8.4901,-8.4901,-8.4901,-8.4901,-8.4901,-8.4901,-8.4901,-8.4901,0.0,0.0,0.0,0.0,0.0,-8.4405,-8.3879,-8.3301,-8.274,-8.1231,-7.9379,-7.8995,-7.7897,-7.657,-7.6342,-7.6275,-7.6275,-7.6275,-7.6275,-7.6275,-7.6275,-7.6275,-7.6275,-7.614,-7.5971,-7.5798,-7.555,-7.5406,-7.5297,-7.5225,-7.5225,-7.5225,-7.5225,-7.5831,-7.6331,-7.6081,-7.6616,-7.6973,-7.6474,-7.683,-7.7045,-7.6795,-7.6973,-7.7045,-7.6759,-7.6545,-7.6259,-7.5974,-7.5938,-7.6045,-7.6367,-7.6402,-7.6259,-7.5938,-7.6188,-7.6438,-7.6723,-7.6973,-7.6747,-7.5854,-7.5257,-7.4065,-7.1961,-7.1491,-7.0757,-6.9798,-6.9798,-6.9798,0.0,-5.1239,-5.1858,-5.1322,-5.0181,-4.8564,-4.6172,-4.4492,-4.2941,-4.1054,-4.0545,-4.0462,-4.0654,-4.1024,-4.2294,-4.5418,0.0,0.0,0.0,0.0,0.0,0.0,0.0,0.0,0.0,0.0,0.0,0.0,0.0,0.0,0.0,0.0,-8.4901,-8.4901,-8.4901,-8.4901,-8.4901,-8.4901,-8.4901,-8.4901,-8.4901,-8.4901,-8.4901,-8.4901,0.0,0.0,0.0,0.0,0.0,-8.4078,-8.3479,-8.2723,-8.1763,-8.0358,-7.8846,-7.83,-7.7327,-7.6275,-7.6275,-7.6275,-7.6275,-7.6275,-7.6275,-7.6275,-7.6275,-7.6275,-7.6208,-7.5971,-7.5832,-7.5727,-7.5442,-7.5262,-7.5225,-7.5225,-7.5225,-7.5225,-7.5225,-7.5831,-7.6295,-7.601,-7.6545,-7.683,-7.6081,-7.6331,-7.6474,-7.601,-7.6331,-7.6581,-7.6402,-7.6402,-7.6295,-7.6081,-7.6081,-7.6152,-7.6367,-7.6402,-7.6295,-7.6081,-7.6081,-7.6004,-7.5844,-7.5844,-7.5282,-7.4101,-7.3691,-7.2811,-7.121,-7.0849,-7.0423,-6.9798,-6.9798,-6.9798,0.0,-4.7362,-4.9372,-4.9296,-4.7771,-4.6052,-4.5329,-4.3299,0.0,-4.0654,-4.0383,-4.0411,-4.0754,-4.1903,-4.2948,-4.3503,0.0,0.0,0.0,0.0,0.0,0.0,0.0,0.0,0.0,0.0,0.0,0.0,0.0,0.0,0.0,0.0,-8.4901,-8.4901,-8.4901,-8.4901,-8.4901,-8.4901,-8.4901,-8.4901,-8.4901,-8.4901,-8.4901,-8.4863,0.0,0.0,0.0,0.0,0.0,-8.3629,-8.3228,-8.2542,-8.1129,-8.0067,-7.9196,-7.7922,-7.6927,-7.6275,-7.6275,-7.6275,-7.6275,-7.6275,-7.6275,-7.6275,-7.6275,-7.6275,-7.6244,-7.5937,-7.5798,-7.5727,-7.537,-7.5189,-7.5225,-7.5225,-7.5225,-7.5225,-7.5225,-7.5796,-7.6081,-7.5367,-7.5796,-7.6081,-7.5332,-7.5225,-7.5225,-7.5225,-7.5225,-7.5474,-7.6224,-7.6295,-7.6581,-7.7259,-7.733,-7.7045,-7.6367,-7.6367,-7.6652,-7.7294,-7.7255,-7.6559,-7.5002,-7.4888,-7.4054,-7.2414,-7.1498,-7.112,-7.112,-7.0236,-6.9798,-6.9798,-6.9798,-6.9798,-3.7182,0.0,-4.125,-4.0566,-4.1091,-4.1513,0.0,-4.1119,-4.1387,0.0,0.0,0.0,0.0,0.0,0.0,0.0,0.0,0.0,0.0,0.0,0.0,0.0,0.0,0.0,0.0,0.0,0.0,0.0,0.0,0.0,0.0,0.0,-8.4901,-8.4901,-8.4901,-8.4901,-8.4901,-8.4901,-8.4901,-8.4901,-8.4901,-8.4901,-8.4901,-8.4218,0.0,0.0,0.0,0.0,-8.1993,-8.1042,-8.0198,-7.9437,-7.8588,-7.7777,-7.705,-7.6705,-7.6456,-7.6275,-7.6275,-7.6275,-7.6275,-7.6275,-7.6275,-7.6275,-7.6275,-7.6275,-7.6208,-7.6039,-7.5832,-7.5727,-7.5478,-7.537,-7.5225,-7.5225,-7.5225,-7.5225,-7.5225,-7.5367,-7.5439,-7.526,-7.5367,-7.5439,-7.5225,-7.5225,-7.5225,-7.5225,-7.5225,-7.526,-7.5474,-7.5474,-7.5546,-7.5724,-7.576,-7.5688,-7.551,-7.6045,-7.6188,-7.576,-7.5053,-7.4526,-7.408,-7.3403,-7.2586,-7.1532,-7.0574,-7.0143,-7.0143,-6.9893,-6.9798,-6.9798,-6.9798,-6.9798,-3.4463,-3.7129,-3.9721,-3.9267,-4.0186,-4.1127,-4.0788,0.0,0.0,0.0,0.0,0.0,0.0,0.0,0.0,0.0,0.0,0.0,0.0,0.0,0.0,0.0,0.0,0.0,0.0,0.0,0.0,0.0,0.0,0.0,0.0,0.0,-8.4294,-8.4294,-8.4294,-8.4484,-8.4901,-8.4484,-8.4294,-8.4294,-8.3915,-8.3764,-8.3726,-8.2964,-8.2642,0.0,0.0,0.0,-8.0599,-7.9854,-7.9169,-7.8479,-7.7751,-7.7217,-7.6818,-7.642,-7.6275,-7.6275,-7.6208,-7.6108,-7.6108,-7.614,-7.614,-7.614,-7.614,-7.614,-7.614,-7.5971,-7.5762,-7.5657,-7.5406,-7.5262,-7.5225,-7.5225,-7.5225,-7.5225,-7.5225,-7.5225,-7.5225,-7.5225,-7.5225,-7.5225,-7.5225,-7.5225,-7.5225,-7.5225,-7.5225,-7.5225,-7.5225,-7.5225,-7.5225,-7.5225,-7.5225,-7.5042,-7.4598,-7.4988,-7.5059,-7.4633,-7.4068,-7.3482,-7.2666,-7.2159,-7.1498,-7.0574,-7.0049,-6.9798,-6.9798,-6.9798,-6.9964,-7.0295,-7.0295,-7.0295,-3.4236,-3.7926,-4.1516,-4.0848,-4.157,-4.2465,-4.2446,0.0,0.0,0.0,0.0,0.0,0.0,0.0,0.0,0.0,0.0,0.0,0.0,0.0,0.0,0.0,0.0,0.0,0.0,0.0,0.0,0.0,0.0,0.0,0.0,0.0,0.0,-8.3422,-8.3422,-8.3764,-8.4522,-8.3802,-8.3422,-8.3385,-8.2657,-8.2271,-8.2225,-8.152,-8.1154,0.0,0.0,0.0,-7.9213,-7.915,-7.8771,-7.8267,-7.7579,-7.7326,-7.7217,-7.6529,-7.6275,-7.6208,-7.6003,-7.5901,-7.5798,-7.5971,-7.5934,-7.5934,-7.5934,-7.5934,-7.5865,-7.5798,-7.5657,-7.5478,-7.5262,-7.5189,-7.5225,-7.5225,-7.5225,-7.5225,-7.5225,-7.5225,-7.5225,-7.5225,-7.5225,-7.5225,-7.5225,-7.5225,-7.5225,-7.5225,-7.5225,-7.5225,-7.5225,-7.5225,-7.5116,-7.5006,-7.4968,-7.4598,-7.3641,-7.3641,-7.3562,-7.3402,-7.3402,-7.2666,-7.0996,-7.103,-7.0574,-6.9798,-6.9798,-6.9798,-6.9798,-6.9898,-7.0295,-7.0891,-7.1024,-7.1057,-3.5599,-3.9862,-4.2814,-3.9214,-4.0501,-4.2504,-4.1895,0.0,0.0,0.0,0.0,0.0,0.0,0.0,0.0,0.0,0.0,0.0,0.0,0.0,0.0,0.0,0.0,0.0,0.0,0.0,0.0,0.0,0.0,0.0,0.0,0.0,0.0,-8.2589,-8.2589,-8.2627,-8.2778,-8.2627,-8.2589,-8.2589,-8.1942,-8.1633,-8.1583,-8.0277,-7.9632,0.0,0.0,-7.7684,-7.7499,-7.7,-7.6772,-7.6637,-7.6529,-7.6456,-7.6456,-7.6348,-7.6208,-7.6003,-7.5868,-7.5798,-7.5798,-7.5798,-7.5868,-7.5868,-7.5868,-7.5691,-7.555,-7.555,-7.5478,-7.5478,-7.5478,-7.5334,-7.5225,-7.5225,-7.5225,-7.5225,-7.5225,-7.5225,-7.5225,-7.5225,-7.5225,-7.5225,-7.5225,-7.5225,-7.5225,-7.5225,-7.5225,-7.5225,-7.5225,-7.5225,-7.4858,-7.4068,-7.3991,-7.3641,-7.2797,-7.2714,-7.2414,-7.1674,-7.162,-7.1086,-7.0049,-6.9955,-6.9988,-6.9798,-6.9798,-6.9798,-6.9798,-7.0428,-7.0792,-7.0924,-7.1554,-7.1819,-3.4186,-3.8354,-4.1953,-4.0861,-4.3695,-4.6625,-4.6199,0.0,0.0,0.0,0.0,0.0,0.0,0.0,0.0,0.0,0.0,0.0,0.0,0.0,0.0,0.0,0.0,0.0,0.0,0.0,0.0,0.0,0.0,0.0,0.0,0.0,0.0,-8.1236,-8.1506,-8.1376,-8.0718,-8.064,-8.0783,-8.1188,-8.0165,-7.9679,-7.9626,-7.8664,-7.819,-7.8094,0.0,-7.67,-7.67,-7.6409,-7.6275,-7.6275,-7.6275,-7.6208,-7.614,-7.6039,-7.5901,-7.5762,-7.5657,-7.5585,-7.5514,-7.5585,-7.5657,-7.5657,-7.5657,-7.555,-7.5478,-7.5334,-7.5334,-7.5334,-7.5334,-7.5262,-7.5225,-7.5225,-7.5225,-7.5225,-7.5225,-7.5225,-7.5225,-7.5225,-7.5225,-7.5225,-7.5225,-7.5225,-7.5225,-7.5225,-7.5225,-7.5225,-7.5225,-7.4784,-7.4258,-7.3799,-7.3402,-7.2714,-7.1848,-7.1848,-7.1586,-7.121,-7.0757,-7.0236,-6.9798,-6.9798,-6.9798,-6.9798,-7.0196,-7.0394,-7.0394,-7.1123,-7.1686,-7.2117,-7.2448,-7.2614,-3.3737,-3.7488,-4.133,-4.3124,-4.6512,-4.961,-5.0354,0.0,0.0,0.0,0.0,0.0,0.0,0.0,0.0,0.0,0.0,0.0,0.0,0.0,0.0,0.0,0.0,0.0,0.0,0.0,0.0,0.0,0.0,0.0,0.0,0.0,-8.0415,-7.9905,-8.0235,-7.9954,-7.9019,-7.8752,-7.8962,-7.9664,-7.8443,-7.7866,-7.7866,-7.7255,-7.6983,-7.6983,-7.6505,-7.6275,-7.6275,-7.6275,-7.6275,-7.6208,-7.6208,-7.6072,-7.5971,-7.5798,-7.5657,-7.5478,-7.5406,-7.5334,-7.5225,-7.5334,-7.5406,-7.5406,-7.5406,-7.5406,-7.5406,-7.5262,-7.5225,-7.5225,-7.5225,-7.5225,-7.5225,-7.5225,-7.5225,-7.5225,-7.5225,-7.5225,-7.5225,-7.5225,-7.5225,-7.5225,-7.5225,-7.5225,-7.5116,-7.4933,-7.5001,-7.5068,-7.4882,-7.4335,-7.3926,-7.3682,-7.2927,-7.2019,-7.094,-7.0849,-7.0849,-7.0849,-7.0236,-6.9798,-6.9798,-6.9798,-6.9798,-6.9798,-7.0527,-7.0891,-7.0891,-7.1819,-7.2548,-7.3111,-7.3276,-7.3376,-3.6754,-3.9727,-4.2444,-4.4689,-4.6185,0.0,-5.1585,-5.1142,0.0,0.0,0.0,0.0,0.0,0.0,0.0,0.0,0.0,0.0,0.0,0.0,0.0,0.0,0.0,0.0,0.0,0.0,0.0,0.0,0.0,0.0,0.0,0.0,0.0,-7.9079,-7.8581,-7.8257,-7.8202,-7.7614,-7.7614,-7.8257,-7.7555,-7.7255,-7.7255,-7.6636,-7.6342,-7.6342,-7.6275,-7.6275,-7.6275,-7.6275,-7.6208,-7.6003,-7.6003,-7.5971,-7.5798,-7.555,-7.5478,-7.5478,-7.5297,-7.5189,-7.5189,-7.5225,-7.5189,-7.5189,-7.5189,-7.5189,-7.5225,-7.5189,-7.5225,-7.5225,-7.5225,-7.5225,-7.5225,-7.5225,-7.5225,-7.5225,-7.5225,-7.5225,-7.5225,-7.5225,-7.5225,-7.5225,-7.5225,-7.5225,-7.4933,-7.4068,-7.451,-7.4647,-7.3787,-7.4239,-7.4341,-7.3447,-7.2655,-7.1555,-7.0021,-6.9893,-6.9893,-6.9893,-6.9893,-6.9798,-6.9798,-6.9798,-6.9798,-6.9798,-7.0527,-7.0891,-7.0891,-7.2349,-7.3045,-7.3144,-7.3773,-7.4105,-3.4982,-3.8656,-4.2233,-4.4078,0.0,0.0,0.0,0.0,0.0,0.0,0.0,0.0,0.0,0.0,0.0,0.0,0.0,0.0,0.0,0.0,0.0,0.0,0.0,0.0,0.0,0.0,0.0,0.0,0.0,0.0,0.0,0.0,0.0,-7.7923,-7.8035,-7.7752,-7.6983,-7.7133,-7.7133,-7.6983,-7.6728,-7.6636,-7.6636,-7.6409,-7.6275,-7.6275,-7.6275,-7.6208,-7.614,-7.6208,-7.6108,-7.5832,-7.5762,-7.5621,-7.5585,-7.5442,-7.5262,-7.5262,-7.5225,-7.5225,-7.5225,-7.5225,-7.5225,-7.5225,-7.5225,-7.5225,-7.5225,-7.5225,-7.5225,-7.5225,-7.5225,-7.5225,-7.5225,-7.5225,-7.5225,-7.5225,-7.5225,-7.5225,-7.5225,-7.5225,-7.5225,-7.5042,-7.4411,-7.4335,-7.4167,-7.3704,-7.3934,-7.4148,-7.4292,-7.4042,-7.3708,-7.3341,-7.2579,-7.1808,-7.1189,-7.0759,-7.0494,-7.0494,-7.0494,-7.0494,-7.0494,-7.0924,-7.1156,-7.1156,-7.1885,-7.2283,-7.2283,-7.3276,-7.3773,-7.3773,-7.4038,-7.4171,-3.4661,-3.8348,-4.2294,0.0,0.0,0.0,0.0,0.0,0.0,0.0,0.0,0.0,0.0,0.0,0.0,0.0,0.0,0.0,0.0,0.0,0.0,0.0,0.0,0.0,0.0,0.0,0.0,0.0,0.0,0.0,0.0,0.0,0.0,0.0,-7.7436,-7.7133,-7.6275,-7.67,-7.67,-7.6275,-7.6275,-7.6275,-7.6311,-7.6208,-7.6208,-7.6208,-7.6176,-7.6039,-7.5971,-7.6108,-7.5971,-7.5657,-7.5478,-7.5406,-7.5406,-7.5262,-7.5225,-7.5225,-7.5225,-7.5225,-7.5225,-7.5225,-7.5225,-7.5225,-7.5225,-7.5225,-7.5225,-7.5225,-7.5225,-7.5225,-7.5225,-7.5225,-7.5225,-7.5225,-7.5225,-7.5225,-7.5225,-7.5225,-7.5225,-7.5225,-7.4933,-7.4598,-7.3878,-7.3562,-7.3322,-7.3154,-7.3411,-7.3645,-7.4162,-7.3823,-7.3514,-7.3312,-7.2674,-7.225,-7.2018,-7.1554,-7.1256,-7.1256,-7.1455,-7.1388,-7.0924,-7.162,-7.2018,-7.2018,-7.2713,-7.3111,-7.3111,-7.3807,-7.4171,-7.4171,-7.4171,-7.4171,-3.6779,-3.9393,0.0,0.0,0.0,0.0,0.0,0.0,0.0,0.0,0.0,0.0,0.0,0.0,0.0,0.0,0.0,0.0,0.0,0.0,0.0,0.0,0.0,0.0,0.0,0.0,0.0,0.0,0.0,0.0,0.0,0.0,0.0,0.0,-7.6636,-7.6275,-7.6275,-7.6275,-7.6275,-7.6275,-7.6275,-7.6275,-7.6275,-7.6072,-7.6003,-7.6003,-7.5868,-7.5798,-7.5798,-7.5798,-7.5657,-7.5478,-7.5297,-7.5225,-7.5225,-7.5225,-7.5225,-7.5225,-7.5225,-7.5225,-7.5225,-7.5225,-7.5225,-7.5225,-7.5225,-7.5225,-7.5225,-7.5225,-7.5225,-7.5225,-7.5225,-7.5225,-7.5225,-7.5225,-7.5225,-7.5225,-7.5225,-7.5189,-7.5189,-7.5189,-7.4411,-7.3799,-7.3799,-7.3078,-7.2399,-7.2248,-7.2776,-7.3272,-7.3111,-7.374,-7.3906,-7.321,-7.3111,-7.2813,-7.2084,-7.2018,-7.2018,-7.2018,-7.2713,-7.2448,-7.0991,-7.162,-7.2018,-7.2018,-7.2746,-7.3111,-7.3111,-7.384,-7.4171,-7.4171,-7.4171,-7.4171,-3.7758,0.0,0.0,0.0,0.0,0.0,0.0,0.0,0.0,0.0,0.0,0.0,0.0,0.0,0.0,0.0,0.0,0.0,0.0,0.0,0.0,0.0,0.0,0.0,0.0,0.0,0.0,0.0,0.0,0.0,0.0,0.0,0.0,0.0,-7.6409,-7.6275,-7.6275,-7.6275,-7.6275,-7.6275,-7.614,-7.614,-7.6275,-7.6072,-7.6003,-7.6003,-7.5868,-7.5727,-7.5585,-7.5442,-7.5442,-7.5478,-7.5297,-7.5225,-7.5225,-7.5225,-7.5225,-7.5225,-7.5225,-7.5225,-7.5225,-7.5225,-7.5225,-7.5225,-7.5225,-7.5225,-7.5225,-7.5225,-7.5225,-7.5225,-7.5225,-7.5225,-7.5225,-7.5225,-7.5225,-7.5225,-7.5225,-7.4673,-7.4258,-7.4258,-7.3482,-7.2666,-7.2108,-7.2171,-7.2282,-7.2066,-7.2738,-7.3275,-7.3841,-7.4038,-7.4105,-7.3873,-7.384,-7.3773,-7.3541,-7.3078,-7.278,-7.278,-7.2978,-7.2912,-7.2481,-7.3144,-7.3541,-7.3541,-7.374,-7.384,-7.384,-7.4072,-7.4171,-7.4171,-7.4171,-7.4171,-4.0254,0.0,0.0,0.0,0.0,0.0,0.0,0.0,0.0,0.0,0.0,0.0,0.0,0.0,0.0,0.0,0.0,0.0,0.0,0.0,0.0,0.0,0.0,0.0,0.0,0.0,0.0,0.0,0.0,0.0,0.0,0.0,0.0,0.0,-7.6275,-7.6275,-7.6275,-7.6275,-7.6275,-7.6311,-7.6072,-7.6072,-7.614,-7.5934,-7.5832,-7.5796,-7.5621,-7.5514,-7.5334,-7.5262,-7.5262,-7.5334,-7.5297,-7.5225,-7.5225,-7.5225,-7.5225,-7.5225,-7.5225,-7.5225,-7.5225,-7.5225,-7.5225,-7.5225,-7.5225,-7.5225,-7.5225,-7.5225,-7.5225,-7.5225,-7.5225,-7.5225,-7.5225,-7.5225,-7.5225,-7.5116,-7.4673,-7.4223,-7.3721,-7.3402,-7.2789,-7.2171,-7.1706,-7.1892,-7.2195,-7.2414,-7.3045,-7.3674,-7.4105,-7.4171,-7.4171,-7.4171,-7.4171,-7.4171,-7.4171,-7.3773,-7.3541,-7.3541,-7.3541,-7.3541,-7.3541,-7.3939,-7.4171,-7.4171,-7.4171,-7.4171,-7.4171,-7.4171,-7.4171,-7.4171,-7.4171,-7.4171,0.0,0.0,0.0,0.0,0.0,0.0,0.0,0.0,0.0,0.0,0.0,0.0,0.0,0.0,0.0,0.0,0.0,0.0,0.0,0.0,0.0,0.0,0.0,0.0,0.0,0.0,0.0,0.0,0.0,0.0,0.0,0.0,0.0,0.0,-7.6275,-7.6275,-7.6275,-7.6275,-7.6275,0.0,-7.6072,-7.6003,-7.5934,-7.5621,-7.5478,-7.5478,-7.5262,-7.5225,-7.5225,-7.5225,-7.5225,-7.5225,-7.5225,-7.5225,-7.5225,-7.5225,-7.5225,-7.5225,-7.5225,-7.5225,-7.5225,-7.5225,-7.5225,-7.5189,-7.5116,-7.5116,-7.5189,-7.5042,-7.5042,-7.5189,-7.5116,-7.5116,-7.5225,-7.5225,-7.5225,-7.4933,-7.3991,-7.3721,-7.3402,-7.2582,-7.2253,-7.2076,-7.2076,-7.2066,-7.2349,-7.3078,-7.3773,-7.4171,-7.4171,-7.4171,-7.4171,-7.4171,-7.4171,-7.4171,-7.4171,-7.4171,-7.4171,-7.4171,-7.4171,-7.4171,-7.4171,-7.4171,-7.4171,-7.4171,-7.4171,-7.4171,-7.4171,-7.4171,-7.4171,-7.4171,-7.4171,-7.4171,0.0,0.0,0.0,0.0,0.0,0.0,0.0,0.0,0.0,0.0,0.0,0.0,0.0,0.0,0.0,0.0,0.0,0.0,0.0,0.0,0.0,0.0,0.0,0.0,0.0,0.0,0.0,0.0,0.0,0.0,0.0,0.0,0.0,-7.6275,-7.6275,-7.6275,-7.6275,-7.6275,-7.6275,0.0,-7.5971,-7.5868,-7.5868,-7.5621,-7.5406,-7.5262,-7.5225,-7.5225,-7.5225,-7.5225,-7.5225,-7.5225,-7.5225,-7.5225,-7.5225,-7.5225,-7.5225,-7.5225,-7.5225,-7.5225,-7.5225,-7.5225,-7.5225,-7.5042,-7.4335,-7.4598,-7.4858,-7.3482,-7.4104,-7.5042,-7.4335,-7.4673,-7.5225,-7.5225,-7.5225,-7.4933,-7.3991,-7.3206,-7.2498,-7.1674,-7.1362,-7.1147,-7.1147,-7.2083,-7.3111,-7.384,-7.4072,-7.4171,-7.4171,-7.4171,-7.4171,-7.4171,-7.4171,-7.4171,-7.4171,-7.4171,-7.4171,-7.4171,-7.4171,-7.4171,-7.4171,-7.4171,-7.4171,-7.4171,-7.4171,-7.4171,-7.4171,-7.4171,-7.4171,-7.4171,-7.4171,-7.4171,0.0,0.0,0.0,0.0,0.0,0.0,0.0,0.0,0.0,0.0,0.0,0.0,0.0,0.0,0.0,0.0,0.0,0.0,0.0,0.0,0.0,0.0,0.0,0.0,0.0,0.0,0.0,0.0,0.0,0.0,0.0,-7.5515,-7.5732,-7.5732,-7.6094,-7.6275,-7.6275,-7.6275,-7.6275,-7.6311,-7.6007,-7.5727,-7.5514,-7.5406,-7.5262,-7.5225,-7.5225,-7.5225,-7.5225,-7.5225,-7.5225,-7.5225,-7.5225,-7.5225,-7.5225,-7.5225,-7.5225,-7.5225,-7.5225,-7.5225,-7.5225,-7.5225,-7.4858,-7.4411,-7.3991,-7.3834,-7.3677,-7.2749,-7.316,-7.3756,-7.3322,-7.3762,-7.4291,-7.4018,-7.4258,-7.4258,-7.3402,-7.2498,-7.1688,-7.1136,-7.1275,-7.1554,-7.1885,-7.2614,-7.3243,-7.3608,-7.3674,-7.3773,-7.4138,-7.4171,-7.4171,-7.4171,-7.4171,-7.4171,-7.4171,-7.4171,-7.4171,-7.4171,-7.4171,-7.4171,-7.4171,-7.4171,-7.4171,-7.4171,-7.4171,-7.4171,-7.4171,-7.4171,-7.4171,-7.4171,-7.4171,-7.4171,0.0,0.0,0.0,0.0,0.0,0.0,0.0,0.0,0.0,0.0,0.0,0.0,0.0,0.0,0.0,0.0,0.0,0.0,0.0,0.0,0.0,0.0,0.0,0.0,0.0,0.0,0.0,0.0,0.0,0.0,-7.3921,-7.4537,-7.4899,-7.4899,-7.5659,-7.6094,-7.6094,-7.6239,-7.6275,-7.6311,-7.6007,-7.5585,-7.5225,-7.5225,-7.5225,-7.5225,-7.5225,-7.5225,-7.5225,-7.5225,-7.5225,-7.5225,-7.5225,-7.5225,-7.5225,-7.5225,-7.5225,-7.5189,-7.5042,-7.4933,-7.4933,-7.4784,-7.4181,-7.3562,-7.3402,-7.2962,-7.2379,-7.2125,-7.2313,-7.2671,-7.2501,-7.3068,-7.3498,-7.2981,-7.3088,-7.316,-7.2414,-7.1674,-7.1108,-7.0752,-7.1421,-7.2183,-7.2813,-7.3111,-7.3243,-7.3144,-7.321,-7.3508,-7.4105,-7.4171,-7.4171,-7.4171,-7.4171,-7.4171,-7.4171,-7.4171,-7.4171,-7.4171,-7.4171,-7.4171,-7.4171,-7.4171,-7.4171,-7.4171,-7.4171,-7.4171,-7.4171,-7.4171,-7.4171,-7.4171,-7.4171,-7.4171,0.0,0.0,0.0,0.0,0.0,0.0,0.0,0.0,0.0,0.0,0.0,0.0,0.0,0.0,0.0,0.0,0.0,0.0,0.0,0.0,0.0,0.0,0.0,0.0,0.0,0.0,0.0,0.0,0.0,0.0,-7.3885,-7.403,-7.4066,-7.4066,-7.4863,-7.5261,-7.5261,-7.5949,-7.6275,-7.6311,-7.6007,-7.5585,-7.5225,-7.5225,-7.5225,-7.5225,-7.5225,-7.5225,-7.5225,-7.5225,-7.5225,-7.5225,-7.5225,-7.5225,-7.5225,-7.5225,-7.5225,-7.5116,-7.4258,-7.3991,-7.3878,-7.3078,-7.2832,-7.2582,-7.1761,-7.1987,-7.2159,-7.0632,-7.1796,-7.3293,-7.245,-7.2961,-7.3774,-7.424,-7.2946,-7.1532,-7.1444,-7.1266,-7.0973,-7.0087,-7.1057,-7.2051,-7.2117,-7.321,-7.3807,-7.321,-7.3641,-7.4072,-7.4171,-7.4171,-7.4171,-7.4171,-7.4171,-7.4171,-7.4171,-7.4171,-7.4171,-7.4171,-7.4171,-7.4171,-7.4171,-7.4171,-7.4171,-7.4171,-7.4171,-7.4171,-7.4171,-7.4171,-7.4171,-7.4171,-7.4171,-7.4171,0.0,0.0,0.0,0.0,0.0,0.0,0.0,0.0,0.0,0.0,0.0,0.0,0.0,0.0,0.0,0.0,0.0,0.0,0.0,0.0,0.0,0.0,0.0,0.0,0.0,0.0,0.0,0.0,0.0,-7.2183,-7.2545,-7.2979,-7.3233,-7.3233,-7.403,-7.4464,-7.4464,-7.479,-7.5055,-7.5322,-7.5582,-7.5514,-7.5225,-7.5225,-7.5225,-7.5225,-7.5225,-7.5225,-7.5225,-7.5225,-7.5225,-7.5116,-7.4598,-7.4784,-7.5042,-7.4104,-7.3991,-7.4258,-7.3402,-7.3044,-7.2962,-7.2631,-7.2159,-7.1674,-7.1266,-7.1086,-7.0815,-7.0049,-7.0924,-7.2018,-7.1587,-7.2378,-7.3325,-7.3257,-7.2378,-7.156,-7.1125,-7.069,-7.0463,-7.0424,-7.1289,-7.2018,-7.2018,-7.2548,-7.2978,-7.3111,-7.3376,-7.3707,-7.4105,-7.4171,-7.4171,-7.4171,-7.4171,-7.4171,-7.4171,-7.4171,-7.4171,-7.4171,-7.4171,-7.4171,-7.4171,-7.4171,-7.4171,-7.4171,-7.4171,-7.3833,-7.3149,-7.3833,-7.3833,-7.3181,-7.3833,-7.4171,0.0,0.0,0.0,0.0,0.0,0.0,0.0,0.0,0.0,0.0,0.0,0.0,0.0,0.0,0.0,0.0,0.0,0.0,0.0,0.0,0.0,0.0,0.0,0.0,0.0,0.0,0.0,0.0,0.0,-7.1494,-7.1494,-7.2074,-7.24,-7.24,-7.3197,-7.3595,-7.3595,-7.3747,-7.4055,-7.4542,-7.4976,-7.5227,-7.5225,-7.5225,-7.5042,-7.4858,-7.5116,-7.5225,-7.5189,-7.4933,-7.4858,-7.4748,-7.3834,-7.3913,-7.4335,-7.2996,-7.288,-7.3322,-7.2498,-7.2159,-7.2159,-7.1901,-7.141,-7.0849,-7.0849,-7.033,-6.9798,-6.9798,-7.0461,-7.1189,-7.1189,-7.215,-7.3011,-7.2647,-7.2283,-7.1753,-7.0825,-7.0196,-6.9964,-7.0494,-7.1223,-7.172,-7.172,-7.2051,-7.2481,-7.3045,-7.3276,-7.3575,-7.4105,-7.4171,-7.4171,-7.4171,-7.4171,-7.4171,-7.4171,-7.4171,-7.4171,-7.4171,-7.4171,-7.4171,-7.4171,-7.4171,-7.4171,-7.4171,-7.4171,-7.3731,-7.2835,-7.3731,-7.3595,-7.2379,-7.3285,-7.3731,0.0,0.0,0.0,0.0,0.0,0.0,0.0,0.0,0.0,0.0,0.0,0.0,0.0,0.0,0.0,0.0,0.0,0.0,0.0,0.0,0.0,0.0,0.0,0.0,0.0,0.0,0.0,0.0,0.0,-7.1494,-7.1494,-7.1531,-7.1567,-7.1567,-7.2364,-7.2762,-7.2762,-7.3363,-7.392,-7.4296,-7.4332,-7.4691,-7.5225,-7.5225,-7.4673,-7.3878,-7.4858,-7.5225,-7.5116,-7.4223,-7.3878,-7.3799,-7.288,-7.2582,-7.2666,-7.2548,-7.2548,-7.2414,-7.1586,-7.1266,-7.1086,-7.0236,-6.9893,-6.9893,-6.9893,-6.9893,-6.9798,-6.9798,-7.0825,-7.1951,-7.1951,-7.2515,-7.3276,-7.3906,-7.3011,-7.162,-7.0163,-6.9831,-6.9798,-6.9831,-7.0461,-7.0958,-7.0958,-7.2117,-7.3078,-7.3111,-7.3674,-7.4138,-7.4171,-7.4171,-7.4171,-7.4171,-7.4171,-7.4171,-7.4171,-7.4171,-7.4171,-7.4171,-7.4171,-7.4171,-7.4171,-7.4171,-7.4171,-7.4171,-7.4171,-7.4171,-7.407,-7.4171,-7.3595,-7.2379,-7.2485,-7.2485,0.0,0.0,0.0,0.0,0.0,0.0,0.0,0.0,0.0,0.0,0.0,0.0,0.0,0.0,0.0,0.0,0.0,0.0,0.0,0.0,0.0,0.0,0.0,0.0,0.0,0.0,0.0,0.0,0.0,0.0,-7.1458,-7.1494,-7.1494,-7.1494,-7.1784,-7.1865,-7.1838,-7.2305,-7.2893,-7.3544,-7.3363,-7.3928,-7.5116,-7.4026,-7.3562,-7.3799,-7.3562,-7.3517,-7.3402,-7.3078,-7.2962,-7.2914,-7.2022,-7.1987,-7.2414,-7.1232,-7.1142,-7.1498,-7.0666,-7.033,-7.0236,-6.9893,-6.9798,-6.9798,-6.9798,-6.9798,-6.9798,-6.9798,-7.0858,-7.2018,-7.2018,-7.2879,-7.374,-7.3541,-7.2746,-7.1852,-7.1322,-7.1223,-7.1223,-7.1223,-7.1024,-7.1189,-7.215,-7.2382,-7.2713,-7.3641,-7.4005,-7.4171,-7.4171,-7.4171,-7.4171,-7.4171,-7.4171,-7.4171,-7.4171,-7.4171,-7.4171,-7.4171,-7.4171,-7.4171,-7.4171,-7.4171,-7.4171,-7.4171,-7.4171,-7.3833,-7.3044,-7.3044,-7.2379,-7.1265,-7.1265,-7.1265,0.0,0.0,0.0,0.0,0.0,0.0,0.0,0.0,0.0,0.0,0.0,0.0,0.0,0.0,0.0,0.0,0.0,0.0,0.0,0.0,0.0,0.0,0.0,0.0,0.0,0.0,0.0,0.0,0.0,0.0,-7.1096,-7.1386,-7.1494,-7.1467,-7.1467,-7.134,-7.1117,-7.1421,-7.1759,-7.2157,-7.2277,-7.29,-7.3905,-7.2974,-7.2666,-7.2914,-7.2329,-7.2244,-7.2498,-7.2159,-7.2073,-7.1987,-7.1086,-7.1086,-7.1464,-7.0203,-7.0236,-7.0666,-7.0049,-6.9798,-6.9798,-6.9798,-6.9798,-6.9798,-6.9798,-6.9798,-6.9798,-6.9798,-7.0693,-7.1686,-7.1951,-7.2912,-7.3707,-7.321,-7.2548,-7.215,-7.2614,-7.215,-7.162,-7.162,-7.1024,-7.0991,-7.2481,-7.2316,-7.2515,-7.3939,-7.4171,-7.4171,-7.4171,-7.4171,-7.4171,-7.4171,-7.4171,-7.4171,-7.4171,-7.4171,-7.4171,-7.4171,-7.4171,-7.4171,-7.4171,-7.4171,-7.4171,-7.4171,-7.4171,-7.3833,-7.3044,-7.2624,-7.181,-7.0599,-7.0149,-7.0035,0.0,0.0,0.0,0.0,0.0,0.0,0.0,0.0,0.0,0.0,0.0,0.0,0.0,0.0,0.0,0.0,0.0,0.0,0.0,0.0,0.0,0.0,0.0,0.0,0.0,0.0,0.0,0.0,0.0,-7.0335,-7.0372,-7.1096,-7.1467,-7.1276,-7.1276,-7.1081,-7.0785,-7.0718,-7.0593,-7.0394,-7.1055,-7.1359,-7.1394,-7.2119,-7.1987,-7.121,-7.121,-7.1674,-7.2295,-7.1532,-7.121,-7.112,-7.0143,-6.9798,-6.9798,-6.9798,-6.9798,-6.9798,-6.9798,-6.9798,-6.9798,-6.9798,-6.9798,-6.9798,-6.9798,-6.9798,-6.9798,-6.9798,-7.0328,-7.1057,-7.1819,-7.2515,-7.3045,-7.3078,-7.2515,-7.2349,-7.3807,-7.2415,-7.0924,-7.0958,-7.0361,-7.0328,-7.1786,-7.2018,-7.2515,-7.3939,-7.4171,-7.4171,-7.4171,-7.4171,-7.4171,-7.4171,-7.4171,-7.4171,-7.4171,-7.4171,-7.4171,-7.4171,-7.4171,-7.4171,-7.4171,-7.4171,-7.4171,-7.4171,-7.4171,-7.4171,-7.407,-7.294,-7.1701,-7.0599,-6.9348,-6.8766,-3.2051,0.0,0.0,0.0,0.0,0.0,0.0,0.0,0.0,0.0,0.0,0.0,0.0,0.0,0.0,0.0,0.0,0.0,0.0,0.0,0.0,0.0,0.0,0.0,0.0,0.0,0.0,0.0,-6.8561,-6.9176,-7.0335,-7.1096,-7.1494,-7.1467,-7.0642,-7.0165,-7.0061,-6.92,-6.8983,-6.948,-6.9001,-6.9707,-7.1394,-7.0229,-7.031,-7.121,-7.0482,-7.0296,-7.054,-7.033,-7.0143,-7.0143,-6.9893,-6.9798,-6.9798,-6.9798,-6.9798,-6.9798,-6.9798,-6.9798,-6.9798,-6.9798,-6.9798,-6.9798,-6.9798,-6.9798,-6.9798,-6.9798,-7.0328,-7.1057,-7.1819,-7.1753,-7.1653,-7.2183,-7.1753,-7.1455,-7.2415,-7.172,-7.1223,-7.2283,-7.1885,-7.1686,-7.2647,-7.2349,-7.2515,-7.3939,-7.4171,-7.4171,-7.4171,-7.4171,-7.4171,-7.4171,-7.4171,-7.4171,-7.4171,-7.4171,-7.4171,-7.4171,-7.4171,-7.4171,-7.4171,-7.4171,-7.3833,-7.294,-7.294,-7.2485,-7.1593,-7.1265,-7.0933,-7.0599,-6.8444,-6.7548,-3.3986,-3.5194,-3.7091,0.0,0.0,0.0,0.0,0.0,0.0,0.0,0.0,0.0,0.0,0.0,0.0,0.0,0.0,0.0,0.0,0.0,0.0,0.0,0.0,0.0,0.0,0.0,0.0,-6.7438,-6.78,-6.8403,-6.9381,-7.0174,-7.0375,-6.9939,-6.953,-6.9273,-6.92,-6.837,-6.8028,-6.807,-6.7912,-6.8353,-6.9372,-6.8927,-6.9277,-7.0138,-6.9916,-6.9798,-6.9798,-6.9798,-6.9798,-6.9798,-6.9798,-6.9798,-6.9798,-6.9798,-6.9798,-6.9798,-6.9798,-6.9798,-6.9798,-6.9798,-6.9798,-6.9798,-6.9798,-6.9798,-6.9798,-6.9798,-7.0328,-7.0924,-7.1057,-7.0991,-7.1024,-7.1455,-7.0991,-7.0726,-7.1786,-7.1421,-7.1156,-7.2018,-7.1587,-7.1421,-7.2481,-7.2283,-7.2515,-7.3939,-7.4171,-7.4171,-7.4171,-7.4171,-7.4171,-7.4171,-7.4171,-7.4171,-7.4171,-7.4171,-7.4171,-7.4171,-7.4171,-7.3935,-7.3492,-7.3492,-7.2835,-7.1701,-7.1593,-7.1044,-6.9808,-6.9808,-6.9579,-6.9031,-6.7668,-6.6999,-3.677,-3.7248,-3.8779,-4.1311,0.0,0.0,-4.5236,-4.4693,0.0,0.0,0.0,0.0,0.0,0.0,0.0,0.0,0.0,0.0,0.0,0.0,0.0,0.0,0.0,0.0,0.0,-6.5482,-6.5808,-6.6605,-6.751,-6.7966,-6.7939,-6.8658,-6.8678,-6.7823,-6.8189,-6.8266,-6.8215,-6.7901,-6.7339,-6.6542,-6.7217,-6.7188,-6.6585,-6.7943,-6.8606,-6.8738,-6.9467,-6.9798,-6.9798,-6.9798,-6.9798,-6.9798,-6.9798,-6.9798,-6.9798,-6.9798,-6.9798,-6.9798,-6.9798,-6.9798,-6.9798,-6.9798,-6.9798,-6.9798,-6.9798,-6.9798,-6.9798,-6.9798,-7.0262,-7.0626,-6.9964,-7.0295,-7.0792,-7.0792,-7.0262,-7.0163,-7.1455,-7.1256,-7.0792,-7.0792,-7.0295,-7.0361,-7.1753,-7.2018,-7.2515,-7.3939,-7.4171,-7.4171,-7.4171,-7.4171,-7.4171,-7.4171,-7.4171,-7.4171,-7.4171,-7.4171,-7.4171,-7.4171,-7.4171,-7.3628,-7.2485,-7.2379,-7.181,-7.0375,-7.0262,-6.9693,-6.8562,-6.8766,-6.8206,-6.6999,-6.6999,-6.6999,-4.1438,-4.1789,-4.2486,-4.1143,0.0,0.0,0.0,-4.1506,0.0,0.0,0.0,0.0,0.0,0.0,0.0,0.0,0.0,0.0,0.0,0.0,0.0,0.0,0.0,0.0,0.0,-6.4613,-6.4975,-6.5772,-6.7184,-6.7714,-6.7153,-6.7903,-6.8214,-6.8041,-6.733,-6.7089,-6.7467,-6.6627,-6.6009,-6.5658,-6.5791,-6.6101,-6.6552,-6.7446,-6.8142,-6.8738,-6.9467,-6.9798,-6.9798,-6.9798,-6.9798,-6.9798,-6.9798,-6.9798,-6.9798,-6.9798,-6.9798,-6.9798,-6.9798,-6.9798,-6.9798,-6.9798,-6.9798,-6.9798,-6.9798,-6.9798,-6.9798,-6.9798,-6.9898,-6.9964,-6.9831,-6.9898,-6.9997,-6.9997,-6.9898,-6.9864,-7.0163,-7.0096,-6.9997,-6.9997,-7.0361,-7.0958,-7.1852,-7.2018,-7.2515,-7.3939,-7.4171,-7.4171,-7.4171,-7.4171,-7.4171,-7.4171,-7.4171,-7.4171,-7.4171,-7.4171,-7.4171,-7.4171,-7.4171,-7.3628,-7.2485,-7.2379,-7.1374,-6.9232,-6.8237,-6.7548,-6.7335,-6.8325,-6.8206,-6.6999,-6.6999,-6.6999,-4.4089,-4.427,-4.5091,-4.4295,0.0,0.0,0.0,0.0,0.0,0.0,0.0,0.0,0.0,0.0,0.0,0.0,0.0,0.0,0.0,0.0,0.0,0.0,0.0,0.0,0.0,-6.32,-6.3558,-6.4459,-6.5586,-6.5796,-6.4738,-6.5759,-6.6211,-6.5814,-6.587,-6.6045,-6.6136,-6.5928,-6.5692,-6.5425,-6.5425,-6.5591,-6.5989,-6.6751,-6.7479,-6.8208,-6.8937,-6.9434,-6.9798,-6.9798,-6.9798,-6.9798,-6.9798,-6.9798,-6.9798,-6.9798,-6.9798,-6.9798,-6.9798,-6.9798,-6.9798,-6.9798,-6.9798,-6.9798,-6.9798,-6.9798,-6.9798,-6.9798,-6.9798,-6.9798,-6.9798,-6.9798,-6.9798,-6.9798,-6.9798,-6.9798,-6.9798,-6.9798,-6.9798,-6.9798,-7.0096,-7.0593,-7.1322,-7.1753,-7.2382,-7.3475,-7.3939,-7.4171,-7.4171,-7.4171,-7.4171,-7.4171,-7.4171,-7.4171,-7.4171,-7.4171,-7.4171,-7.4171,-7.4171,-7.3389,-7.1593,-7.1484,-7.0375,-6.7998,-6.7335,-6.6999,-6.6999,-6.7668,-6.7548,-6.6999,-6.6999,-6.6999,0.0,0.0,0.0,0.0,0.0,-4.4874,0.0,0.0,0.0,-4.4802,0.0,0.0,0.0,0.0,0.0,0.0,0.0,0.0,0.0,0.0,0.0,0.0,0.0,0.0,0.0,-6.0955,-6.1364,-6.246,-6.3004,-6.2929,-6.2189,-6.3462,-6.3981,-6.3497,-6.4435,-6.5009,-6.5024,-6.5367,-6.5559,-6.5425,-6.5425,-6.5425,-6.5459,-6.6187,-6.6916,-6.7678,-6.8374,-6.9103,-6.9798,-6.9798,-6.9798,-6.9798,-6.9798,-6.9798,-6.9798,-6.9798,-6.9798,-6.9798,-6.9798,-6.9798,-6.9798,-6.9798,-6.9798,-6.9798,-6.9798,-6.9798,-6.9798,-6.9798,-6.9798,-6.9798,-6.9798,-6.9798,-6.9798,-6.9798,-6.9798,-6.9798,-6.9798,-6.9798,-6.9798,-6.9798,-6.9798,-7.003,-7.0759,-7.1521,-7.225,-7.3011,-7.3707,-7.4171,-7.4171,-7.4171,-7.4171,-7.4171,-7.4171,-7.4105,-7.3972,-7.4105,-7.4003,-7.3635,-7.3767,-7.2729,-7.0375,-7.0035,-6.9031,-6.6999,-6.6999,-6.6999,-6.6999,-6.6999,-6.6999,-6.6999,-6.6999,-6.6999,0.0,0.0,0.0,0.0,-5.009,0.0,0.0,0.0,-4.4077,-4.1687,0.0,0.0,0.0,0.0,0.0,0.0,0.0,0.0,0.0,0.0,0.0,0.0,0.0,0.0,0.0,0.0,-5.7739,-5.9329,-5.8941,-5.9446,-6.1256,-6.2151,-6.2884,-6.3463,-6.3424,-6.3967,-6.5024,-6.4834,-6.5026,-6.5425,-6.5425,-6.5425,-6.5459,-6.6187,-6.6916,-6.7678,-6.8374,-6.9103,-6.9798,-6.9798,-6.9798,-6.9798,-6.9798,-6.9798,-6.9798,-6.9798,-6.9798,-6.9798,-6.9798,-6.9798,-6.9798,-6.9798,-6.9798,-6.9798,-6.9798,-6.9798,-6.9798,-6.9798,-6.9798,-6.9798,-6.9798,-6.9798,-6.9798,-6.9798,-6.9798,-6.9798,-6.9798,-6.9798,-6.9798,-6.9798,-6.9798,-7.003,-7.0759,-7.1521,-7.225,-7.3011,-7.3707,-7.4171,-7.4171,-7.4171,-7.4171,-7.4171,-7.4171,-7.3906,-7.3276,-7.3807,-7.3434,-7.1682,-7.2234,-7.1484,-6.9116,-6.7998,-6.7335,-6.6999,-6.6999,-6.6999,-6.6999,-6.6999,-6.6999,-6.6999,-6.6999,-6.6999,0.0,0.0,0.0,0.0,0.0,0.0,-4.549,0.0,-4.3788,0.0,0.0,0.0,0.0,0.0,0.0,0.0,0.0,0.0,0.0,0.0,0.0,0.0,0.0,0.0,0.0,0.0,0.0,0.0,0.0,-5.6928,-5.9173,-6.0432,-6.1367,-6.1987,-6.2818,-6.3515,-6.4218,-6.4567,-6.496,-6.5425,-6.5425,-6.5425,-6.5425,-6.5724,-6.6519,-6.7645,-6.7943,-6.8738,-6.9798,-6.9798,-6.9798,-6.9798,-6.9798,-6.9798,-6.9798,-6.9798,-6.9798,-6.9798,-6.9798,-6.9798,-6.9798,-6.9798,-6.9798,-6.9798,-6.9798,-6.9798,-6.9798,-6.9798,-6.9798,-6.9798,-6.9798,-6.9798,-6.9798,-6.9798,-6.9798,-6.9798,-6.9798,-6.9798,-6.9798,-6.9798,-6.9798,-6.9898,-7.0196,-7.0858,-7.1455,-7.1786,-7.2448,-7.3078,-7.3508,-7.3177,-7.3243,-7.4072,-7.3409,-7.2746,-7.2204,-7.2004,-7.1526,-7.0428,-7.0299,-6.989,-6.8883,-6.7668,-6.6999,-6.6999,-6.6999,-6.6999,-6.6999,-6.6999,-6.6999,-6.6999,-6.6999,-6.6789,-5.4182,0.0,0.0,0.0,0.0,0.0,0.0,0.0,0.0,0.0,0.0,0.0,0.0,0.0,0.0,-4.4077,0.0,0.0,0.0,0.0,0.0,0.0,0.0,0.0,0.0,0.0,0.0,0.0,0.0,0.0,-5.7374,-5.8998,-6.0173,-6.0886,-6.2119,-6.2963,-6.3315,-6.3929,-6.4573,-6.5127,-6.5326,-6.5425,-6.5425,-6.5425,-6.6121,-6.7347,-6.7546,-6.8341,-6.95,-6.9699,-6.9798,-6.9798,-6.9798,-6.9798,-6.9798,-6.9798,-6.9798,-6.9798,-6.9798,-6.9798,-6.9798,-6.9798,-6.9798,-6.9798,-6.9798,-6.9798,-6.9798,-6.9798,-6.9798,-6.9798,-6.9798,-6.9798,-6.9798,-6.9798,-6.9798,-6.9798,-6.9798,-6.9798,-6.9798,-6.9798,-6.9798,-6.9798,-6.9798,-7.0394,-7.0891,-7.0891,-7.1521,-7.2183,-7.2746,-7.2349,-7.2283,-7.3006,-7.2182,-7.1254,-7.0381,-6.9986,-6.966,-6.9193,-6.8513,-6.8206,-6.8206,-6.7183,-6.6753,-6.6876,-6.6876,-6.6876,-6.6999,-6.6876,-6.6786,-6.6729,-6.6729,-6.646,0.0,0.0,0.0,-5.1502,0.0,0.0,0.0,0.0,-4.6902,0.0,0.0,0.0,0.0,-4.5888,-4.5888,-4.4331,-4.5337,0.0,0.0,0.0,0.0,0.0,0.0,0.0,0.0,0.0,0.0,0.0,0.0,0.0,-5.6528,-5.8254,-5.9633,-6.0852,-6.1421,-6.2029,-6.2516,-6.3112,-6.367,-6.4432,-6.5094,-6.5425,-6.5425,-6.5425,-6.5823,-6.6585,-6.7314,-6.8042,-6.8771,-6.95,-6.9798,-6.9798,-6.9798,-6.9798,-6.9798,-6.9798,-6.9798,-6.9798,-6.9798,-6.9798,-6.9798,-6.9798,-6.9798,-6.9798,-6.9798,-6.9798,-6.9798,-6.9798,-6.9798,-6.9798,-6.9798,-6.9798,-6.9798,-6.9798,-6.9798,-6.9798,-6.9798,-6.9798,-6.9798,-6.9798,-6.9798,-6.9798,-6.9798,-7.0394,-7.0891,-7.0891,-7.1521,-7.2018,-7.2051,-7.2018,-7.1589,-7.0545,-7.0377,-6.964,-6.7779,-6.821,-6.8469,-6.795,-6.7035,-6.6629,-6.6629,-6.6257,-6.6132,-6.6506,-6.6506,-6.6629,-6.6999,-6.6629,-6.6302,-6.6041,-6.6041,-6.6041,0.0,0.0,-5.8927,-5.4399,0.0,0.0,0.0,0.0,0.0,0.0,0.0,0.0,0.0,-4.5961,-4.5961,-4.4367,-4.47,-4.3964,0.0,0.0,0.0,0.0,0.0,0.0,0.0,0.0,0.0,0.0,0.0,0.0,0.0,-5.6443,-5.7775,-5.9208,-6.0257,-6.125,-6.2315,-6.2993,-6.3637,-6.4399,-6.5094,-6.5425,-6.5425,-6.5425,-6.5823,-6.6519,-6.6784,-6.7579,-6.8705,-6.897,-6.9334,-6.9798,-6.9798,-6.9798,-6.9798,-6.9798,-6.9798,-6.9798,-6.9798,-6.9798,-6.9798,-6.9798,-6.9798,-6.9798,-6.9798,-6.9798,-6.9798,-6.9798,-6.9798,-6.9798,-6.9798,-6.9798,-6.9798,-6.9798,-6.9798,-6.9798,-6.9798,-6.9798,-6.9798,-6.9798,-6.9798,-6.9798,-6.9798,-6.9997,-7.0163,-7.0163,-7.0361,-7.0726,-7.1223,-7.0858,-7.0469,-7.035,-6.9399,-6.8164,-6.6464,-6.6252,-6.6083,-6.562,-6.6219,-6.6382,-6.6132,-6.6007,-6.6007,-6.6132,-6.6132,-6.605,-6.57,-6.5577,-6.5251,-6.4721,-6.4306,-6.4219,-5.9687,-6.0194,0.0,-5.621,-5.4508,0.0,-4.8351,0.0,0.0,0.0,0.0,0.0,0.0,-4.7232,-4.6356,-4.5265,-4.4654,-4.2953,0.0,0.0,0.0,0.0,0.0,0.0,0.0,0.0,-4.3389,-4.6703,0.0,0.0,0.0,0.0,-5.6813,-5.8241,-5.9598,-6.0802,-6.1781,-6.251,-6.3272,-6.4001,-6.4697,-6.5194,-6.5425,-6.5425,-6.569,-6.6154,-6.6419,-6.7214,-6.8341,-6.8572,-6.9136,-6.9798,-6.9798,-6.9798,-6.9798,-6.9798,-6.9798,-6.9798,-6.9798,-6.9798,-6.9798,-6.9798,-6.9798,-6.9798,-6.9798,-6.9798,-6.9798,-6.9798,-6.9798,-6.9798,-6.9798,-6.9798,-6.9798,-6.9798,-6.9798,-6.9798,-6.9798,-6.9798,-6.9798,-6.9798,-6.9798,-6.9798,-6.9798,-6.9798,-6.9798,-6.9798,-6.9798,-6.9964,-7.0461,-6.9775,-6.9091,-6.8852,-6.7564,-6.6161,-6.4562,-6.4363,-6.4278,-6.4395,-6.531,-6.5742,-6.5853,-6.5756,-6.5756,-6.5882,-6.5647,-6.5323,-6.5005,-6.4646,-6.4205,-6.3678,-6.3146,-6.2941]}]]